     2              OBSERVATION DATA    GPS                 RINEX VERSION / TYPE
teqc 2000Jul20 Karen Wendt 20031231 22:49:49UTC             PGM / RUN BY / DATE
                                                            COMMENT
L2: 1 -> 1; 150 -> 5; 250 -> 9                              COMMENT
L2: 1 -> 1; 150 -> 5; 250 -> 9                              COMMENT
L2: 1 -> 1; 150 -> 5; 250 -> 9                              COMMENT
L2: 1 -> 1; 150 -> 5; 250 -> 9                              COMMENT
L2: 1 -> 1; 150 -> 5; 250 -> 9                              COMMENT
L2: 1 -> 1; 150 -> 5; 250 -> 9                              COMMENT
L2: 1 -> 1; 150 -> 5; 250 -> 9                              COMMENT
L2: 1 -> 1; 150 -> 5; 250 -> 9                              COMMENT
L2: 1 -> 1; 150 -> 5; 250 -> 9                              COMMENT
L2: 1 -> 1; 150 -> 5; 250 -> 9                              COMMENT
L2: 1 -> 1; 150 -> 5; 250 -> 9                              COMMENT
L2: 1 -> 1; 150 -> 5; 250 -> 9                              COMMENT
L2: 1 -> 1; 150 -> 5; 250 -> 9                              COMMENT
L2: 1 -> 1; 150 -> 5; 250 -> 9                              COMMENT
Original Marker Name: 2076 2076_stmpd_SLO-01_PM53.8_GPS-7_19COMMENT
Campaign Name: USGS San Simeon 2003-2004                    COMMENT
4-Character Station Name: 2076                              COMMENT
6-Character Antenna Code: DMRCHT                            COMMENT
Vertical Measurement Point: BCR                             COMMENT
Vertical Offset to Rinex Ref. Point: 0.0348                 COMMENT
Radial Measurement Point: ECF                               COMMENT
Radial Offset to Rinex Ref. Point: 0.1897                   COMMENT
Antenna Height from Field Measurement: 0.5840 m             COMMENT
Additional Antenna Identification Info.:                    COMMENT
Turborogue and Ashtech Choke Ring                           COMMENT
Original XYZ: -2684300.4301 -4443819.8969 3692667.5975      COMMENT
New XYZ position is based on association with SCEC monument COMMENT
E1F0L6J2+0011. Position of that monument is believed to be  COMMENT
valid to within 1 m horizontally; vertical accuracy         COMMENT
should be no worse than 3-times this value.                 COMMENT
                                                            COMMENT
Revised Rinex header created by UCSD GPS archive for        COMMENT
GSAC on 20-Apr-2005 (2005:110) 16:28:11 GMT                 COMMENT
For assistance contact dagnew@ucsd.edu                      COMMENT
or anderson@python.ucsd.edu                                 COMMENT
                                                            COMMENT
SLO 01 PM53.8 1986 GPS7                                     MARKER NAME
JMS US GEOLOGICAL SURVEY                                    OBSERVER / AGENCY
ZE120023202 ASHTECH UZ-12 ZE00                              REC # / TYPE / VERS
CR520031626 DORNE-MARGOL. TYPE T                            ANT # / TYPE
 -2684321.0000 -4443797.0000  3692656.0000                  APPROX POSITION XYZ
        0.5175        0.0000        0.0000                  ANTENNA: DELTA H/E/N
     1     1     0                                          WAVELENGTH FACT L1/2
     5    C1    L1    L2    P1    P2                        # / TYPES OF OBSERV
    30                                                      INTERVAL
  2003    12    26     0     0    0.000000                  TIME OF FIRST OBS
  2003    12    26    23    59   30.000000                  TIME OF LAST OBS
                                                            END OF HEADER
 03 12 26  0  0  0.0000000  0  8G 4G 9G17G30G 5G10G 6G24
  23986259.002    -8114800.17343  -6285412.75042  23986260.507    23986258.885
  24518199.310    -4396229.13043  -3381729.73042  24518200.621    24518200.810
  20644904.569   -24975806.94944 -19448415.08342  20644905.186    20644902.829
  20932330.960   -23050401.33443 -17947918.47842  20932332.881    20932329.651
  20245995.406   -27729225.49844 -21572723.98742  20245996.268    20245993.399
  22011477.097   -17930759.03443 -13965556.64942  22011477.855    22011476.293
  23251504.565   -11539280.23843  -8954819.76542  23251506.184    23251504.831
  21044639.854   -23227605.56744 -17918952.47442  21044640.737    21044638.545
 03 12 26  0  0 30.0000000  0  8G 4G 9G17G30G 5G10G 6G24
  24005637.824    -8012964.15543  -6206060.05042  24005639.325    24005637.731
  24537154.067    -4296622.04843  -3304113.88342  24537155.304    24537155.413
  20640852.931   -24997098.51744 -19465005.89742  20640853.535    20640851.160
  20920714.117   -23111448.14043 -17995487.37942  20920716.030    20920712.789
  20248644.119   -27715306.25544 -21561877.81542  20248645.018    20248642.139
  21997421.481   -18004621.46343 -14023111.71942  21997422.262    21997420.671
  23238677.978   -11606684.40143  -9007342.43342  23238679.529    23238678.197
  21055102.691   -23172623.05644 -17876108.96142  21055103.582    21055101.348
 03 12 26  0  1  0.0000000  0  8G 4G 9G17G30G 5G10G 6G24
  24025026.485    -7911076.17343  -6126666.85842  24025027.998    24025026.476
  24556097.605    -4197073.85443  -3226543.88542  24556098.857    24556098.784
  20636883.891   -25017955.93444 -19481258.41242  20636884.483    20636882.128
  20909175.725   -23172082.66243 -18042735.01942  20909177.637    20909174.380
  20251393.214   -27700859.66344 -21550620.72642  20251394.104    20251391.222
  21983443.082   -18078078.13243 -14080350.62942  21983443.862    21983442.277
  23225861.094   -11674037.40843  -9059825.23742  23225862.628    23225861.289
  21065629.597   -23117303.93244 -17833003.15342  21065630.493    21065628.216
 03 12 26  0  1 30.0000000  0  8G 4G 9G17G30G 5G10G 6G24
  24044425.068    -7809136.44643  -6047233.35142  24044426.514    24044424.982
  24575029.687    -4097585.23643  -3149020.39542  24575030.912    24575030.878
  20632997.781   -25038377.54744 -19497171.33942  20632998.378    20632996.017
  20897716.546   -23232300.87543 -18089658.26342  20897718.469    20897715.204
  20254243.039   -27685883.53544 -21538951.00842  20254243.933    20254241.081
  21969542.808   -18151124.27443 -14137269.64342  21969543.586    21969541.999
  23213054.323   -11741337.18243  -9112266.56742  23213055.874    23213054.520
  21076220.449   -23061648.71344 -17789635.45142  21076221.360    21076219.065
 03 12 26  0  2  0.0000000  0  8G 4G 9G17G30G 5G10G 6G24
  24063832.519    -7707149.35243  -5967762.94442  24063834.073    24063832.556
  24593949.467    -3998161.21743  -3071547.16642  24593950.722    24593950.713
  20629194.080   -25058366.08844 -19512746.80642  20629194.696    20629192.304
  20886336.578   -23292102.91743 -18136257.21442  20886338.505    20886335.236
  20257193.266   -27670379.90544 -21526870.25142  20257194.163    20257191.348
  21955720.884   -18223758.62143 -14193867.78242  21955721.646    21955720.092
  23200257.280   -11808585.89743  -9164668.11242  23200258.803    23200257.451
  21086874.333   -23005662.12344 -17746009.53742  21086875.258    21086872.957
 03 12 26  0  2 30.0000000  0  8G 4G 9G17G30G 5G10G 6G24
  24083249.469    -7605112.45343  -5888253.71242  24083251.084    24083249.559
  24612857.253    -3898800.03843  -2994122.94842  24612858.532    24612858.657
  20625473.575   -25077917.38244 -19527981.56142  20625474.206    20625471.799
  20875037.103   -23351481.89243 -18182526.50542  20875039.032    20875035.759
  20260244.738   -27654344.36044 -21514375.01342  20260245.632    20260242.800
  21941978.675   -18295974.05043 -14250139.49242  21941979.463    21941977.898
  23187470.831   -11875778.87843  -9217026.21742  23187472.396    23187470.993
  21097591.780   -22949341.55644 -17702123.38042  21097592.718    21097590.400
 03 12 26  0  3  0.0000000  0  8G 4G 9G17G30G 5G10G 6G24
  24102674.555    -7503033.01443  -5808711.33842  24102676.170    24102674.675
  24631751.705    -3799509.63143  -2916753.85342  24631752.953    24631753.088
  20621835.276   -25097036.99244 -19542879.94142  20621835.857    20621833.434
  20863817.533   -23410440.94943 -18228468.59042  20863819.466    20863816.172
  20263396.389   -27637782.35944 -21501469.54942  20263397.284    20263394.429
  21928315.744   -18367772.87343 -14306086.57142  21928316.541    21928314.991
  23174693.996   -11942921.39543  -9269344.99742  23174695.536    23174694.137
  21108371.344   -22892694.54444 -17657982.85342  21108372.285    21108369.981
 03 12 26  0  3 30.0000000  0  8G 4G 9G17G30G 5G10G 6G24
  24122107.934    -7400909.99343  -5729134.99242  24122109.562    24122108.025
  24650632.718    -3700289.55943  -2839439.56542  24650633.907    24650634.114
  20618279.589   -25115722.22344 -19557439.84242  20618280.144    20618277.725
  20852678.911   -23468974.72943 -18274079.29242  20852680.817    20852677.516
  20266648.787   -27620690.73344 -21488151.39142  20266649.702    20266646.857
  21914733.307   -18439148.92343 -14361704.22042  21914734.093    21914732.537
  23161927.402   -12010010.18843  -9321621.91342  23161928.924    23161927.504
  21119213.164   -22835720.38244 -17613587.39942  21119214.104    21119211.788
 03 12 26  0  4  0.0000000  0  8G 4G 9G17G30G 5G10G 6G24
  24141548.471    -7298749.42743  -5649529.41542  24141550.102    24141548.563
  24669499.064    -3601146.57143  -2762185.38842  24669500.230    24669500.566
  20614805.705   -25133977.41844 -19571664.65042  20614806.266    20614803.853
  20841620.920   -23527084.79543 -18319359.83142  20841622.814    20841619.506
  20270001.325   -27603072.98544 -21474423.27242  20270002.226    20269999.404
  21901231.140   -18510103.19343 -14416993.20942  21901231.910    21901230.362
  23149170.256   -12077049.16443  -9373860.01042  23149171.767    23149170.339
  21130116.038   -22778425.36544 -17568941.93142  21130116.979    21130114.660
 03 12 26  0  4 30.0000000  0  8G 4G 9G17G30G 5G10G 6G24
  24160997.245    -7196545.92043  -5569890.35542  24160998.789    24160997.273
  24688351.575    -3502076.03343  -2684987.60442  24688352.745    24688353.047
  20611415.012   -25151795.51544 -19585548.86342  20611415.565    20611413.157
  20830645.295   -23584761.81443 -18364302.92742  20830647.209    20830643.901
  20273455.325   -27584922.15644 -21460279.76242  20273456.209    20273453.385
  21887811.207   -18580625.37343 -14471945.50642  21887811.944    21887810.345
  23136424.005   -12144030.78843  -9426053.40942  23136425.561    23136424.110
  21141080.975   -22720804.32144 -17524042.41342  21141081.896    21141079.579
 03 12 26  0  5  0.0000000  0  8G 4G 9G17G30G 5G10G 6G24
  24180452.546    -7094307.71443  -5490224.26142  24180454.097    24180452.586
  24707188.699    -3403086.87443  -2607853.24442  24707189.836    24707190.093
  20608106.205   -25169183.31844 -19599097.77942  20608106.746    20608104.326
  20819751.344   -23642009.75743 -18408911.67542  20819753.257    20819749.938
  20277009.665   -27566243.99544 -21445725.34242  20277010.564    20277007.706
  21874472.869   -18650718.73243 -14526563.65942  21874473.589    21874471.975
  23123687.541   -12210961.27543  -9478206.94542  23123689.061    23123687.587
  21152106.323   -22662865.67644 -17478895.41042  21152107.258    21152104.925
 03 12 26  0  5 30.0000000  0  8G 4G 9G17G30G 5G10G 6G24
  24199914.763    -6992033.25743  -5410529.91642  24199916.370    24199914.829
  24726010.336    -3304177.94843  -2530781.41442  24726011.404    24726011.849
  20604879.938   -25186137.34744 -19612308.69342  20604880.479    20604878.054
  20808940.193   -23698822.79243 -18453181.54142  20808942.086    20808938.752
  20280664.980   -27547035.18444 -21430757.43442  20280665.869    20280663.011
  21861217.353   -18720376.88643 -14580842.69242  21861218.066    21861216.402
  23110961.523   -12277836.65843  -9530317.55042  23110963.065    23110961.549
  21163192.355   -22604608.24944 -17433500.01442  21163193.265    21163190.934
 03 12 26  0  6  0.0000000  0  8G 4G 9G17G30G 5G10G 6G24
  24219382.874    -6889727.70143  -5330811.34142  24219384.462    24219382.966
  24744815.714    -3205355.17043  -2453776.74642  24744816.883    24744817.213
  20601735.490   -25202661.46844 -19625184.61242  20601736.027    20601733.585
  20798211.552   -23755202.00743 -18497113.35842  20798213.453    20798210.114
  20284420.675   -27527298.86844 -21415378.47742  20284421.576    20284418.690
  21848044.536   -18789600.17543 -14634782.86742  21848045.295    21848043.588
  23098245.383   -12344659.95243  -9582387.56242  23098246.960    23098245.429
  21174337.985   -22546037.55744 -17387860.51242  21174338.891    21174336.553
 03 12 26  0  6 30.0000000  0  8G 4G 9G17G30G 5G10G 6G24
  24238856.766    -6787391.55743  -5251068.92942  24238858.407    24238856.969
  24763604.523    -3106619.55843  -2376839.95242  24763605.816    24763606.096
  20598673.077   -25218754.53944 -19637724.65042  20598673.615    20598671.169
  20787566.193   -23811143.55343 -18540704.13742  20787568.102    20787564.762
  20288276.950   -27507033.95644 -21399587.63242  20288277.866    20288274.955
  21834955.347   -18858384.26043 -14688380.80442  21834956.068    21834954.363
  23085539.426   -12411429.65043  -9634415.79942  23085541.038    23085539.485
  21185543.098   -22487154.28644 -17341977.44442  21185544.015    21185541.664
 03 12 26  0  7  0.0000000  0  8G 4G 9G17G30G 5G10G 6G24
  24258336.926    -6685022.77243  -5171301.07642  24258338.561    24258337.150
  24782377.007    -3007969.75943  -2299970.09642  24782378.342    24782378.585
  20595693.319   -25234413.16344 -19649926.15642  20595693.852    20595691.404
  20777005.275   -23866641.32943 -18583949.12142  20777007.194    20777003.856
  20292234.645   -27486236.09644 -21383381.50242  20292235.546    20292232.658
  21821950.982   -18926722.26943 -14741631.14342  21821951.736    21821950.027
  23072844.521   -12478141.47843  -9686398.95542  23072846.114    23072844.533
  21196808.077   -22427956.29944 -17295849.14142  21196808.994    21196806.687
 03 12 26  0  7 30.0000000  0  8G 4G 9G17G30G 5G10G 6G24
  24277821.479    -6582630.96443  -5091515.27842  24277823.073    24277821.690
  24801131.262    -2909416.03143  -2223175.02042  24801132.585    24801132.850
  20592794.721   -25249645.31244 -19661795.34442  20592795.268    20592792.806
  20766527.758   -23921700.78644 -18626852.56042  20766529.695    20766526.355
  20296292.317   -27464912.97344 -21366766.07642  20296293.201    20296290.302
  21809030.676   -18994618.65943 -14794537.36342  21809031.408    21809029.714
  23060159.238   -12544802.72843  -9738342.69542  23060160.835    23060159.227
  21208130.984   -22368454.03844 -17249483.73842  21208131.899    21208129.582
 03 12 26  0  8  0.0000000  0  8G 4G 9G17G30G 5G10G 6G24
  24297311.109    -6480212.57743  -5011708.78642  24297312.579    24297311.343
  24819867.591    -2810955.59843  -2146452.69642  24819868.867    24819869.307
  20589978.244   -25264445.94844 -19673328.29342  20589978.784    20589976.319
  20756135.139   -23976314.40544 -18669408.59742  20756137.062    20756133.698
  20300450.948   -27443059.16244 -21349737.12842  20300451.856    20300448.927
  21796195.949   -19062065.35343 -14847093.16842  21796196.676    21796194.973
  23047484.595   -12611407.97843  -9790242.79542  23047486.219    23047484.613
  21219512.378   -22308644.35544 -17202878.79242  21219513.324    21219510.997
 03 12 26  0  8 30.0000000  0  8G 4G 9G17G30G 5G10G 6G24
  24316805.169    -6377770.82643  -4931884.07442  24316806.641    24316805.407
  24838585.595    -2712592.39643  -2069806.14442  24838586.784    24838587.422
  20587243.481   -25278817.11944 -19684526.58942  20587244.049    20587241.575
  20745827.520   -24030481.23244 -18711616.48442  20745829.446    20745826.050
  20304710.158   -27420676.77644 -21332296.30342  20304711.067    20304708.132
  21783447.095   -19129060.85843 -14899297.39742  21783447.826    21783446.102
  23034820.436   -12677958.26943  -9842100.08542  23034822.038    23034820.398
  21230951.660   -22248530.61644 -17156036.91742  21230952.569    21230950.271
 03 12 26  0  9  0.0000000  0  8G 4G 9G17G30G 5G10G 6G24
  24336303.196    -6275307.90643  -4852042.86742  24336304.732    24336303.437
  24857284.533    -2614329.17943  -1993237.45642  24857285.773    24857286.313
  20584590.363   -25292759.25544 -19695390.57442  20584590.927    20584588.459
  20735605.259   -24084199.34244 -18753474.72242  20735607.199    20735603.814
  20309069.940   -27397765.88344 -21314443.65342  20309070.840    20309067.931
  21770784.596   -19195602.41343 -14951147.90342  21770785.340    21770783.620
  23022166.756   -12744453.58043  -9893914.53042  23022168.338    23022166.667
  21242448.358   -22188115.02344 -17108959.83442  21242449.266    21242446.986
 03 12 26  0  9 30.0000000  0  8G 4G 9G17G30G 5G10G 6G24
  24355804.963    -6172825.41443  -4772186.41142  24355806.539    24355805.250
  24875964.040    -2516168.14143  -1916748.41642  24875965.266    24875965.693
  20582018.817   -25306272.61444 -19705920.44842  20582019.392    20582016.938
  20725468.844   -24137466.30343 -18794981.41942  20725470.776    20725467.389
  20313530.433   -27374325.88444 -21296178.71442  20313531.327    20313528.410
  21758209.100   -19261686.88143 -15002642.23242  21758209.852    21758208.101
  23009523.648   -12810893.31443  -9945685.66642  23009525.214    23009523.520
  21254002.083   -22127399.78044 -17061649.25642  21254002.991    21254000.707
 03 12 26  0 10  0.0000000  0  8G 4G 9G17G30G 5G10G 6G24
  24375310.094    -6070325.33543  -4692316.24942  24375311.687    24375310.414
  24894623.679    -2418112.20443  -1840341.25642  24894624.807    24894625.228
  20579528.699   -25319358.17244 -19716116.96742  20579529.293    20579526.811
  20715418.655   -24190280.26343 -18836135.12742  20715420.575    20715417.185
  20318091.470   -27350357.34544 -21277501.92642  20318092.371    20318089.472
  21745721.044   -19327311.80443 -15053778.48542  21745721.806    21745720.041
  22996890.941   -12877277.84943  -9997413.79542  22996892.561    22996890.877
  21265612.311   -22066387.54044 -17014107.24942  21265613.220    21265610.958
 03 12 26  0 10 30.0000000  0  8G 4G 9G17G30G 5G10G 6G24
  24394818.311    -5967808.90943  -4612433.33642  24394819.963    24394818.677
  24913262.690    -2320163.09743  -1764017.38442  24913263.758    24913264.349
  20577120.094   -25332015.52144 -19725979.82042  20577120.657    20577118.199
  20705455.245   -24242638.24244 -18876933.52842  20705457.152    20705453.775
  20322753.202   -27325859.78744 -21258412.91442  20322754.083    20322751.194
  21733321.136   -19392473.43343 -15104553.72442  21733321.920    21733320.124
  22984269.056   -12943605.79943 -10049097.83542  22984270.690    22984269.008
  21277278.870   -22005079.39844 -16966334.67442  21277279.752    21277277.527
 03 12 26  0 11  0.0000000  0  8G 4G 9G17G30G 5G10G 6G24
  24414329.152    -5865279.20043  -4532540.08042  24414330.776    24414329.369
  24931880.709    -2222324.66343  -1687779.73142  24931881.755    24931882.370
  20574792.609   -25344246.44344 -19735510.39242  20574793.196    20574790.707
  20695578.740   -24294539.62943 -18917376.14542  20695580.629    20695577.211
  20327515.222   -27300835.10044 -21238913.15442  20327516.109    20327513.219
  21721009.685   -19457170.42943 -15154966.91942  21721010.435    21721008.651
  22971657.804   -13009878.37643 -10100738.74142  22971659.396    22971657.692
  21289001.005   -21943479.01143 -16918334.37442  21289001.907    21288999.688
 03 12 26  0 11 30.0000000  0  8G 4G 9G17G30G 5G10G 6G24
  24433841.998    -5762738.43943  -4452638.19642  24433843.634    24433842.188
  24950477.353    -2124599.48843  -1611630.30842  24950478.493    24950479.057
  20572546.126   -25356051.69344 -19744709.27142  20572546.724    20572544.236
  20685789.513   -24345982.26543 -18957461.29142  20685791.406    20685787.973
  20332377.546   -27275283.37644 -21219002.71542  20332378.441    20332375.542
  21708787.151   -19521399.99643 -15205015.89442  21708787.895    21708786.140
  22959057.031   -13076095.43343 -10152336.38642  22959058.649    22959056.917
  21300778.283   -21881588.99343 -16870108.39142  21300779.173    21300776.967
 03 12 26  0 12  0.0000000  0  8G 4G 9G17G30G 5G10G 6G24
  24453357.288    -5660185.01543  -4372726.46242  24453358.939    24453357.377
  24969052.406    -2026987.02843  -1535568.79942  24969053.606    24969054.191
  20570381.151   -25367428.73244 -19753574.48142  20570381.738    20570379.244
  20676088.593   -24396960.81244 -18997184.81342  20676090.478    20676087.044
  20337340.770   -27249201.41944 -21198679.10942  20337341.674    20337338.785
  21696654.671   -19585156.53743 -15254696.28142  21696655.398    21696653.613
  22946467.460   -13142253.59943 -10203888.13842  22946469.033    22946467.376
  21312610.897   -21819408.27244 -16821655.88842  21312611.779    21312609.589
 03 12 26  0 12 30.0000000  0  8G 4G 9G17G30G 5G10G 6G24
  24472874.048    -5557623.57543  -4292808.47842  24472875.774    24472874.168
  24987605.059    -1929492.50043  -1459599.14142  24987606.223    24987606.903
  20568296.998   -25378380.99744 -19762108.69842  20568297.605    20568295.077
  20666475.830   -24447476.12044 -19036547.36642  20666477.717    20666474.266
  20342404.238   -27222592.84444 -21177945.14942  20342405.120    20342402.211
  21684612.251   -19648439.81243 -15304007.88942  21684612.966    21684611.164
  22933888.636   -13208355.50143 -10255396.05542  22933890.188    22933888.535
  21324497.876   -21756941.81344 -16772980.72742  21324498.751    21324496.570
 03 12 26  0 13  0.0000000  0  8G 4G 9G17G30G 5G10G 6G24
  24492391.426    -5455059.44143  -4212888.37542  24492393.106    24492391.529
  25006134.273    -1832121.73343  -1383725.84142  25006135.466    25006136.032
  20566292.951   -25388912.23744 -19770314.84242  20566293.566    20566291.040
  20656951.001   -24497529.31944 -19075549.82842  20656952.885    20656949.434
  20347567.214   -27195461.19144 -21156803.59442  20347568.117    20347565.192
  21672659.727   -19711250.72343 -15352951.41842  21672660.447    21672658.610
  22921319.985   -13274404.07943 -10306862.42042  22921321.532    22921319.874
  21336438.136   -21694195.25144 -16724087.30442  21336439.032    21336436.848
 03 12 26  0 13 30.0000000  0  8G 4G 9G17G30G 5G10G 6G24
  24511910.431    -5352486.55843  -4132961.45842  24511912.129    24511910.524
  25024640.849    -1734869.45143  -1307945.01542  25024641.931    25024642.609
  20564370.383   -25399015.37944 -19778187.40842  20564370.997    20564368.463
  20647515.965   -24547110.60544 -19114184.57142  20647517.870    20647514.413
  20352831.292   -27167798.45744 -21135248.21742  20352832.179    20352829.224
  21660799.068   -19773578.56343 -15401518.53142  21660799.835    21660797.977
  22908762.992   -13340391.21343 -10358280.90442  22908764.543    22908762.903
  21348432.812   -21631162.91244 -16674971.20042  21348433.684    21348431.515
 03 12 26  0 14  0.0000000  0  8G 4G 9G17G30G 5G10G 6G24
  24531429.676    -5249912.07343  -4053033.29342  24531431.449    24531429.791
  25043123.616    -1637743.71243  -1232262.78942  25043124.510    25043125.140
  20562528.139   -25408696.37644 -19785731.02942  20562528.726    20562526.215
  20638170.113   -24596223.30144 -19152454.17642  20638172.026    20638168.559
  20358195.274   -27139610.47844 -21113283.55442  20358196.175    20358193.200
  21649029.916   -19835425.94343 -15449711.26742  21649030.643    21649028.768
  22896216.700   -13406321.99443 -10409655.48042  22896218.264    22896216.640
  21360480.402   -21567852.45543 -16625638.38042  21360481.285    21360479.093
 03 12 26  0 14 30.0000000  0  8G 4G 9G17G30G 5G10G 6G24
  24550949.160    -5147336.74343  -3973104.49042  24550950.924    24550949.314
  25061581.771    -1540745.92743  -1156680.08142  25061582.864    25061583.235
  20560766.305   -25417954.80744 -19792945.37342  20560766.891    20560764.381
  20628914.021   -24644864.36844 -19190356.27742  20628915.931    20628912.447
  20363659.282   -27110896.97844 -21090909.39042  20363660.160    20363657.195
  21637352.857   -19896789.31643 -15497526.84142  21637353.572    21637351.661
  22883681.350   -13472195.35443 -10460985.30442  22883682.916    22883681.354
  21372580.593   -21504265.48143 -16576090.09042  21372581.484    21372579.300
 03 12 26  0 15  0.0000000  0  8G 4G 9G17G30G 5G10G 6G24
  24570469.217    -5044758.33143  -3893173.24942  24570470.925    24570469.332
  25080015.925    -1443873.79443  -1081195.42242  25080017.062    25080017.436
  20559085.557   -25426787.22744 -19799827.76142  20559086.122    20559083.627
  20619748.821   -24693027.52444 -19227885.97942  20619750.759    20619747.277
  20369224.026   -27081654.06144 -21068122.69942  20369224.901    20369221.949
  21625769.164   -19957661.87543 -15544959.96842  21625769.894    21625767.974
  22871157.839   -13538006.63143 -10512266.76042  22871159.400    22871157.813
  21384733.809   -21440399.85243 -16526324.66542  21384734.701    21384732.527
 03 12 26  0 15 30.0000000  0  7G 4G17G30G 5G10G 6G24
  24589993.338    -4942158.30243  -3813225.20342  24589995.049    24589993.441
  20557489.574   -25435174.16744 -19806363.02242  20557490.128    20557487.616
  20610678.801   -24740690.78344 -19265026.14942  20610680.719    20610677.244
  20374893.316   -27051861.66944 -21044907.84242  20374894.197    20374891.242
  21614283.163   -20018021.04443 -15591993.04542  21614283.902    21614281.958
  22858649.955   -13603735.66243 -10563484.12942  22858651.541    22858649.947
  21396943.495   -21376237.50443 -16476328.03142  21396944.410    21396942.219
 03 12 26  0 16  0.0000000  0  7G 4G17G30G 5G10G 6G24
  24609511.595    -4839589.02843  -3733301.09342  24609513.245    24609511.794
  20555968.610   -25443166.76044 -19812591.00142  20555969.174    20555966.661
  20601694.681   -24787902.56644 -19301814.52342  20601696.608    20601693.115
  20380657.428   -27021570.94744 -21021304.67942  20380658.321    20380655.351
  21602885.811   -20077914.44743 -15638663.18742  21602886.544    21602884.587
  22846148.181   -13669432.53443 -10614676.43342  22846149.801    22846148.182
  21409199.576   -21311831.33543 -16426141.41142  21409200.485    21409198.298
 03 12 26  0 16 30.0000000  0  7G 4G17G30G 5G10G 6G24
  24629028.431    -4737027.09443  -3653382.69442  24629030.180    24629028.715
  20554527.329   -25450740.66144 -19818492.72542  20554527.906    20554525.369
  20592801.590   -24834635.82944 -19338230.02342  20592803.530    20592800.032
  20386521.019   -26990757.50744 -20997294.20042  20386521.905    20386518.945
  21591582.318   -20137314.51643 -15684948.90542  21591583.045    21591581.078
  22833657.435   -13735071.82243 -10665823.88442  22833659.012    22833657.331
  21421506.419   -21247158.50243 -16375746.99642  21421507.320    21421505.130
 03 12 26  0 17  0.0000000  0  7G 4G17G30G 5G10G 6G24
  24648544.618    -4634469.46343  -3573467.67642  24648546.262    24648544.708
  20553166.521   -25457891.73544 -19824064.97542  20553167.086    20553164.560
  20584000.909   -24880883.60844 -19374267.22642  20584002.845    20583999.342
  20392484.990   -26959416.57644 -20972872.69042  20392485.871    20392482.913
  21580374.166   -20196213.50843 -15730844.17742  21580374.899    21580372.925
  22821178.596   -13800648.28143 -10716922.36442  22821180.172    22821178.469
  21433864.515   -21182216.38643 -16325142.75042  21433865.408    21433863.199
 03 12 26  0 17 30.0000000  0  7G 4G17G30G 5G10G 6G24
  24668058.665    -4531922.65243  -3493561.05642  24668060.233    24668058.788
  20551885.171   -25464625.30744 -19829311.89942  20551885.716    20551883.176
  20575292.114   -24926648.65744 -19409928.27542  20575294.023    20575290.536
  20398548.303   -26927553.66444 -20948044.43942  20398549.185    20398546.226
  21569260.911   -20254613.86443 -15776350.89542  21569261.643    21569259.662
  22808710.935   -13866166.28343 -10767975.29142  22808712.480    22808710.729
  21446272.506   -21117011.85643 -16274334.02742  21446273.410    21446271.194
 03 12 26  0 18  0.0000000  0  7G 4G17G30G 5G10G 6G24
  24687571.398    -4429382.12243  -3413659.33742  24687573.188    24687571.534
  20550684.235   -25470936.20144 -19834229.46542  20550684.769    20550682.248
  20566676.686   -24971923.11644 -19445207.05142  20566678.561    20566675.055
  20404712.045   -26895162.95844 -20922804.92242  20404712.924    20404709.959
  21558244.153   -20312507.12343 -15821462.47842  21558244.885    21558242.891
  22796255.505   -13931619.63443 -10818977.83742  22796257.060    22796255.318
  21458731.216   -21051541.00943 -16223317.78342  21458732.104    21458729.886
 03 12 26  0 18 30.0000000  0  7G 4G17G30G 5G10G 6G24
  24707081.038    -4326858.50943  -3333770.81642  24707082.628    24707081.083
  20549561.941   -25476833.77644 -19838824.96242  20549562.466    20549559.970
  20558153.273   -25016713.81044 -19480108.86542  20558155.161    20558151.640
  20410974.363   -26862254.13244 -20897161.67642  20410975.276    20410972.309
  21547322.769   -20369899.09643 -15866183.44542  21547323.503    21547321.509
  22783810.811   -13997016.71543 -10869936.53342  22783812.374    22783810.626
  21471238.443   -20985815.02343 -16172102.72942  21471239.345    21471237.141
 03 12 26  0 19  0.0000000  0  7G 4G17G30G 5G10G 6G24
  24726588.025    -4224348.63443  -3253892.99442  24726589.580    24726588.061
  20548519.102   -25482313.93844 -19843095.20242  20548519.614    20548517.116
  20549723.258   -25061013.70144 -19514628.22942  20549725.144    20549721.611
  20417336.222   -26828822.40444 -20871110.97342  20417337.122    20417334.160
  21536498.186   -20426782.52843 -15910508.14942  21536498.915    21536496.903
  22771377.856   -14062352.00843 -10920847.08042  22771379.411    22771377.668
  21483794.822   -20919830.86743 -16120686.50642  21483795.721    21483793.502
 03 12 26  0 19 30.0000000  0  7G 4G17G30G 5G10G 6G24
  24746092.094    -4121854.15343  -3174027.16742  24746093.601    24746092.090
  20547555.482   -25487377.72744 -19847040.99542  20547555.975    20547553.505
  20541386.918   -25104821.28244 -19548763.97742  20541388.812    20541385.259
  20423797.429   -26794868.45344 -20844653.34342  20423798.335    20423795.391
  21525770.700   -20483155.53743 -15954435.12842  21525771.452    21525769.420
  22758956.643   -14127625.69543 -10971709.62542  22758958.192    22758956.423
  21496399.798   -20853591.35343 -16069071.30042  21496400.702    21496398.470
 03 12 26  0 20  0.0000000  0  7G 4G17G30G 5G10G 6G24
  24765593.172    -4019375.81543  -3094173.91542  24765594.752    24765592.960
  20546671.196   -25492024.59844 -19850661.91842  20546671.692    20546669.222
  20533144.892   -25148133.17244 -19582513.47542  20533146.819    20533143.240
  20430358.055   -26760392.03744 -20817788.59742  20430358.966    20430356.049
  21515141.180   -20539013.85543 -15997961.04142  21515141.913    21515139.903
  22746547.522   -14192835.94643 -11022522.73342  22746549.085    22746547.252
  21509053.249   -20787097.09943 -16017257.59942  21509054.137    21509051.904
 03 12 26  0 20 30.0000000  0  7G 4G17G30G 5G10G 6G24
  24785089.770    -3916920.46743  -3014338.56842  24785091.304    24785089.374
  20545865.083   -25496260.64844 -19853962.72342  20545865.582    20545863.095
  20524996.521   -25190953.07144 -19615879.60142  20524998.421    20524994.862
  20437017.053   -26725398.78944 -20790521.12542  20437017.962    20437015.020
  21504609.047   -20594360.42543 -16041088.19642  21504609.737    21504607.767
  22734149.403   -14257988.08243 -11073290.55542  22734151.011    22734149.152
  21521753.619   -20720356.16843 -15965251.68142  21521754.520    21521752.284
 03 12 26  0 21  0.0000000  0  7G 4G17G30G 5G10G 6G24
  24804582.761    -3814483.76643  -2934517.77642  24804584.273    24804582.450
  20545138.146   -25500080.52844 -19856939.23742  20545138.673    20545136.184
  20516943.302   -25233272.92244 -19648856.08142  20516945.197    20516941.661
  20443775.333   -26689883.72044 -20762847.03942  20443776.248    20443773.315
  21494175.866   -20649186.96543 -16083810.12842  21494176.561    21494174.583
  22721763.641   -14323075.53443 -11124007.96742  22721765.232    22721763.341
  21534501.794   -20653364.07843 -15913050.05342  21534502.711    21534500.453
 03 12 26  0 21 30.0000000  0  6G17G30G 5G10G 6G24
  20544492.788   -25503471.80744 -19859581.78042  20544493.325    20544490.822
  20508988.146   -25275077.60144 -19681431.12842  20508990.037    20508986.469
  20450635.471   -26653833.44344 -20734755.91042  20450636.376    20450633.442
  21483844.701   -20703477.52043 -16126114.42042  21483845.400    21483843.378
  22709392.788   -14388084.70543 -11174664.39142  22709394.367    22709392.431
  21547299.806   -20586110.03343 -15860644.30742  21547300.721    21547298.454
 03 12 26  0 22  0.0000000  0  6G17G30G 5G10G 6G24
  20543922.841   -25506466.80744 -19861915.53142  20543923.373    20543920.857
  20501125.393   -25316396.66444 -19713627.77442  20501127.266    20501123.675
  20457591.296   -26617280.34944 -20706272.97442  20457592.193    20457589.240
  21473609.990   -20757261.21643 -16168023.75342  21473610.682    21473608.628
  22697030.879   -14453046.57343 -11225283.94342  22697032.473    22697030.512
  21560141.237   -20518627.98843 -15808060.90442  21560142.122    21560139.872
 03 12 26  0 22 30.0000000  0  6G17G30G 5G10G 6G24
  20543431.317   -25509049.73944 -19863928.19042  20543431.836    20543429.311
  20493358.555   -25357211.60144 -19745431.59042  20493360.437    20493356.812
  20464645.818   -26580208.55344 -20677385.85642  20464646.700    20464643.768
  21463475.303   -20810519.19343 -16209523.43542  21463475.992    21463473.938
  22684681.232   -14517944.08543 -11275853.34542  22684682.819    22684680.850
  21573028.854   -20450903.16543 -15755288.31942  21573029.722    21573027.467
 03 12 26  0 23  0.0000000  0  6G17G30G 5G10G 6G24
  20543017.411   -25511224.77944 -19865623.01142  20543017.934    20543015.387
  20485687.356   -25397523.93744 -19776843.77342  20485689.244    20485685.597
  20471798.201   -26542622.43644 -20648097.96942  20471799.101    20471796.165
  21453440.542   -20863252.16743 -16250614.02242  21453441.202    21453439.146
  22672343.262   -14582780.27043 -11326374.96442  22672344.833    22672342.851
  21585961.635   -20382940.98843 -15702330.78342  21585962.508    21585960.239
 03 12 26  0 23 30.0000000  0  6G17G30G 5G10G 6G24
  20542682.489   -25512984.65744 -19866994.33042  20542683.015    20542680.454
  20478113.676   -25437323.79644 -19807856.62142  20478115.559    20478111.900
  20479049.936   -26504514.21344 -20618403.24742  20479050.856    20479047.923
  21443507.594   -20915449.98543 -16291287.60142  21443508.265    21443506.172
  22660018.547   -14647546.65243 -11376842.20142  22660020.130    22660018.151
  21598940.643   -20314735.87743 -15649183.95242  21598941.501    21598939.244
 03 12 26  0 24  0.0000000  0  6G17G30G 5G10G 6G24
  20542424.665   -25514339.47744 -19868050.02042  20542425.190    20542422.604
  20470636.092   -25476618.64944 -19838475.95942  20470637.976    20470634.329
  20486399.086   -26465894.07744 -20588309.62942  20486399.996    20486397.094
  21433675.156   -20967119.47743 -16331549.50142  21433675.860    21433673.762
  22647705.458   -14712252.05643 -11427261.92742  22647707.044    22647705.030
  21611963.714   -20246299.11743 -15595856.61342  21611964.604    21611962.341
 03 12 26  0 24 30.0000000  0  7G17G30G 5G21G10G 6G24
  20542242.253   -25515297.93944 -19868796.85842  20542242.793    20542240.201
  20463253.461   -25515414.54444 -19868706.49742  20463255.348    20463251.681
  20493844.037   -26426770.57244 -20557823.77942  20493844.936    20493842.052
  24901732.206    -4659128.29553  -3624555.39552  24901733.925    24901733.231
  21423942.241   -21018266.08343 -16371403.95242  21423942.957    21423940.875
  22635402.579   -14776903.84643 -11477639.87942  22635404.125    22635402.132
  21625029.029   -20177640.52043 -15542356.41642  21625029.903    21625027.635
 03 12 26  0 25  0.0000000  0  7G17G30G 5G21G10G 6G24
  20542135.772   -25515857.37244 -19869232.76742  20542136.327    20542133.716
  20455966.800   -25553706.03944 -19898544.00442  20455968.700    20455965.036
  20501385.315   -26387140.87844 -20526943.49442  20501386.229    20501383.332
  24883650.938    -4754145.55743  -3698594.63842  24883652.608    24883651.998
  21414309.987   -21068883.81843 -16410846.30242  21414310.688    21414308.600
  22623110.682   -14841497.99943 -11527972.91942  22623112.195    22623110.178
  21638136.744   -20108758.97243 -15488682.49042  21638137.620    21638135.362
 03 12 26  0 25 30.0000000  0  7G17G30G 5G21G10G 6G24
  20542111.016   -25515987.44144 -19869334.10542  20542111.564    20542108.962
  20448782.358   -25591460.38244 -19927962.94542  20448784.276    20448780.596
  20509028.722   -26346974.45844 -20495644.98042  20509029.640    20509026.749
  24865597.897    -4849014.13043  -3772518.02342  24865599.632    24865598.765
  21404784.627   -21118939.55943 -16449850.73042  21404785.346    21404783.249
  22610835.681   -14906003.11243 -11578236.57242  22610837.237    22610835.200
  21651292.391   -20039625.54643 -15434812.30042  21651293.278    21651291.012
 03 12 26  0 26  0.0000000  0  7G17G30G 5G21G10G 6G24
  20542162.471   -25515717.05544 -19869123.40142  20542163.026    20542160.426
  20441695.202   -25628703.62744 -19956983.63142  20441697.079    20441693.425
  20516768.732   -26306300.48044 -20463950.96942  20516769.636    20516766.744
  24847568.113    -4943760.66043  -3846346.35142  24847569.734    24847568.859
  21395361.350   -21168459.05043 -16488437.30542  21395362.063    21395359.954
  22598572.469   -14970446.47543 -11628452.11542  22598574.000    22598571.965
  21664490.351   -19970270.00943 -15380769.03342  21664491.196    21664488.931
 03 12 26  0 26 30.0000000  0  7G17G30G 5G21G10G 6G24
  20542291.624   -25515038.30944 -19868594.49242  20542292.180    20542289.571
  20434707.255   -25665425.45244 -19985598.01742  20434709.127    20434705.464
  20524606.850   -26265110.75744 -20431855.07942  20524607.763    20524604.888
  24829563.332    -5038375.31943  -3920071.91742  24829564.935    24829564.149
  21386042.232   -21217431.10743 -16526597.30642  21386042.951    21386040.847
  22586322.718   -15034819.17943 -11678612.60342  22586324.199    22586322.178
  21677731.781   -19900685.83543 -15326547.60542  21677732.649    21677730.355
 03 12 26  0 27  0.0000000  0  7G17G30G 5G21G10G 6G24
  20542497.189   -25513957.98044 -19867752.66242  20542497.739    20542495.153
  20427817.767   -25701629.81344 -20013809.18842  20427819.643    20427815.967
  20532541.831   -26223412.10744 -20399362.62542  20532542.746    20532539.896
  24811582.779    -5132862.94443  -3993698.57542  24811584.420    24811583.607
  21376826.626   -21265859.40343 -16564333.60542  21376827.325    21376825.190
  22574085.372   -15099126.52143 -11728722.15742  22574086.855    22574084.828
  21691015.183   -19830881.09543 -15272154.31142  21691016.060    21691013.754
 03 12 26  0 27 30.0000000  0  7G17G30G 5G21G10G 6G24
  20542779.673   -25512473.44244 -19866595.86642  20542780.238    20542777.637
  20421027.720   -25737311.61244 -20041613.16642  20421029.614    20421025.921
  20540574.280   -26181201.45644 -20366471.20942  20540575.186    20540572.305
  24793627.351    -5227218.71343  -4067222.41942  24793629.123    24793628.171
  21367715.571   -21313738.07743 -16601641.62342  21367716.276    21367714.136
  22561861.254   -15163364.31043 -11778777.51842  22561862.742    22561860.735
  21704340.786   -19760854.56443 -15217588.19142  21704341.667    21704339.364
 03 12 26  0 28  0.0000000  0  7G17G30G 5G21G10G 6G24
  20543139.012   -25510585.13644 -19865124.44242  20543139.563    20543136.948
  20414337.558   -25772468.60144 -20069008.20142  20414339.441    20414335.743
  20548704.026   -26138479.27644 -20333181.20042  20548704.938    20548702.070
  24775697.278    -5321441.37743  -4140642.54242  24775698.944    24775698.029
  21358709.575   -21361064.71843 -16638519.48742  21358710.293    21358708.142
  22549650.501   -15227531.69843 -11828778.02142  22549652.015    22549649.993
  21717708.277   -19690607.82443 -15162850.47942  21717709.168    21717706.888
 03 12 26  0 28 30.0000000  0  7G17G30G 5G21G10G 6G24
  20543574.299   -25508297.63344 -19863341.95942  20543574.851    20543572.249
  20407746.886   -25807102.74344 -20095995.82342  20407748.767    20407745.059
  20556930.264   -26095250.25244 -20299496.24542  20556931.170    20556928.274
  24757792.247    -5415532.77243  -4213960.33842  24757793.716    24757793.015
  21349808.371   -21407840.75843 -16674968.31642  21349809.071    21349806.922
  22537452.593   -15291631.87643 -11878726.15742  22537454.097    22537452.096
  21731116.635   -19620146.56443 -15107945.60842  21731117.510    21731115.232
 03 12 26  0 29  0.0000000  0  7G17G30G 5G21G10G 6G24
  20544084.760   -25505615.02044 -19861251.59642  20544085.321    20544082.719
  20401255.426   -25841215.51944 -20122577.19042  20401257.301    20401253.591
  20565252.131   -26051518.66944 -20265419.68742  20565253.022    20565250.119
  24739911.661    -5509495.39243  -4287177.76042  24739913.238    24739912.381
  21341011.739   -21454067.22043 -16710988.90742  21341012.434    21341010.283
  22525267.000   -15355667.40943 -11928623.91542  22525268.499    22525266.477
  21744564.808   -19549475.92543 -15052877.58242  21744565.671    21744563.415
 03 12 26  0 29 30.0000000  0  7G17G30G 5G21G10G 6G24
  20544671.827   -25502529.82044 -19858847.53042  20544672.404    20544669.816
  20394865.080   -25874796.82744 -20148744.42242  20394866.950    20394863.265
  20573671.046   -26007276.93944 -20230945.61242  20573671.932    20573669.034
  24722057.399    -5603319.56243  -4360287.31842  24722058.872    24722058.096
  21332321.701   -21499733.54443 -16746573.03042  21332322.402    21332320.235
  22513095.391   -15419629.40943 -11978464.38242  22513096.912    22513094.855
  21758054.027   -19478589.64343 -14997641.52742  21758054.872    21758052.643
 03 12 26  0 30  0.0000000  0  7G17G30G 5G21G10G 6G24
  20545334.779   -25499045.96844 -19856132.82642  20545335.344    20545332.766
  20388575.692   -25907847.85944 -20174498.45742  20388577.541    20388573.829
  20582186.395   -25962528.57344 -20196076.75842  20582187.246    20582184.345
  24704229.074    -5697007.03843  -4433290.34542  24704230.670    24704229.688
  21323738.175   -21544840.23443 -16781721.07742  21323738.862    21323736.675
  22500937.361   -15483520.18743 -12028249.35442  22500938.818    22500936.792
  21771583.312   -19407492.79243 -14942241.39142  21771584.149    21771581.946
 03 12 26  0 30 30.0000000  0  7G17G30G 5G21G10G 6G24
  20546072.645   -25495168.45444 -19853111.37442  20546073.187    20546070.649
  20382386.659   -25940371.26144 -20199841.35042  20382388.534    20382384.807
  20590797.128   -25917278.81244 -20160817.20542  20590797.986    20590795.101
  24686426.174    -5790561.14243  -4506189.43342  24686427.802    24686426.823
  21315260.703   -21589389.59743 -16816434.84742  21315261.398    21315259.177
  22488792.152   -15547343.41243 -12077981.68942  22488793.628    22488791.544
  21785151.513   -19336191.59343 -14886682.02142  21785152.311    21785150.114
 03 12 26  0 31  0.0000000  0  7G17G30G 5G21G10G 6G24
  20546886.239   -25490892.91544 -19849779.77142  20546886.789    20546884.258
  20376299.357   -25972360.17844 -20224767.76442  20376301.225    20376297.491
  20599504.116   -25871523.33344 -20125163.58642  20599504.981    20599502.077
  24668649.910    -5883975.28643  -4578979.49342  24668651.507    24668650.266
  21306890.702   -21633374.32443 -16850708.64142  21306891.358    21306889.134
  22476660.954   -15611093.18043 -12127656.79342  22476662.412    22476660.291
  21798759.234   -19264682.47843 -14830960.64142  21798760.041    21798757.878
 03 12 26  0 31 30.0000000  0  7G17G30G 5G21G10G 6G24
  20547775.316   -25486220.63044 -19846139.01642  20547775.863    20547773.352
  20370314.101   -26003812.86744 -20249276.33442  20370315.960    20370312.230
  20608307.116   -25825263.26944 -20089116.78542  20608307.998    20608305.079
  24650900.383    -5977248.96843  -4651660.10142  24650901.918    24650900.697
  21298628.516   -21676792.29643 -16884540.80742  21298629.170    21298626.944
  22464543.793   -15674769.12143 -12177274.36342  22464545.257    22464543.102
  21812406.038   -19192968.08943 -14775079.30742  21812406.804    21812404.693
 03 12 26  0 32  0.0000000  0  7G17G30G 5G21G10G 6G24
  20548738.910   -25481156.85644 -19842193.20642  20548739.439    20548736.936
  20364430.287   -26034732.51744 -20273369.54542  20364432.138    20364428.396
  20617205.040   -25778504.30244 -20052681.22842  20617205.911    20617203.017
  24633176.935    -6070385.14243  -4724233.55042  24633178.491    24633177.324
  21290473.669   -21719646.23043 -16917933.46242  21290474.318    21290472.122
  22452439.895   -15738375.30243 -12226837.58642  22452441.384    22452439.180
  21826090.657   -19121054.94043 -14719043.09442  21826091.400    21826089.314
 03 12 26  0 32 30.0000000  0  7G17G30G 5G21G10G 6G24
  20549777.305   -25475699.96244 -19837941.06842  20549777.847    20549775.341
  20358648.764   -26065114.63644 -20297043.89942  20358650.600    20358646.850
  20626198.287   -25731244.47344 -20015855.38842  20626199.149    20626196.243
  24615480.455    -6163379.84443  -4796696.78942  24615481.838    24615480.934
  21282427.116   -21761931.14943 -16950882.73042  21282427.753    21282425.543
  22440349.976   -15801908.24743 -12276343.74242  22440351.462    22440349.194
  21839813.249   -19048942.25343 -14662851.39542  21839813.988    21839811.908
 03 12 26  0 33  0.0000000  0  7G17G30G 5G21G10G 6G24
  20550890.093   -25469852.11044 -19833384.28642  20550890.639    20550888.133
  20352969.550   -26094959.03744 -20320299.25442  20352971.379    20352967.624
  20635286.396   -25683486.06344 -19978641.04342  20635287.252    20635284.370
  24597810.954    -6256233.59543  -4869050.22242  24597812.321    24597811.234
  21274488.956   -21803646.34043 -16983388.04942  21274489.593    21274487.374
  22428273.876   -15865368.75943 -12325793.45642  22428275.341    22428273.041
  21853573.185   -18976633.33643 -14606506.78942  21853573.939    21853571.843
 03 12 26  0 33 30.0000000  0  7G17G30G 5G21G10G 6G24
  20552077.676   -25463611.22944 -19828521.25242  20552078.218    20552075.717
  20347393.547   -26124260.94544 -20343131.88642  20347395.415    20347391.636
  20644469.768   -25635227.05644 -19941036.62442  20644470.644    20644467.750
  24580169.046    -6348941.72443  -4941290.19542  24580170.583    24580169.308
  21266660.183   -21844786.76143 -17015445.49642  21266660.814    21266658.598
  22416212.226   -15928752.95943 -12375183.71142  22416213.731    22416211.378
  21867370.711   -18904126.87143 -14550008.25242  21867371.471    21867369.363
 03 12 26  0 34  0.0000000  0  7G17G30G 5G21G10G 6G24
  20553338.850   -25456983.63144 -19823356.88042  20553339.409    20553336.884
  20341920.067   -26153024.22044 -20365544.80442  20341921.939    20341918.155
  20653747.172   -25586474.00844 -19903047.23842  20653748.016    20653745.146
  24562554.009    -6441509.18643  -5013420.58342  24562555.514    24562554.192
  21258940.141   -21885355.79643 -17047057.70942  21258940.766    21258938.547
  22404164.193   -15992065.78843 -12424518.35142  22404165.689    22404163.332
  21881204.348   -18831430.66443 -14493361.86542  21881205.078    21881203.002
 03 12 26  0 34 30.0000000  0  7G17G30G 5G21G10G 6G24
  20554674.252   -25449966.15644 -19817888.70742  20554674.768    20554672.255
  20336550.142   -26181243.27444 -20387533.65042  20336552.008    20336548.202
  20663119.219   -25537223.52444 -19864670.23942  20663120.082    20663117.219
  24544966.772    -6533930.21943  -5085436.88642  24544968.267    24544966.923
  21251329.967   -21925347.34243 -17078219.92942  21251330.615    21251328.389
  22392130.631   -16055302.32643 -12473793.53142  22392132.162    22392129.784
  21895074.486   -18758542.45543 -14436565.86242  21895075.234    21895073.166
 03 12 26  0 35  0.0000000  0  7G17G30G 5G21G10G 6G24
  20556083.493   -25442560.52844 -19812118.07642  20556084.007    20556081.484
  20331283.914   -26208917.35144 -20409097.84142  20331285.787    20331281.964
  20672585.499   -25487477.92644 -19825907.43842  20672586.350    20672583.497
  24527407.407    -6626204.70143  -5157338.99142  24527408.978    24527407.491
  21243829.850   -21964760.46043 -17108931.42542  21243830.519    21243828.298
  22380111.576   -16118462.78043 -12523009.43542  22380113.106    22380110.712
  21908980.633   -18685465.09643 -14379622.47342  21908981.411    21908979.328
 03 12 26  0 35 30.0000000  0  7G17G30G 5G21G10G 6G24
  20557566.359   -25434768.03844 -19806045.99842  20557566.858    20557564.339
  20326121.634   -26236045.20744 -20430236.40642  20326123.503    20326119.677
  20682145.825   -25437238.03444 -19786759.47142  20682146.669    20682143.836
  24509876.112    -6718331.82143  -5229126.26642  24509877.546    24509876.207
  21236440.151   -22003593.37343 -17139190.81042  21236440.832    21236438.637
  22368107.084   -16181546.68443 -12572165.69642  22368108.599    22368106.211
  21922922.418   -18612200.66043 -14322533.31142  21922923.163    21922921.064
 03 12 26  0 36  0.0000000  0  7G17G30G 5G21G10G 6G24
  20559122.197   -25426591.95244 -19799675.00942  20559122.707    20559120.182
  20321063.152   -26262627.59044 -20450949.92642  20321065.021    20321061.200
  20691799.549   -25386507.29344 -19747229.02642  20691800.408    20691797.554
  24492372.837    -6810312.44043  -5300799.41842  24492374.104    24492372.759
  21229160.782   -22041846.66043 -17168998.53342  21229161.442    21229159.246
  22356116.841   -16244555.61843 -12621263.53342  22356118.379    22356115.967
  21936898.993   -18538753.26843 -14265301.58042  21936899.751    21936897.651
 03 12 26  0 36 30.0000000  0  7G17G30G 5G21G10G 6G24
  20560751.684   -25418028.91744 -19793002.50842  20560752.191    20560749.664
  20316109.615   -26288658.52144 -20471233.75042  20316111.476    20316107.644
  20701547.332   -25335282.38144 -19707313.51842  20701548.196    20701545.338
  24474898.305    -6902141.60143  -5372354.52142  24474899.438    24474898.198
  21221992.906   -22079513.88043 -17198349.58342  21221993.585    21221991.404
  22344141.874   -16307484.62043 -12670299.08042  22344143.345    22344140.916
  21950910.837   -18465120.45543 -14207925.37442  21950911.606    21950909.508
 03 12 26  0 37  0.0000000  0  7G17G30G 5G21G10G 6G24
  20562453.453   -25409085.86944 -19786033.88942  20562453.995    20562451.458
  20311260.146   -26314142.47844 -20491091.35642  20311262.017    20311258.187
  20711387.821   -25283570.34644 -19667018.42442  20711388.667    20711385.823
  24457451.773    -6993823.66443  -5443795.03742  24457452.849    24457451.535
  21214935.825   -22116598.98543 -17227247.03342  21214936.490    21214934.322
  22332181.108   -16370338.85243 -12719276.36242  22332182.565    22332180.115
  21964956.457   -18391310.22543 -14150410.91442  21964957.258    21964955.121
 03 12 26  0 37 30.0000000  0  7G17G30G 5G21G10G 6G24
  20564228.300   -25399759.01844 -19778766.20342  20564228.833    20564226.278
  20306515.916   -26339073.55544 -20510518.15042  20306517.787    20306513.947
  20721321.660   -25231367.55544 -19626340.92842  20721322.543    20721319.689
  24440034.227    -7085352.88343  -5515116.39642  24440035.360    24440034.128
  21207990.790   -22153095.30643 -17255685.69242  21207991.445    21207989.250
  22320235.536   -16433113.07343 -12768191.29742  22320237.010    22320234.546
  21979036.346   -18317320.09543 -14092756.27642  21979037.123    21979034.992
 03 12 26  0 38  0.0000000  0  7G17G30G 5G21G10G 6G24
  20566075.998   -25390049.19644 -19771200.10142  20566076.550    20566073.995
  20301877.264   -26363449.80444 -20529512.61542  20301879.121    20301875.275
  20731348.734   -25178675.07344 -19585281.85442  20731349.599    20731346.737
  24422645.961    -7176728.25143  -5586317.83942  24422647.226    24422645.826
  21201158.128   -22189001.15043 -17283664.24342  21201158.765    21201156.572
  22308305.377   -16495806.10943 -12817042.96942  22308306.882    22308304.422
  21993150.243   -18243150.96043 -14034962.15142  21993151.071    21993148.903
 03 12 26  0 38 30.0000000  0  7G17G30G 5G21G10G 6G24
  20567995.232   -25379963.58944 -19763341.17942  20567995.768    20567993.209
  20297343.276   -26387276.02344 -20548078.48642  20297345.130    20297341.284
  20741467.533   -25125500.37544 -19543847.02842  20741468.412    20741465.528
  24405286.148    -7267954.30343  -5657402.94842  24405287.474    24405286.038
  21194436.970   -22224320.89243 -17311186.08542  21194437.612    21194435.415
  22296389.692   -16558423.36343 -12865835.59142  22296391.198    22296388.708
  22007296.645   -18168811.16243 -13977035.04042  22007297.468    22007295.300
 03 12 26  0 39  0.0000000  0  7G17G30G 5G21G10G 6G24
  20569986.685   -25369498.37944 -19755186.46042  20569987.225    20569984.644
  20292915.130   -26410546.06644 -20566210.97542  20292916.983    20292913.147
  20751678.794   -25071839.84744 -19502033.62942  20751679.670    20751676.796
  24387955.839    -7359025.15943  -5728367.09242  24387957.167    24387955.669
  21187828.612   -22259048.09143 -17338246.20942  21187829.231    21187827.008
  22284489.416   -16620959.55943 -12914565.04942  22284490.930    22284488.435
  22021475.956   -18094298.42843 -13918973.17742  22021476.776    22021474.590
 03 12 26  0 39 30.0000000  0  7G17G30G 5G21G10G 6G24
  20572050.392   -25358653.42744 -19746735.83942  20572050.938    20572048.373
  20288593.291   -26433257.43044 -20583908.13142  20288595.160    20288591.323
  20761982.529   -25017693.38944 -19459841.58542  20761983.393    20761980.541
  24370655.548    -7449938.85143  -5799208.80042  24370656.723    24370655.248
  21181333.579   -22293179.72843 -17364842.25842  21181334.191    21181331.928
  22272604.977   -16683412.69443 -12963229.78642  22272606.474    22272603.947
  22035688.109   -18019613.05943 -13860776.78842  22035688.933    22035686.750
 03 12 26  0 40  0.0000000  0  7G17G30G 5G21G10G 6G24
  20574185.419   -25347433.72744 -19737993.20642  20574185.956    20574183.393
  20284377.321   -26455412.53344 -20601171.83342  20284379.190    20284375.321
  20772377.710   -24963066.26044 -19417274.99042  20772378.593    20772375.722
  24353384.437    -7540698.31443  -5869930.28642  24353385.603    24353384.145
  21174951.501   -22326717.70843 -17390975.72042  21174952.100    21174949.841
  22260735.757   -16745785.87543 -13011832.21942  22260737.219    22260734.681
  22049932.002   -17944760.78343 -13802450.34242  22049932.865    22049930.664
 03 12 26  0 40 30.0000000  0  7G17G30G 5G21G10G 6G24
  20576392.147   -25335837.24844 -19728956.98642  20576392.686    20576390.128
  20280267.970   -26477007.15344 -20617998.80042  20280269.836    20280265.986
  20782864.718   -24907956.67744 -19374332.46242  20782865.611    20782862.730
  24336143.568    -7631299.44343  -5940528.40442  24336144.665    24336143.139
  21168683.190   -22359657.81843 -17416643.31442  21168683.802    21168681.513
  22248882.416   -16808075.43243 -13060369.49242  22248883.880    22248881.333
  22064207.840   -17869740.86643 -13743993.27342  22064208.690    22064206.488
 03 12 26  0 41  0.0000000  0  7G17G30G 5G21G10G 6G24
  20578669.383   -25323870.22944 -19719632.03242  20578669.911    20578667.368
  20276264.567   -26498045.08444 -20634391.98442  20276266.429    20276262.584
  20793442.345   -24852371.02544 -19331018.97042  20793443.207    20793440.320
  24318932.063    -7721746.07543  -6011006.14542  24318933.077    24318931.484
  21162528.012   -22392003.25243 -17441847.52242  21162528.649    21162526.356
  22237044.203   -16870285.56843 -13108844.88242  22237045.650    22237043.116
  22078514.295   -17794559.97643 -13685410.76642  22078515.143    22078512.957
 03 12 26  0 41 30.0000000  0  7G17G30G 5G21G10G 6G24
  20581018.025   -25311527.95044 -19710014.66942  20581018.558    20581016.005
  20272368.480   -26518519.16244 -20650345.80342  20272370.331    20272366.470
  20804111.421   -24796304.53044 -19287330.79542  20804112.306    20804109.409
  24301751.241    -7812031.84243  -6081358.54142  24301752.297    24301750.532
  21156487.425   -22423746.56543 -17466582.54542  21156488.061    21156485.765
  22225222.314   -16932409.83043 -13157253.35642  22225223.769    22225221.233
  22092852.126   -17719214.21243 -13626699.78442  22092852.976    22092850.796
 03 12 26  0 42  0.0000000  0  7G17G30G 5G21G10G 6G24
  20583437.673   -25298812.64144 -19700106.63342  20583438.195    20583435.644
  20268579.694   -26538429.29144 -20665860.18142  20268581.522    20268577.702
  20814871.565   -24739759.60244 -19243269.81742  20814872.447    20814869.554
  24284601.125    -7902156.05643  -6151585.04442  24284602.141    24284600.361
  21150561.544   -22454887.07043 -17490847.84842  21150562.183    21150559.896
  22213416.696   -16994448.46243 -13205595.10942  22213418.159    22213415.627
  22107220.783   -17643706.46043 -13567862.58542  22107221.630    22107219.456
 03 12 26  0 42 30.0000000  0  7G17G30G 5G21G10G 6G24
  20585927.170   -25285730.17244 -19689912.49442  20585927.683    20585925.133
  20264897.499   -26557779.12944 -20680937.96842  20264899.366    20264895.545
  20825721.512   -24682742.83644 -19198841.17142  20825722.384    20825719.490
  24267480.639    -7992123.50043  -6221689.39742  24267481.770    24267479.922
  21144749.674   -22485428.51343 -17514646.34842  21144750.311    21144748.024
  22201626.531   -17056405.86743 -13253873.56742  22201628.014    22201625.483
  22121618.946   -17568043.65143 -13508904.55342  22121619.799    22121617.636
 03 12 26  0 43  0.0000000  0  7G17G30G 5G21G10G 6G24
  20588487.778   -25272274.07244 -19679427.21942  20588488.286    20588485.724
  20261323.606   -26576559.89944 -20695572.32642  20261325.484    20261321.671
  20836662.432   -24625247.98644 -19154039.99342  20836663.289    20836660.382
  24250391.797    -8081925.01343  -6291664.46142  24250392.880    24250391.118
  21139053.567   -22515361.67943 -17537970.86842  21139054.203    21139051.888
  22189853.488   -17118273.44243 -13302082.02742  22189854.958    22189852.435
  22136047.674   -17492220.03043 -13449821.21742  22136048.550    22136046.389
 03 12 26  0 43 30.0000000  0  7G17G30G 5G21G10G 6G24
  20591118.416   -25258450.01644 -19668655.22542  20591118.932    20591116.330
  20257857.434   -26594774.85844 -20709765.79542  20257859.298    20257855.462
  20847693.357   -24567280.07244 -19108870.19842  20847694.212    20847691.306
  24233333.909    -8171564.04343  -6361512.92742  24233334.979    24233333.262
  21133472.660   -22544689.50943 -17560823.69842  21133473.284    21133470.965
  22178096.828   -17180054.82743 -13350223.33442  22178098.310    22178095.806
  22150505.835   -17416241.93043 -13390617.50842  22150506.721    22150504.548
 03 12 26  0 44  0.0000000  0  7G17G30G 5G21G10G 6G24
  20593818.205   -25244262.57444 -19657600.07442  20593818.719    20593816.109
  20254498.513   -26612426.25544 -20723520.12142  20254500.343    20254496.503
  20858813.360   -24508844.07344 -19063335.66042  20858814.217    20858811.329
  24216306.390    -8261043.33443  -6431236.94842  24216307.593    24216305.760
  21128006.527   -22573414.04243 -17583206.42342  21128007.171    21128004.851
  22166356.088   -17241752.76343 -13398299.61842  22166357.543    22166355.035
  22164992.387   -17340114.66543 -13331297.56742  22164993.261    22164991.103
 03 12 26  0 44 30.0000000  0  7G17G30G 5G21G10G 6G24
  20596587.645   -25229709.08344 -19646259.69342  20596588.163    20596585.551
  20251247.727   -26629509.19644 -20736831.49942  20251249.572    20251245.714
  20870022.750   -24449938.32544 -19017435.08542  20870023.626    20870020.746
  24199310.280    -8350358.03443  -6500832.70342  24199311.411    24199309.644
  21122656.240   -22601529.94943 -17605114.89342  21122656.862    21122654.532
  22154632.088   -17303362.75543 -13446307.37342  22154633.515    22154631.012
  22179507.725   -17263836.01643 -13271859.66442  22179508.622    22179506.439
 03 12 26  0 45  0.0000000  0  7G17G30G 5G21G10G 6G24
  20599426.786   -25214789.27444 -19634633.86342  20599427.287    20599424.700
  20248105.617   -26646021.10344 -20749697.91342  20248107.447    20248103.600
  20881321.666   -24390562.23944 -18971168.00942  20881322.535    20881319.634
  24182345.839    -8439505.72043  -6570298.31342  24182347.098    24182345.225
  21117422.255   -22629034.58343 -17626547.04742  21117422.887    21117420.547
  22142925.175   -17364882.61943 -13494244.89742  22142926.640    22142924.126
  22194051.701   -17187406.88043 -13212304.49542  22194052.596    22194050.436
 03 12 26  0 45 30.0000000  0  7G17G30G 5G21G10G 6G24
  20602334.819   -25199507.46644 -19622725.96142  20602335.313    20602332.722
  20245071.747   -26661964.17644 -20762121.08542  20245073.579    20245069.716
  20892709.101   -24330720.89344 -18924538.39642  20892709.969    20892707.062
  24165412.870    -8528488.45143  -6639635.39342  24165414.088    24165412.141
  21112304.274   -22655929.63143 -17647504.19942  21112304.908    21112302.581
  22131235.025   -17426314.74643 -13542114.06142  22131236.468    22131233.940
  22208623.332   -17110832.34243 -13152636.03042  22208624.227    22208622.091
 03 12 26  0 46  0.0000000  0  7G17G30G 5G21G10G 6G24
  20605311.758   -25183863.46044 -19610535.82242  20605312.264    20605309.694
  20242146.579   -26677335.95144 -20774099.08242  20242148.420    20242144.550
  20904185.108   -24270414.16444 -18877546.14842  20904185.959    20904183.076
  24148511.642    -8617304.30343  -6708842.43842  24148512.823    24148510.953
  21107302.853   -22682212.32243 -17667984.18642  21107303.478    21107301.123
  22119561.960   -17487656.92343 -13589913.13242  22119563.409    22119560.895
  22223222.595   -17034112.87843 -13092854.63842  22223223.462    22223221.315
 03 12 26  0 46 30.0000000  0  7G17G30G 5G21G10G 6G24
  20608357.444   -25167858.25444 -19598064.22942  20608357.955    20608355.380
  20239330.368   -26692135.14544 -20785630.91142  20239332.198    20239328.344
  20915749.333   -24209643.66144 -18830192.51842  20915750.196    20915747.324
  24131642.451    -8705951.95443  -6777918.39342  24131643.606    24131641.741
  21102418.221   -22707881.18843 -17687985.87442  21102418.829    21102416.470
  22107906.239   -17548907.95243 -13637641.17642  22107907.678    22107905.151
  22237849.180   -16957249.80643 -13032961.34042  22237850.022    22237847.882
 03 12 26  0 47  0.0000000  0  7G17G30G 5G21G10G 6G24
  20611471.126   -25151495.75544 -19585314.22342  20611471.637    20611469.066
  20236622.785   -26706363.52144 -20796717.94542  20236624.604    20236620.784
  20927401.095   -24148413.21944 -18782480.49242  20927401.958    20927399.093
  24114805.045    -8794433.04643  -6846864.57242  24114806.156    24114804.329
  21097650.069   -22732937.76643 -17707510.45242  21097650.705    21097648.316
  22096267.504   -17610069.88043 -13685299.79442  22096268.941    22096266.410
  22252502.213   -16880247.61943 -12972959.64142  22252503.027    22252500.925
 03 12 26  0 47 30.0000000  0  7G17G30G 5G21G10G 6G24
  20614653.447   -25134772.48744 -19572283.10142  20614653.946    20614651.394
  20234024.866   -26720015.51544 -20807355.85342  20234026.687    20234022.870
  20939140.959   -24086719.91244 -18734407.79242  20939141.827    20939138.943
  24098000.400    -8882741.71943  -6915676.38642  24098001.585    24097999.563
  21092999.583   -22757376.13843 -17726553.31142  21093000.201    21092997.820
  22084646.687   -17671137.46543 -13732884.89742  22084648.137    22084645.611
  22267182.198   -16803103.82343 -12912847.60042  22267183.002    22267180.906
 03 12 26  0 48  0.0000000  0  7G17G30G 5G21G10G 6G24
  20617903.544   -25117693.13344 -19558974.50542  20617904.033    20617901.505
  20231536.188   -26733093.57044 -20817546.53342  20231538.011    20231534.191
  20950967.932   -24024568.75944 -18685978.33242  20950968.790    20950965.929
  24081227.903    -8970881.02643  -6984356.23742  24081229.169    24081227.194
  21088466.289   -22781198.54843 -17745116.20142  21088466.930    21088464.541
  22073043.338   -17732113.33243 -13780398.52542  22073044.766    22073042.252
  22281888.140   -16725823.64443 -12852629.28642  22281888.929    22281886.847
 03 12 26  0 48 30.0000000  0  7G17G30G 5G21G10G 6G24
  20621221.464   -25100257.29444 -19545388.13142  20621221.969    20621219.429
  20229157.271   -26745594.75544 -20827287.70742  20229159.106    20229155.284
  20962882.131   -23961959.08144 -18637191.58042  20962883.014    20962880.147
  24064488.121    -9058848.07143  -7052901.83542  24064489.524    24064487.393
  21084050.829   -22804401.85743 -17763196.67542  21084051.448    21084049.066
  22061457.963   -17792994.63743 -13827838.47442  22061459.426    22061456.899
  22296619.983   -16648407.21143 -12792304.80342  22296620.783    22296618.729
 03 12 26  0 49  0.0000000  0  7G17G30G 5G21G10G 6G24
  20624606.172   -25082470.49744 -19531528.28242  20624606.673    20624604.155
  20226887.407   -26757523.03144 -20836582.45642  20226889.233    20226885.421
  20974882.303   -23898897.80044 -18588052.92742  20974883.180    20974880.328
  24047780.359    -9146646.70143  -7121316.19042  24047781.736    24047779.770
  21079752.448   -22826989.74343 -17780797.59642  21079753.091    21079750.708
  22049889.849   -17853785.43043 -13875207.89642  22049891.303    22049888.789
  22311376.598   -16570860.76043 -12731879.00442  22311377.384    22311375.323
 03 12 26  0 49 30.0000000  0  7G17G30G 5G21G10G 6G24
  20628059.283   -25064324.38544 -19517388.44942  20628059.778    20628057.226
  20224728.588   -26768867.77744 -20845422.51442  20224730.405    20224726.576
  20986970.084   -23835376.09444 -18538555.50442  20986970.946    20986968.108
  24031106.848    -9234266.34443  -7189591.10042  24031108.224    24031106.184
  21075573.317   -22848951.15143 -17797910.35742  21075573.960    21075571.557
  22038341.014   -17914475.00343 -13922498.44242  22038342.452    22038339.909
  22326159.504   -16493176.13643 -12671345.54342  22326160.301    22326158.206
 03 12 26  0 50  0.0000000  0  7G17G30G 5G21G10G 6G24
  20631577.891   -25045833.82844 -19502980.21642  20631578.406    20631575.858
  20222678.433   -26779641.45244 -20853817.57642  20222680.238    20222676.413
  20999142.522   -23771409.48144 -18488711.39942  20999143.386    20999140.554
  24014465.050    -9321719.09343  -7257735.96742  24014466.462    24014464.328
  21071511.012   -22870298.48343 -17814544.61342  21071511.664    21071509.275
  22026808.994   -17975076.16943 -13969720.09942  22026810.443    22026807.871
  22340965.704   -16415369.20243 -12610716.76342  22340966.488    22340964.378
 03 12 26  0 50 30.0000000  0  7G17G30G 5G21G10G 6G24
  20635163.666   -25026990.46944 -19488297.07242  20635164.160    20635161.631
  20220738.834   -26789834.08644 -20861759.88042  20220740.644    20220736.795
  21011401.105   -23706990.12444 -18438514.50742  21011401.991    21011399.155
  23997856.891    -9408995.34343  -7325743.30842  23997858.351    23997856.008
  21067567.560   -22891021.32643 -17830692.25942  21067568.204    21067565.824
  22015295.766   -18035578.55243 -14016864.78342  22015297.208    22015294.612
  22355796.649   -16337432.15943 -12549986.61042  22355797.411    22355795.322
 03 12 26  0 51  0.0000000  0  7G17G30G 5G21G10G 6G24
  20638815.848   -25007798.07244 -19473341.95042  20638816.354    20638813.828
  20218909.567   -26799446.94944 -20869250.41342  20218911.373    20218907.519
  21023745.163   -23642121.79244 -18387967.76642  21023746.018    21023743.185
  23981281.999    -9496096.30843  -7393614.06242  23981283.456    23981281.125
  21063742.686   -22911121.13643 -17846354.42542  21063743.321    21063740.936
  22003801.056   -18095983.74443 -14063933.73542  22003802.475    22003799.853
  22370651.599   -16259368.84843 -12489158.06342  22370652.396    22370650.302
 03 12 26  0 51 30.0000000  0  7G17G30G 5G21G10G 6G24
  20642534.066   -24988258.72544 -19458116.48142  20642534.566    20642532.021
  20217190.592   -26808480.28344 -20876289.37442  20217192.377    20217188.520
  21036174.110   -23576807.26944 -18337073.34342  21036174.992    21036172.142
  23964740.440    -9583022.28243  -7461348.45442  23964741.867    23964739.535
  21060036.361   -22930597.86443 -17861531.07342  21060037.018    21060034.597
  21992324.785   -18156291.83443 -14110927.02242  21992326.232    21992323.561
  22385530.050   -16181182.16343 -12428233.37942  22385530.843    22385528.737
 03 12 26  0 52  0.0000000  0  7G17G30G 5G21G10G 6G24
  20646318.625   -24968370.76444 -19442619.36342  20646319.118    20646316.563
  20215582.608   -26816930.30344 -20882873.80142  20215584.388    20215580.530
  21048688.214   -23511045.34444 -18285830.29642  21048689.084    21048686.238
  23948232.959    -9669769.29543  -7528943.41742  23948234.416    23948231.929
  21056449.428   -22949447.35943 -17876218.96642  21056450.046    21056447.623
  21980867.745   -18216498.94043 -14157841.62642  21980869.183    21980866.514
  22400432.137   -16102870.98443 -12367211.68642  22400432.967    22400430.869
 03 12 26  0 52 30.0000000  0  7G17G30G 5G21G10G 6G24
  20650169.274   -24948135.38744 -19426851.53042  20650169.758    20650167.230
  20214085.736   -26824796.40144 -20889003.22142  20214087.531    20214083.646
  21061287.172   -23444837.51944 -18234239.79342  21061288.049    21061285.171
  23931759.658    -9756336.73543  -7596398.45242  23931761.015    23931758.597
  21052981.951   -22967668.95243 -17890417.58542  21052982.565    21052980.127
  21969430.065   -18276604.23243 -14204676.89042  21969431.513    21969428.822
  22415357.572   -16024437.46443 -12306094.66442  22415358.363    22415356.247
 03 12 26  0 53  0.0000000  0  7G17G30G 5G21G10G 6G24
  20654085.014   -24927558.01844 -19410817.20842  20654085.489    20654082.965
  20212699.337   -26832081.91344 -20894680.23942  20212701.129    20212697.252
  21073969.829   -23378189.70844 -18182306.44342  21073970.686    21073967.833
  23915320.018    -9842727.14443  -7663715.54742  23915321.421    23915318.808
  21049633.338   -22985265.82943 -17904129.40942  21049633.970    21049631.536
  21958011.190   -18336610.84943 -14251435.26042  21958012.607    21958009.917
  22430305.153   -15945887.27943 -12244886.72742  22430305.966    22430303.855
 03 12 26  0 53 30.0000000  0  7G17G30G 5G21G10G 6G24
  20658065.477   -24906640.43744 -19394517.78742  20658065.959    20658063.437
  20211423.523   -26838786.39144 -20899904.50442  20211425.322    20211421.427
  21086735.800   -23311104.14544 -18130031.99142  21086736.649    21086733.797
  23898914.142    -9928940.51443  -7730894.69742  23898915.527    23898912.853
  21046403.760   -23002237.22243 -17917353.85142  21046404.401    21046401.938
  21946611.181   -18396518.29943 -14298116.35942  21946612.593    21946609.889
  22445274.640   -15867222.26743 -12183589.32242  22445275.435    22445273.292
 03 12 26  0 54  0.0000000  0  7G17G30G 5G21G10G 6G24
  20662111.311   -24885379.44744 -19377950.77442  20662111.794    20662109.250
  20210259.204   -26844904.82444 -20904672.11042  20210261.003    20210257.112
  21099585.577   -23243578.12244 -18077414.32142  21099586.427    21099583.587
  23882542.821   -10014971.62743  -7797931.82442  23882544.258    23882541.598
  21043294.236   -23018577.89143 -17930086.81742  21043294.878    21043292.398
  21935231.038   -18456321.34743 -14344716.10742  21935232.451    21935229.700
  22460266.417   -15788439.99043 -12122200.53842  22460267.196    22460265.043
 03 12 26  0 54 30.0000000  0  7G17G30G 5G21G10G 6G24
  20666221.280   -24863781.25444 -19361121.00642  20666221.779    20666219.238
  20209205.563   -26850441.64344 -20908986.50842  20209207.375    20209203.490
  21112517.893   -23175618.33844 -18024458.65642  21112518.755    21112515.918
  23866205.470   -10100824.88243  -7864830.36542  23866206.857    23866204.112
  21040303.998   -23034291.79643 -17942331.40042  21040304.616    21040302.130
  21923870.003   -18516023.96943 -14391237.59842  21923871.422    21923868.622
  22475279.201   -15709547.19443 -12060725.63342  22475280.010    22475277.874
 03 12 26  0 55  0.0000000  0  7G17G30G 5G21G10G 6G24
  20670395.939   -24841843.22444 -19344026.43142  20670396.428    20670393.892
  20208263.519   -26855392.05044 -20912843.96042  20208265.316    20208261.462
  21125533.227   -23107222.29544 -17971163.05042  21125534.080    21125531.276
  23849902.936   -10186494.93543  -7931586.14942  23849904.351    23849901.577
  21037433.865   -23049374.28843 -17954083.96842  21037434.499    21037432.012
  21912528.947   -18575621.28543 -14437677.03042  21912530.424    21912527.607
  22490313.483   -15630541.55743 -11999162.80542  22490314.281    22490312.124
 03 12 26  0 55 30.0000000  0  7G17G30G 5G21G10G 6G24
  20674635.356   -24819564.87744 -19326666.67342  20674635.843    20674633.309
  20207433.499   -26859753.78844 -20916242.71142  20207435.294    20207431.471
  21138631.532   -23038390.41244 -17917527.83042  21138632.368    21138629.572
  23833635.706   -10271979.62743  -7998197.50942  23833637.083    23833634.298
  21034684.396   -23063822.81443 -17965342.54042  21034685.008    21034682.538
  21901208.445   -18635110.76343 -14484032.43842  21901209.914    21901207.114
  22505369.269   -15551422.89043 -11937511.89742  22505370.057    22505367.891
 03 12 26  0 56  0.0000000  0  7G17G30G 5G21G10G 6G24
  20678937.860   -24796955.08744 -19309048.65042  20678938.335    20678935.797
  20206714.198   -26863533.74844 -20919188.12342  20206716.004    20206712.169
  21151811.023   -22969131.82844 -17863560.11342  21151811.862    21151809.045
  23817402.423   -10357285.40643  -8064669.42442  23817403.834    23817401.079
  21032054.215   -23077644.40243 -17976112.58742  21032054.833    21032052.340
  21889907.176   -18694499.05443 -14530308.99742  21889908.675    21889905.854
  22520444.760   -15472200.57043 -11875780.21342  22520445.559    22520443.396
 03 12 26  0 56 30.0000000  0  7G17G30G 5G21G10G 6G24
  20683304.793   -24774006.74544 -19291166.81942  20683305.260    20683302.735
  20206107.308   -26866722.97144 -20921673.23142  20206109.098    20206105.282
  21165072.971   -22899439.76443 -17809254.62142  21165073.823    21165071.028
  23801205.000   -10442403.29443  -8130994.96342  23801206.415    23801203.543
  21029545.077   -23090829.83343 -17986386.92842  21029545.692    21029543.218
  21878626.947   -18753776.78043 -14576499.40042  21878628.443    21878625.647
  22535541.262   -15392868.02243 -11813962.64142  22535542.037    22535539.873
 03 12 26  0 57  0.0000000  0  7G17G30G 5G21G10G 6G24
  20687734.584   -24750728.08244 -19273027.59442  20687735.044    20687732.498
  20205611.612   -26869327.95544 -20923703.08642  20205613.394    20205609.572
  21178415.718   -22829323.15743 -17754618.31642  21178416.566    21178413.779
  23785042.178   -10527339.15243  -8197178.65842  23785043.618    23785040.676
  21027155.844   -23103385.30743 -17996170.39242  21027156.458    21027153.981
  21867366.626   -18812949.92243 -14622608.30942  21867368.123    21867365.344
  22550657.072   -15313433.91643 -11752065.93342  22550657.843    22550655.668
 03 12 26  0 57 30.0000000  0  7G17G30G 5G21G10G 6G24
  20692227.104   -24727119.71644 -19254631.45942  20692227.579    20692225.028
  20205227.280   -26871347.60544 -20925276.82742  20205229.068    20205225.245
  21191838.997   -22758783.31843 -17699652.22042  21191839.831    21191837.095
  23768914.173   -10612091.95243  -8263219.69842  23768915.598    23768912.722
  21024886.761   -23115309.43943 -18005461.90042  21024887.376    21024884.884
  21856126.542   -18872016.84243 -14668634.45142  21856128.017    21856125.243
  22565792.065   -15233898.99743 -11690090.66742  22565792.832    22565790.640
 03 12 26  0 58  0.0000000  0  7G17G30G 5G21G10G 6G24
  20696783.049   -24703177.96544 -19235975.54642  20696783.536    20696780.983
  20204955.448   -26872776.18344 -20926389.99442  20204957.226    20204953.396
  21205343.467   -22687816.83343 -17644353.67342  21205344.316    21205341.581
  23752822.107   -10696655.77443  -8329113.47742  23752823.555    23752820.731
  21022738.865   -23126596.57943 -18014257.05442  21022739.479    21022737.008
  21844907.846   -18930971.57243 -14714573.17042  21844909.277    21844906.497
  22580946.848   -15154259.99643 -11628034.29742  22580947.633    22580945.407
 03 12 26  0 58 30.0000000  0  7G17G30G 5G21G10G 6G24
  20701401.478   -24678908.05344 -19217063.92442  20701401.970    20701399.408
  20204795.381   -26873617.14644 -20927045.28642  20204797.191    20204793.351
  21218928.004   -22616429.67143 -17588727.32642  21218928.857    21218926.114
  23736765.401   -10781033.84943  -8394862.51942  23736766.934    23736764.036
  21020711.583   -23137249.86643 -18022558.29642  21020712.213    21020709.726
  21833709.872   -18989817.07043 -14760426.77442  21833711.311    21833708.548
  22596120.363   -15074522.48343 -11565901.16542  22596121.207    22596118.927
 03 12 26  0 59  0.0000000  0  7G17G30G 5G21G10G 6G24
  20706082.345   -24654309.89044 -19197896.51842  20706082.852    20706080.269
  20204747.519   -26873868.68944 -20927241.28942  20204749.322    20204745.490
  21232592.528   -22544622.07743 -17532773.37142  21232593.381    21232590.660
  23720744.505   -10865223.96643  -8460465.11542  23720746.003    23720743.022
  21018805.264   -23147267.48543 -18030364.21442  21018805.885    21018803.398
  21822533.172   -19048550.90443 -14806193.36942  21822534.593    21822531.837
  22611312.607   -14994686.72843 -11503691.47842  22611313.430    22611311.144
 03 12 26  0 59 30.0000000  0  7G17G30G 5G21G10G 6G24
  20710825.336   -24629385.24844 -19178474.71542  20710825.858    20710823.268
  20204811.802   -26873530.97944 -20926978.13542  20204813.600    20204809.729
  21246336.601   -22472396.48843 -17476493.70842  21246337.444    21246334.729
  23704759.457   -10949225.65143  -8525920.86342  23704760.929    23704757.969
  21017019.980   -23156649.11643 -18037674.55942  21017020.599    21017018.114
  21811377.813   -19107172.62143 -14851872.59942  21811379.219    21811376.464
  22626523.127   -14914754.87943 -11441406.91642  22626523.958    22626521.651
 03 12 26  1  0  0.0000000  0  7G17G30G 5G21G10G 6G24
  20715630.107   -24604135.92744 -19158799.91742  20715630.622    20715628.032
  20204988.259   -26872603.75544 -20926255.61942  20204990.032    20204986.157
  21260159.835   -22399754.95843 -17419889.93442  21260160.654    21260157.949
  23688810.444   -11033038.38443  -8591229.38342  23688811.821    23688808.835
  21015355.731   -23165394.86443 -18044489.41042  21015356.333    21015353.826
  21800243.911   -19165681.52843 -14897463.93342  21800245.313    21800242.546
  22641751.512   -14834729.06843 -11379049.13242  22641752.370    22641750.074
 03 12 26  1  0 30.0000000  0  7G17G30G 5G21G10G 6G24
  20720496.062   -24578565.07544 -19138874.57542  20720496.590    20720494.009
  20205276.547   -26871088.80944 -20925075.13342  20205278.330    20205274.445
  21274061.402   -22326701.79643 -17362965.40542  21274062.218    21274059.516
  23672897.073   -11116663.41143  -8656391.64442  23672898.404    23672895.411
  21013812.140   -23173506.41043 -18050810.07642  21013812.757    21013810.216
  21789131.262   -19224078.73643 -14942968.21942  21789132.684    21789129.901
  22656997.131   -14754612.74843 -11316620.82142  22656997.990    22656995.677
 03 12 26  1  1  0.0000000  0  7G17G30G 5G21G10G 6G24
  20725423.675   -24552670.24044 -19118696.77542  20725424.193    20725421.598
  20205677.498   -26868981.81244 -20923433.31042  20205679.285    20205675.380
  21288041.732   -22253234.76343 -17305718.37942  21288042.539    21288039.810
  23657020.214   -11200096.51243  -8721404.34742  23657021.527    23657018.514
  21012390.110   -23180979.19443 -18056633.00542  21012390.729    21012388.180
  21778040.836   -19282359.26143 -14988381.58742  21778042.240    21778039.438
  22672260.398   -14674403.67043 -11254120.23342  22672261.246    22672258.915
 03 12 26  1  1 30.0000000  0  7G17G30G 5G21G10G 6G24
  20730411.342   -24526459.91044 -19098273.13542  20730411.853    20730409.259
  20206189.762   -26866289.68344 -20921335.54242  20206191.556    20206187.663
  21302099.082   -22179362.98243 -17248155.97142  21302099.880    21302097.149
  23641178.747   -11283343.83343  -8786272.28442  23641180.027    23641177.009
  21011088.406   -23187819.65144 -18061963.21242  21011089.022    21011086.471
  21766971.418   -19340529.28143 -15033708.85042  21766972.820    21766970.029
  22687539.641   -14594110.68943 -11191554.25642  22687540.499    22687538.149
 03 12 26  1  2  0.0000000  0  7G17G30G 5G21G10G 6G24
  20735460.765   -24499924.97444 -19077596.55442  20735461.274    20735458.689
  20206815.447   -26863001.69844 -20918773.47242  20206817.245    20206813.332
  21316235.091   -22105077.90143 -17190271.50842  21316235.904    21316233.152
  23625374.765   -11366394.00143  -8850986.61942  23625376.042    23625373.036
  21009909.010   -23194017.26343 -18066792.50242  21009909.654    21009907.079
  21755925.173   -19398577.54443 -15078941.23442  21755926.590    21755923.794
  22702836.485   -14513725.06543 -11128916.09942  22702837.364    22702835.019
 03 12 26  1  2 30.0000000  0  7G17G30G 5G21G10G 6G24
  20740570.389   -24473073.71744 -19056673.49342  20740570.890    20740568.306
  20207553.273   -26859124.52244 -20915752.29542  20207555.045    20207551.127
  21330448.057   -22030388.35643 -17132071.87942  21330448.883    21330446.124
  23609607.014   -11449253.63243  -8915552.46042  23609608.328    23609605.313
  21008850.686   -23199578.74243 -18071126.10842  21008851.335    21008848.744
  21744901.005   -19456509.81143 -15124083.23442  21744902.409    21744899.638
  22718149.380   -14433255.21843 -11066212.30942  22718150.276    22718147.876
 03 12 26  1  3  0.0000000  0  7G17G30G 5G21G10G 6G24
  20745740.027   -24445907.07744 -19035504.67542  20745740.530    20745737.934
  20208403.329   -26854657.35644 -20912271.38442  20208405.121    20208401.183
  21344737.668   -21955296.25743 -17073558.56942  21344738.446    21344735.686
  23593875.785   -11531921.58943  -8979968.96042  23593877.114    23593874.030
  21007913.572   -23204503.22744 -18074963.35042  21007914.219    21007911.627
  21733899.171   -19514324.65743 -15169133.73542  21733900.590    21733897.795
  22733478.062   -14352702.39143 -11003443.85942  22733478.929    22733476.554
 03 12 26  1  3 30.0000000  0  7G17G30G 5G21G10G 6G24
  20750970.077   -24418422.84344 -19014088.38542  20750970.614    20750968.014
  20209366.351   -26849596.62544 -20908327.95342  20209368.131    20209364.203
  21359104.133   -21879799.90143 -17014730.25742  21359104.939    21359102.175
  23578181.836   -11614393.76943  -9044232.89942  23578183.150    23578179.943
  21007098.467   -23208786.68144 -18078301.08742  21007099.098    21007096.508
  21722920.534   -19572017.58643 -15214089.23442  21722921.959    21722919.168
  22748822.925   -14272064.58143 -10940609.19342  22748823.777    22748821.430
 03 12 26  1  4  0.0000000  0  7G17G30G 5G21G10G 6G24
  20756259.745   -24390625.32544 -18992427.97242  20756260.304    20756257.698
  20210441.787   -26843944.98144 -20903924.07042  20210443.592    20210439.649
  21373546.605   -21803904.20943 -16955590.77342  21373547.441    21373544.650
  23562524.782   -11696671.83443  -9108345.58242  23562526.063    23562522.875
  21006404.819   -23212431.81544 -18081141.43242  21006405.435    21006402.849
  21711964.765   -19629590.38943 -15258951.13042  21711966.184    21711963.388
  22764183.046   -14191346.44743 -10877711.93442  22764183.923    22764181.586
 03 12 26  1  4 30.0000000  0  7G17G30G 5G21G10G 6G24
  20761607.847   -24362520.76344 -18970528.30542  20761608.407    20761605.825
  20211628.824   -26837707.03344 -20899063.32642  20211630.634    20211626.690
  21388063.788   -21727615.99343 -16896145.42642  21388064.592    21388061.835
  23546903.789   -11778760.22343  -9172310.46742  23546905.073    23546901.885
  21005831.731   -23215443.22344 -18083487.96142  21005832.375    21005829.771
  21701031.141   -19687046.87443 -15303722.38842  21701032.543    21701029.747
  22779557.271   -14110554.38643 -10814757.07342  22779558.130    22779555.826
 03 12 26  1  5  0.0000000  0  7G17G30G 5G21G10G 6G24
  20767016.491   -24334098.25644 -18948380.88942  20767017.000    20767014.454
  20212929.766   -26830870.50744 -20893736.16442  20212931.565    20212927.650
  21402657.664   -21650924.80143 -16836386.07142  21402658.465    21402655.711
  23531321.400   -11860646.08743  -9236117.54242  23531322.614    23531319.511
  21005381.618   -23217808.53343 -18085331.04242  21005382.267    21005379.647
  21690122.130   -19744373.90643 -15348392.76742  21690123.547    21690120.763
  22794947.657   -14029677.27143 -10751735.93142  22794948.522    22794946.228
 03 12 26  1  5 30.0000000  0  7G17G30G 5G21G10G 6G24
  20772483.300   -24305369.98344 -18925995.21342  20772483.807    20772481.270
  20214342.572   -26823446.08144 -20887950.89342  20214344.363    20214340.465
  21417325.708   -21573843.91743 -16776323.06042  21417326.497    21417323.714
  23515775.549   -11942339.63043  -9299774.76342  23515776.734    23515773.673
  21005052.415   -23219538.41044 -18086678.98042  21005053.056    21005050.470
  21679235.926   -19801581.13443 -15392969.79642  21679237.337    21679234.541
  22810351.822   -13948727.79343 -10688658.40842  22810352.695    22810350.424
 03 12 26  1  6  0.0000000  0  7G17G30G 5G21G10G 6G24
  20778008.898   -24276332.76344 -18903368.79942  20778009.386    20778006.845
  20215868.174   -26815428.90844 -20881703.74342  20215869.960    20215866.070
  21432068.370   -21496370.67943 -16715954.31842  21432069.174    21432066.385
  23500267.319   -12023835.55843  -9363277.99742  23500268.487    23500265.463
  21004845.086   -23220627.87743 -18087527.89642  21004845.718    21004843.117
  21668373.596   -19858662.88643 -15437449.04742  21668375.005    21668372.212
  22825770.362   -13867702.78043 -10625522.02042  22825771.239    22825768.980
 03 12 26  1  6 30.0000000  0  7G17G30G 5G21G10G 6G24
  20783592.842   -24246988.88044 -18880503.42942  20783593.335    20783590.802
  20217506.345   -26806820.15544 -20874995.62442  20217508.142    20217504.262
  21446885.137   -21418507.97543 -16655282.09942  21446885.962    21446883.190
  23484796.625   -12105134.29243  -9426627.57242  23484797.732    23484794.742
  21004759.409   -23221078.05544 -18087878.66342  21004760.027    21004757.431
  21657535.138   -19915619.20243 -15481830.55942  21657536.540    21657533.764
  22841202.717   -13786605.14743 -10562329.05642  22841203.589    22841201.345
 03 12 26  1  7  0.0000000  0  7G17G30G 5G21G10G 6G24
  20789234.814   -24217340.01244 -18857400.40942  20789235.336    20789232.783
  20219257.108   -26797619.92944 -20867826.61342  20219258.898    20219254.997
  21461775.587   -21340258.15843 -16594308.23342  21461776.387    21461773.667
  23469363.490   -12186235.41243  -9489823.17242  23469364.570    23469361.625
  21004795.405   -23220888.75944 -18087731.14042  21004796.037    21004793.450
  21646720.752   -19972449.10443 -15526113.56742  21646722.154    21646719.381
  22856648.580   -13705436.46643 -10499080.72242  22856649.464    22856647.255
 03 12 26  1  7 30.0000000  0  7G17G30G 5G21G10G 6G24
  20794933.924   -24187390.89744 -18834063.42742  20794934.454    20794931.903
  20221119.810   -26787831.48344 -20860199.24942  20221121.583    20221117.670
  21476738.674   -21261626.58743 -16533036.89342  21476739.491    21476736.782
  23453967.552   -12267141.44143  -9552866.75542  23453968.559    23453965.636
  21004952.442   -23220063.42943 -18087088.00742  21004953.058    21004950.481
  21635930.022   -20029154.70043 -15570299.71442  21635931.405    21635928.640
  22872107.121   -13624201.44843 -10435780.70042  22872107.961    22872105.756
 03 12 26  1  8  0.0000000  0  7G17G30G 5G21G10G 6G24
  20800691.035   -24157137.13544 -18810489.05842  20800691.520    20800688.981
  20223095.504   -26777449.08344 -20852109.06242  20223097.263    20223093.375
  21491775.047   -21182609.91443 -16471465.47842  21491775.864    21491773.171
  23438609.914   -12347845.91943  -9615753.28842  23438610.966    23438608.036
  21005231.618   -23218596.29144 -18085944.75942  21005232.227    21005229.631
  21625164.211   -20085729.25543 -15614383.74842  21625165.608    21625162.836
  22887579.055   -13542895.77443 -10372425.61842  22887579.907    22887577.748
 03 12 26  1  8 30.0000000  0  7G17G30G 5G21G10G 6G24
  20806505.981   -24126579.27844 -18786677.73042  20806506.470    20806503.926
  20225184.383   -26766472.01744 -20843555.49842  20225186.144    20225182.233
  21506884.469   -21103209.46343 -16409595.01642  21506885.269    21506882.596
  23423290.809   -12428347.93043  -9678482.06242  23423291.833    23423288.946
  21005633.102   -23216486.35544 -18084300.63542  21005633.711    21005631.105
  21614423.702   -20142170.91843 -15658364.23542  21614425.106    21614422.342
  22903064.300   -13461520.20643 -10309016.06842  22903065.119    22903063.004
 03 12 26  1  9  0.0000000  0  7G17G30G 5G21G10G 6G24
  20812377.004   -24095726.93044 -18762636.92942  20812377.471    20812374.914
  20227384.829   -26754908.45444 -20834544.92042  20227386.601    20227382.705
  21522064.994   -21023435.23443 -16347433.29742  21522065.811    21522063.153
  23408008.970   -12508654.51743  -9741058.55542  23408009.956    23408007.034
  21006155.342   -23213741.81844 -18082162.01242  21006155.974    21006153.348
  21603707.160   -20198486.67643 -15702246.61442  21603708.573    21603705.760
  22918560.970   -13380084.58543 -10245559.73242  22918561.766    22918559.703
 03 12 26  1  9 30.0000000  0  7G17G30G 5G21G10G 6G24
  20818305.219   -24064573.97944 -18738361.89342  20818305.690    20818303.125
  20229698.286   -26742751.23444 -20825071.74942  20229700.055    20229696.133
  21537317.627   -20943282.03443 -16284976.27542  21537318.450    21537315.804
  23392765.760   -12588757.67543  -9803476.54042  23392766.827    23392763.824
  21006799.689   -23210355.63444 -18079523.40542  21006800.317    21006797.709
  21593016.191   -20254668.11643 -15746024.32642  21593017.612    21593014.753
  22934070.229   -13298583.01943 -10182052.01342  22934070.989    22934068.943
 03 12 26  1 10  0.0000000  0  7G17G30G 5G21G10G 6G24
  20824289.459   -24033126.59044 -18713857.42142  20824289.918    20824287.345
  20232123.750   -26730005.06744 -20815139.66142  20232125.548    20232121.645
  21552641.083   -20862756.68943 -16222229.27042  21552641.906    21552639.289
  23377560.497   -12668661.56443  -9865739.25042  23377561.570    23377558.569
  21007565.229   -23206332.56144 -18076388.52142  21007565.882    21007563.256
  21582350.084   -20310718.88843 -15789700.22242  21582351.490    21582348.608
  22949590.849   -13217021.58643 -10118497.64142  22949591.621    22949589.525
 03 12 26  1 10 30.0000000  0  7G17G30G 5G21G10G 6G24
  20830329.878   -24001383.82144 -18689122.78642  20830330.362    20830327.761
  20234661.787   -26716667.72844 -20804746.92642  20234663.562    20234659.640
  21568035.413   -20781859.08443 -16159192.19342  21568036.211    21568033.594
  23362393.775   -12748363.11643  -9927844.29642  23362394.828    23362391.778
  21008452.438   -23201670.12544 -18072755.43342  21008453.088    21008450.454
  21571709.515   -20366635.24443 -15833271.38342  21571710.936    21571708.048
  22965123.073   -13135399.23243 -10054895.79242  22965123.842    22965121.738
 03 12 26  1 11  0.0000000  0  7G17G30G 5G21G10G 6G24
  20836426.512   -23969345.72644 -18664158.02342  20836427.011    20836424.397
  20237312.513   -26702738.06244 -20793892.63542  20237314.293    20237310.354
  21583500.413   -20700589.99543 -16095865.64642  21583501.212    21583498.591
  23347265.831   -12827860.88843  -9989790.56142  23347266.821    23347263.783
  21009461.551   -23196367.24743 -18068623.29742  21009462.176    21009459.554
  21561094.926   -20422415.03943 -15876736.12642  21561096.380    21561093.473
  22980666.794   -13053716.52243  -9991246.91242  22980667.552    22980665.460
 03 12 26  1 11 30.0000000  0  7G17G30G 5G21G10G 6G24
  20842578.146   -23937018.65344 -18638968.08542  20842578.629    20842576.018
  20240074.934   -26688221.40844 -20782580.94942  20240076.708    20240072.776
  21599034.765   -20618956.71743 -16032255.31642  21599035.539    21599032.894
  23332175.763   -12907159.23343 -10051581.42642  23332176.862    23332173.758
  21010591.517   -23190429.07544 -18063996.12642  21010592.141    21010589.517
  21550505.594   -20478062.18243 -15920097.50742  21550507.056    21550504.160
  22996220.759   -12971979.62943  -9927555.82242  22996221.593    22996219.424
 03 12 26  1 12  0.0000000  0  7G17G30G 5G21G10G 6G24
  20848785.753   -23904397.36244 -18613548.88642  20848786.249    20848783.626
  20242950.405   -26673110.74144 -20770806.40042  20242952.170    20242948.239
  21614639.334   -20536954.34343 -15968357.37942  21614640.118    21614637.437
  23317125.204   -12986250.13843 -10113210.65742  23317126.309    23317123.198
  21011843.668   -23183848.82544 -18058868.63142  21011844.304    21011841.678
  21539943.116   -20533568.37043 -15963349.05442  21539944.557    21539941.639
  23011786.188   -12890182.75743  -9863817.98042  23011787.001    23011784.817
 03 12 26  1 12 30.0000000  0  7G17G30G 5G21G10G 6G24
  20855048.103   -23871488.44744 -18587905.56242  20855048.597    20855045.977
  20245937.730   -26657412.17144 -20758573.74042  20245939.516    20245935.565
  21630312.578   -20454590.99143 -15904178.15942  21630313.383    21630310.658
  23302113.076   -13065139.01243 -10174682.45842  23302114.206    23302111.169
  21013216.860   -23176632.56044 -18053245.54242  21013217.500    21013214.866
  21529406.540   -20588938.32043 -16006494.44242  21529407.988    21529405.068
  23027361.570   -12808333.39843  -9800039.24242  23027362.406    23027360.210
 03 12 26  1 13  0.0000000  0  7G17G30G 5G21G10G 6G24
  20861364.380   -23838296.21344 -18562041.47242  20861364.866    20861362.236
  20249036.380   -26641128.66244 -20745885.28942  20249038.159    20249034.200
  21646053.614   -20371871.40443 -15839721.35542  21646054.426    21646051.691
  23287138.974   -13143828.10443 -10235998.58242  23287140.045    23287137.041
  21014710.537   -23168783.22044 -18047129.15142  21014711.166    21014708.522
  21518895.638   -20644173.43143 -16049534.76242  21518897.077    21518894.161
  23042946.151   -12726435.58743  -9736222.75542  23042947.006    23042944.830
 03 12 26  1 13 30.0000000  0  7G17G30G 5G21G10G 6G24
  20867736.241   -23804811.76644 -18535949.68042  20867736.728    20867734.097
  20252248.282   -26624249.91744 -20732733.01342  20252250.070    20252246.111
  21661863.987   -20288787.43043 -15774980.61442  21661864.813    21661862.077
  23272205.048   -13222306.44543 -10297150.50542  23272206.104    23272203.029
  21016326.677   -23160290.39244 -18040511.34242  21016327.292    21016324.618
  21508412.595   -20699262.01543 -16092460.89942  21508414.056    21508411.114
  23058541.727   -12644480.32343  -9672361.49742  23058542.554    23058540.402
 03 12 26  1 14  0.0000000  0  7G17G30G 5G21G10G 6G24
  20874162.207   -23771042.93044 -18509636.28742  20874162.712    20874160.078
  20255572.112   -26606783.00944 -20719122.43142  20255573.900    20255569.945
  21677742.025   -20205347.85743 -15709962.78342  21677742.852    21677740.106
  23257310.040   -13300579.96543 -10358142.81142  23257311.086    23257308.070
  21018063.864   -23151161.25744 -18033397.70742  21018064.499    21018061.831
  21497956.372   -20754209.78543 -16135277.31642  21497957.819    21497954.870
  23074146.685   -12562475.83543  -9608461.88642  23074147.494    23074145.363
 03 12 26  1 14 30.0000000  0  7G17G30G 5G21G10G 6G24
  20880641.825   -23736992.20744 -18483103.24542  20880642.338    20880639.732
  20259007.608   -26588729.42644 -20705054.70242  20259009.379    20259005.419
  21693687.079   -20121556.03343 -15644670.47042  21693687.923    21693685.168
  23242453.958   -13378649.13943 -10418975.88942  23242454.981    23242451.980
  21019921.898   -23141397.01344 -18025789.18242  21019922.545    21019919.876
  21487526.996   -20809016.51043 -16177983.82642  21487528.424    21487525.459
  23089760.509   -12480424.53443  -9544525.80042  23089761.348    23089759.201
 03 12 26  1 15  0.0000000  0  7G17G30G 5G21G10G 6G24
  20887175.274   -23702658.75544 -18456349.89142  20887175.769    20887173.160
  20262555.172   -26570086.83344 -20690528.00342  20262556.928    20262552.986
  21709699.236   -20037411.54443 -15579103.35742  21709700.078    21709697.348
  23227637.285   -13456510.91643 -10479647.37242  23227638.334    23227635.327
  21021901.192   -23130995.65244 -18017684.19842  21021901.836    21021899.164
  21477125.123   -20863678.54443 -16220577.59142  21477126.564    21477123.577
  23105383.525   -12398325.14743  -9480552.23842  23105384.303    23105382.186
 03 12 26  1 15 30.0000000  0  7G17G30G 5G21G10G 6G24
  20893762.003   -23668045.17444 -18429378.25442  20893762.502    20893759.897
  20266214.439   -26550857.22444 -20675543.88842  20266216.216    20266212.263
  21725777.779   -19952918.35143 -15513264.52442  21725778.614    21725775.898
  23212859.929   -13534166.06643 -10540157.83242  23212860.984    23212857.989
  21024001.339   -23119959.20844 -18009084.34642  21024001.974    21023999.299
  21466750.767   -20918196.06143 -16263058.74642  21466752.185    21466749.222
  23121015.135   -12316180.39743  -9416543.33042  23121015.950    23121013.798
 03 12 26  1 16  0.0000000  0  7G17G30G 5G21G10G 6G24
  20900402.326   -23633150.01644 -18402187.20742  20900402.833    20900400.232
  20269985.870   -26531038.07344 -20660100.39242  20269987.649    20269983.730
  21741922.807   -19868075.81143 -15447153.47542  21741923.632    21741920.924
  23198122.507   -13611611.60243 -10600504.96342  23198123.535    23198120.538
  21026222.818   -23108285.13044 -17999987.64042  21026223.456    21026220.772
  21456404.675   -20972564.99443 -16305424.11942  21456406.118    21456403.115
  23136655.637   -12233988.91843  -9352498.01342  23136656.483    23136654.283
 03 12 26  1 16 30.0000000  0  7G17G30G 5G21G10G 6G24
  20907094.901   -23597980.10844 -18374782.06442  20907095.422    20907092.820
  20273868.409   -26510635.24644 -20644202.08342  20273870.174    20273866.266
  21758132.877   -19782891.39443 -15380776.02742  21758133.723    21758131.014
  23183424.074   -13688852.12843 -10660692.35342  23183425.122    23183422.039
  21028564.501   -23095979.42144 -17990398.75342  21028565.153    21028562.449
  21446086.075   -21026789.49343 -16347676.94342  21446087.519    21446084.504
  23152303.764   -12151757.48743  -9288421.56042  23152304.606    23152302.388
 03 12 26  1 17  0.0000000  0  7G17G30G 5G21G10G 6G24
  20913840.321   -23562532.54644 -18347160.57442  20913840.869    20913838.269
  20277862.722   -26489644.91844 -20627845.98142  20277864.509    20277860.578
  21774408.413   -19697363.12843 -15314130.64342  21774409.230    21774406.513
  23168765.496   -13765883.16143 -10720716.50442  23168766.509    23168763.470
  21031027.128   -23083038.12544 -17980314.60042  21031027.782    21031025.064
  21435795.998   -21080864.18543 -16389813.03042  21435797.437    21435794.403
  23167960.049   -12069483.16243  -9224311.68342  23167960.883    23167958.644
 03 12 26  1 17 30.0000000  0  7G17G30G 5G21G10G 6G24
  20920637.623   -23526812.42644 -18319326.70042  20920638.167    20920635.576
  20281968.044   -26468071.25544 -20611035.33342  20281969.819    20281965.899
  21790748.212   -19611496.93543 -15247221.94642  21790749.016    21790746.355
  23154146.363   -13842707.19443 -10780579.34942  23154147.366    23154144.280
  21033609.937   -23069465.28144 -17969738.33442  21033610.593    21033607.868
  21425533.962   -21134791.45543 -16431834.24642  21425535.403    21425532.360
  23183623.531   -11987171.13743  -9160172.43042  23183624.374    23183622.106
 03 12 26  1 18  0.0000000  0  7G17G30G 5G21G10G 6G24
  20927487.697   -23490815.02444 -18291276.76342  20927488.214    20927485.649
  20286185.486   -26445908.51344 -20593765.66442  20286187.246    20286183.323
  21807153.038   -19525288.99543 -15180046.94542  21807153.850    21807151.186
  23139567.723   -13919318.14243 -10840276.15742  23139568.777    23139565.596
  21036314.007   -23055255.33544 -17958665.62842  21036314.651    21036311.912
  21415301.427   -21188563.76943 -16473734.71842  21415302.848    21415299.790
  23199295.136   -11904816.23143  -9095999.75842  23199295.983    23199293.772
 03 12 26  1 18 30.0000000  0  7G17G30G 5G21G10G 6G24
  20934388.624   -23454550.23944 -18263018.47542  20934389.157    20934386.583
  20290513.283   -26423165.85144 -20576044.10542  20290515.035    20290511.097
  21823620.800   -19438750.41943 -15112614.31242  21823621.604    21823618.971
  23125028.091   -13995724.13843 -10899813.26442  23125029.166    23125025.959
  21039137.580   -23040417.30144 -17947103.49942  21039138.210    21039135.482
  21405096.942   -21242188.63243 -16515520.29242  21405098.353    21405095.297
  23214973.024   -11822428.31943  -9031801.37242  23214973.892    23214971.668
 03 12 26  1 19  0.0000000  0  7G17G30G 5G21G10G 6G24
  20941341.324   -23418013.55244 -18234548.31842  20941341.836    20941339.278
  20294952.461   -26399837.75144 -20557866.36342  20294954.209    20294950.293
  21840152.214   -19351877.15143 -15044920.87342  21840153.035    21840150.425
  23110528.766   -14071918.48843 -10959185.45242  23110529.811    23110526.669
  21042081.653   -23024945.98244 -17935047.90342  21042082.305    21042079.542
  21394921.866   -21295658.81643 -16557185.33442  21394923.296    21394920.220
  23230658.107   -11740002.82643  -8967573.70842  23230658.885    23230656.706
 03 12 26  1 19 30.0000000  0  7G17G30G 5G21G10G 6G24
  20948345.627   -23381205.66644 -18205866.83642  20948346.147    20948343.579
  20299502.990   -26375924.62144 -20539232.75242  20299504.735    20299500.802
  21856746.928   -19264671.38143 -14976968.34242  21856747.727    21856745.142
  23096069.868   -14147900.32743 -11018392.04942  23096070.938    23096067.730
  21045146.203   -23008841.47644 -17922498.91742  21045146.863    21045144.091
  21384776.537   -21348972.68243 -16598728.57042  21384777.968    21384774.893
  23246350.173   -11657540.53843  -8903317.36342  23246350.943    23246348.734
 03 12 26  1 20  0.0000000  0  7G17G30G 5G21G10G 6G24
  20955400.471   -23344132.29444 -18176978.48042  20955400.976    20955398.396
  20304164.010   -26351430.64544 -20520146.53542  20304165.752    20304161.835
  21873403.747   -19177139.09843 -14908761.39242  21873404.561    21873402.018
  23081650.810   -14223673.12443 -11077435.76542  23081651.921    23081648.588
  21048330.394   -22992108.38744 -17909460.12842  21048331.035    21048328.282
  21374660.455   -21402132.80143 -16640152.00342  21374661.889    21374658.824
  23262048.128   -11575047.12043  -8839036.75842  23262048.926    23262046.639
 03 12 26  1 20 30.0000000  0  7G17G30G 5G21G10G 6G24
  20962506.297   -23306790.93144 -18147881.30542  20962506.789    20962504.220
  20308936.109   -26326353.16544 -20500605.63842  20308937.838    20308933.930
  21890122.927   -19089279.40843 -14840299.31742  21890123.728    21890121.156
  23067272.248   -14299232.68243 -11136313.30942  23067273.412    23067270.081
  21051634.752   -22974743.85444 -17895929.30342  21051635.387    21051632.609
  21364574.536   -21455134.39843 -16681451.91942  21364575.994    21364572.908
  23277752.538   -11492519.84843  -8774729.77842  23277753.330    23277751.067
 03 12 26  1 21  0.0000000  0  7G17G30G 5G21G10G 6G24
  20969662.124   -23269186.68644 -18118579.28042  20969662.618    20969660.057
  20313818.472   -26300696.18244 -20480613.17642  20313820.204    20313816.284
  21906903.333   -19001097.80343 -14771586.39842  21906904.132    21906901.577
  23052933.675   -14374582.17443 -11195027.16342  23052934.845    23052931.529
  21055058.442   -22956752.08344 -17881909.71642  21055059.074    21055056.313
  21354518.398   -21507979.61543 -16722629.97742  21354519.857    21354516.753
  23293462.459   -11409963.69643  -8710400.29942  23293463.239    23293460.985
 03 12 26  1 21 30.0000000  0  7G17G30G 5G21G10G 6G24
  20976868.438   -23231317.17544 -18089070.55842  20976868.935    20976866.373
  20318811.684   -26274456.66344 -20460166.79442  20318813.427    20318809.483
  21923745.197   -18912593.23743 -14702621.82342  21923745.994    21923743.460
  23038635.945   -14449717.27643 -11253573.97842  23038637.095    23038633.724
  21058602.114   -22938129.92544 -17867398.92342  21058602.735    21058599.967
  21344492.952   -21560663.45843 -16763682.29342  21344494.432    21344491.330
  23309178.308   -11327376.29343  -8646046.46242  23309179.088    23309176.838
 03 12 26  1 22  0.0000000  0  7G17G30G 5G21G10G 6G24
  20984123.816   -23193189.77944 -18059360.88642  20984124.325    20984121.784
  20323914.484   -26247641.21944 -20439271.63942  20323916.220    20323912.301
  21940646.995   -18823773.61443 -14633411.74842  21940647.806    21940645.285
  23024377.852   -14524643.76743 -11311958.22242  23024378.986    23024375.672
  21062264.420   -22918884.24644 -17852402.26842  21062265.044    21062262.267
  21334497.355   -21613190.57343 -16804612.48342  21334498.823    21334495.710
  23324898.804   -11244764.54743  -8581673.66342  23324899.557    23324897.339
 03 12 26  1 22 30.0000000  0  7G17G30G 5G21G10G 6G24
  20991429.694   -23154797.17444 -18029444.56042  20991430.191    20991427.627
  20329128.407   -26220241.90144 -20417921.51942  20329130.129    20329126.231
  21957609.937   -18734632.91143 -14563951.48142  21957610.742    21957608.244
  23010161.342   -14599352.19443 -11370172.53642  23010162.443    23010159.101
  21066046.922   -22899006.95844 -17836913.45342  21066047.545    21066044.772
  21324533.469   -21665551.02843 -16845412.80442  21324534.934    21324531.835
  23340625.337   -11162121.05243  -8517276.11342  23340626.021    23340623.876
 03 12 26  1 23  0.0000000  0  7G17G30G 5G21G10G 6G24
  20998784.049   -23116149.67444 -17999329.61142  20998784.540    20998781.996
  20334451.543   -26192268.52444 -20396124.07842  20334453.281    20334449.372
  21974631.807   -18645182.46643 -14494249.85342  21974632.600    21974630.115
  22995984.547   -14673851.53243 -11428223.94742  22995985.639    22995982.198
  21069947.663   -22878508.27544 -17820940.43242  21069948.284    21069945.516
  21314599.833   -21717752.55643 -16886089.28542  21314601.296    21314598.200
  23356355.947   -11079455.99043  -8452861.76742  23356356.638    23356354.483
 03 12 26  1 23 30.0000000  0  7G17G30G 5G21G10G 6G24
  21006187.390   -23077244.79044 -17969014.10442  21006187.879    21006185.333
  20339884.533   -26163717.91444 -20373876.84442  20339886.269    20339882.369
  21991712.900   -18555420.79243 -14424305.71242  21991713.705    21991711.211
  22981848.567   -14748136.79243 -11486108.52342  22981849.601    22981846.172
  21073967.307   -22857384.70443 -17804480.48842  21073967.950    21073965.178
  21304697.468   -21769789.80143 -16926637.75842  21304698.917    21304695.818
  23372091.186   -10996766.74143  -8388428.58142  23372091.867    23372089.711
 03 12 26  1 24  0.0000000  0  7G17G30G 5G21G10G 6G24
  21013640.074   -23038080.63544 -17938496.56642  21013640.546    21013638.003
  20345427.830   -26134587.65044 -20351177.92842  20345429.559    20345425.660
  22008853.406   -18465346.92143 -14354118.30242  22008854.196    22008851.724
  22967753.914   -14822204.81743 -11543823.82642  22967754.974    22967751.457
  21078106.313   -22835633.95243 -17787531.83142  21078106.967    21078104.168
  21294827.153   -21821658.47543 -16967054.88042  21294828.605    21294825.518
  23387831.356   -10914051.58943  -8323975.20742  23387832.030    23387829.844
 03 12 26  1 24 30.0000000  0  7G17G30G 5G21G10G 6G24
  21021140.902   -22998663.39343 -17907781.81842  21021141.377    21021138.842
  20351080.347   -26104883.54944 -20328031.87042  20351082.081    20351078.174
  22026051.941   -18374968.13543 -14283693.29242  22026052.728    22026050.238
  22953699.679   -14896060.03943 -11601373.31142  22953700.758    22953697.143
  21082363.556   -22813261.91744 -17770099.05742  21082364.208    21082361.416
  21284988.256   -21873362.17843 -17007343.44842  21284989.697    21284986.580
  23403575.294   -10831316.40243  -8259506.20742  23403575.999    23403573.774
 03 12 26  1 25  0.0000000  0  7G17G30G 5G21G10G 6G24
  21028690.274   -22958991.02943 -17876868.27042  21028690.752    21028688.221
  20356842.577   -26074602.73444 -20304436.42342  20356844.325    20356840.401
  22043308.770   -18284283.09343 -14213029.63742  22043309.565    22043307.036
  22939686.791   -14969698.28443 -11658753.71942  22939687.873    22939684.282
  21086739.569   -22790265.78144 -17752179.96842  21086740.209    21086737.431
  21275181.707   -21924895.81543 -17047499.50042  21275183.151    21275180.004
  23419323.570   -10748558.58743  -8195019.58342  23419324.305    23419322.010
 03 12 26  1 25 30.0000000  0  7G17G30G 5G21G10G 6G24
  21036286.933   -22919070.27543 -17845761.17742  21036287.391    21036284.881
  20362713.365   -26043751.50844 -20280396.50142  20362715.109    20362711.202
  22060622.282   -18193300.07243 -14142133.79042  22060623.073    22060620.547
  22925714.142   -15043124.73343 -11715969.08242  22925715.271    22925711.705
  21091233.067   -22766652.18444 -17733779.74342  21091233.727    21091230.951
  21265406.730   -21976263.48343 -17087526.22842  21265408.172    21265405.027
  23435074.838   -10665784.97243  -8130520.65242  23435075.571    23435073.308
 03 12 26  1 26  0.0000000  0  7G17G30G 5G21G10G 6G24
  21043931.178   -22878899.46943 -17814459.23742  21043931.646    21043929.103
  20368693.141   -26012327.49044 -20255910.24942  20368694.882    20368690.989
  22077992.746   -18102017.60843 -14071004.62242  22077993.562    22077991.038
  22911782.500   -15116335.82443 -11773016.64442  22911783.597    22911779.942
  21095844.514   -22742418.72544 -17714896.51242  21095845.186    21095842.398
  21255664.185   -22027460.68743 -17127420.12642  21255665.644    21255662.494
  23450829.492   -10582993.40143  -8066007.72542  23450830.280    23450828.022
 03 12 26  1 26 30.0000000  0  7G17G30G 5G21G10G 6G24
  21051623.277   -22838477.16244 -17782961.31842  21051623.730    21051621.192
  20374782.207   -25980329.22544 -20230976.53142  20374783.943    20374780.057
  22095420.114   -18010436.15143 -13999642.45942  22095420.948    22095418.435
  22897892.435   -15189328.37243 -11829893.90442  22897893.509    22897889.901
  21100574.215   -22717563.78844 -17695529.00742  21100574.886    21100572.102
  21245954.841   -22078483.50943 -17167178.13742  21245956.288    21245953.149
  23466587.840   -10500182.58243  -8001479.80442  23466588.639    23466586.297
 03 12 26  1 27  0.0000000  0  7G17G30G 5G21G10G 6G24
  21059362.434   -22797807.63544 -17751270.76342  21059362.873    21059360.310
  20380979.888   -25947760.12744 -20205598.00642  20380981.628    20380977.761
  22112903.545   -17918560.20043 -13928050.82642  22112904.351    22112901.874
  22884043.468   -15262104.89543 -11886602.82242  22884044.548    22884040.983
  21105421.494   -22692091.23744 -17675680.24342  21105422.126    21105419.342
  21236278.436   -22129333.14243 -17206801.19642  21236279.909    21236276.769
  23482349.156   -10417356.40943  -7936939.90842  23482349.885    23482347.586
 03 12 26  1 27 30.0000000  0  7G17G30G 5G21G10G 6G24
  21067148.262   -22756892.82743 -17719389.08142  21067148.702    21067146.112
  20387285.841   -25914622.02744 -20179776.10642  20387287.590    20387283.728
  22130442.294   -17826393.63643 -13856232.74142  22130443.103    22130440.636
  22870235.617   -15334665.35643 -11943143.40642  22870236.741    22870233.093
  21110385.971   -22666002.66943 -17655351.47142  21110386.623    21110383.823
  21226635.080   -22180009.24343 -17246289.04142  21226636.526    21226633.396
  23498113.011   -10334516.54143  -7872389.35142  23498113.785    23498111.484
 03 12 26  1 28  0.0000000  0  7G17G30G 5G21G10G 6G24
  21074980.186   -22715735.69644 -17687318.57242  21074980.646    21074978.036
  20393699.624   -25880917.29244 -20153512.66742  20393701.385    20393697.557
  22148035.640   -17733939.90543 -13784190.88342  22148036.454    22148034.020
  22856468.597   -15407011.11143 -11999516.66142  22856469.714    22856466.108
  21115467.185   -22639300.59543 -17634544.64142  21115467.863    21115465.030
  21217024.786   -22230511.66243 -17285641.54342  21217026.227    21217023.085
  23513879.013   -10251665.49543  -7807830.06842  23513879.835    23513877.476
 03 12 26  1 28 30.0000000  0  7G17G30G 5G21G10G 6G24
  21082859.156   -22674331.34644 -17655055.42842  21082859.624    21082856.997
  20400222.242   -25846640.64944 -20126803.58942  20400223.997    20400220.179
  22165684.384   -17641195.24643 -13711922.34142  22165685.172    22165682.770
  22842743.698   -15479135.63443 -12055717.54342  22842744.859    22842741.276
  21120666.107   -22611980.07443 -17613255.90442  21120666.757    21120663.921
  21207448.970   -22280832.81843 -17324852.80242  21207450.399    21207447.256
  23529648.085   -10168798.28543  -7743258.19942  23529648.959    23529646.565
 03 12 26  1 29  0.0000000  0  7G17G30G 5G21G10G 6G24
  21090783.163   -22632690.18643 -17622607.75642  21090783.665    21090781.022
  20406851.769   -25811802.28644 -20099656.80742  20406853.526    20406849.704
  22183386.267   -17548171.30543 -13639436.15942  22183387.061    22183384.657
  22829059.210   -15551047.85843 -12111752.98942  22829060.320    22829056.743
  21125980.762   -22584051.23343 -17591493.15042  21125981.410    21125978.577
  21197906.141   -22330980.54143 -17363928.91442  21197907.575    21197904.418
  23545418.241   -10085925.34643  -7678681.85742  23545419.086    23545416.735
 03 12 26  1 29 30.0000000  0  7G17G30G 5G21G10G 6G24
  21098753.807   -22590804.17143 -17589969.28942  21098754.312    21098751.651
  20413589.757   -25776393.92344 -20072065.87242  20413591.528    20413587.692
  22201142.625   -17454861.10343 -13566726.92642  22201143.441    22201141.004
  22815417.131   -15622737.61843 -12167615.09442  22815418.233    22815414.603
  21131412.749   -22555505.79643 -17569249.93642  21131413.394    21131410.559
  21188398.381   -22380944.00543 -17402861.45742  21188399.814    21188396.651
  23561191.148   -10003038.25443  -7614094.50142  23561191.940    23561189.625
 03 12 26  1 30  0.0000000  0  7G17G30G 5G21G10G 6G24
  21106769.309   -22548682.35644 -17557147.07742  21106769.813    21106767.150
  20420434.547   -25740424.33844 -20044037.61642  20420436.320    20420432.464
  22218951.516   -17361274.84243 -13493802.58142  22218952.338    22218949.877
  22801815.886   -15694212.37543 -12223309.65442  22801816.976    22801813.401
  21136960.437   -22526352.57043 -17546533.11342  21136961.056    21136958.208
  21178924.465   -22430729.51543 -17441655.32942  21178925.905    21178922.765
  23576965.117    -9920145.50743  -7549502.73742  23576965.927    23576963.594
 03 12 26  1 30 30.0000000  0  7G17G30G 5G21G10G 6G24
  21114830.404   -22506321.10943 -17524138.30042  21114830.873    21114828.198
  20427386.883   -25703889.51844 -20015568.91742  20427388.648    20427384.792
  22236813.420   -17267410.01943 -13420661.17642  22236814.258    22236811.763
  22788256.561   -15765466.84243 -12278832.56342  22788257.681    22788253.953
  21142624.418   -22496588.07243 -17523339.98042  21142625.065    21142622.166
  21169485.657   -22480330.73843 -17480305.60442  21169487.073    21169483.924
  23592740.851    -9837243.46743  -7484903.71742  23592741.671    23592739.323
 03 12 26  1 31  0.0000000  0  7G17G30G 5G21G10G 6G24
  21122936.125   -22463725.02244 -17490946.52742  21122936.624    21122933.950
  20434445.938   -25666793.79144 -19986663.15242  20434447.718    20434443.881
  22254727.257   -17173272.38943 -13347307.19142  22254728.100    22254725.560
  22774738.657   -15836503.72343 -12334185.92842  22774739.797    22774736.074
  21148403.932   -22466216.52643 -17499673.81842  21148404.559    21148401.660
  21160081.576   -22529749.50443 -17518813.70442  21160082.970    21160079.821
  23608517.529    -9754336.48243  -7420300.85442  23608518.281    23608515.986
 03 12 26  1 31 30.0000000  0  7G17G30G 5G21G10G 6G24
  21131087.097   -22420891.42244 -17457569.68242  21131087.581    21131084.887
  20441612.271   -25629134.39244 -19957318.16042  20441614.044    20441610.201
  22272693.297   -17078860.10843 -13273739.19642  22272694.154    22272691.638
  22761262.987   -15907318.62343 -12389366.31442  22761264.133    22761260.421
  21154299.529   -22435234.88443 -17475532.26342  21154300.160    21154297.258
  21150713.260   -22578980.19743 -17557175.25242  21150714.644    21150711.492
  23624295.657    -9671421.60043  -7355691.84342  23624296.412    23624294.107
 03 12 26  1 32  0.0000000  0  7G17G30G 5G21G10G 6G24
  21139281.561   -22377829.13444 -17424014.63742  21139282.056    21139279.352
  20448884.282   -25590919.81344 -19927540.56342  20448886.045    20448882.204
  22290709.794   -16984182.97543 -13199964.81942  22290710.638    22290708.098
  22747828.225   -15977918.82843 -12444379.42242  22747829.380    22747825.505
  21160309.447   -22403652.42543 -17450922.53642  21160310.079    21160307.172
  21141379.597   -22628028.82143 -17595394.92642  21141380.978    21141377.805
  23640073.687    -9588507.32043  -7291083.27842  23640074.512    23640072.166
 03 12 26  1 32 30.0000000  0  7G17G30G 5G21G10G 6G24
  21147520.683   -22334532.22744 -17390276.76842  21147521.177    21147518.450
  20456263.062   -25552144.07344 -19897325.69442  20456264.819    20456260.976
  22308777.522   -16889236.44643 -13125980.52442  22308778.371    22308775.829
  22734435.727   -16048296.54943 -12499219.14242  22734436.879    22734433.123
  21166434.923   -22371462.81843 -17425839.70642  21166435.545    21166432.645
  21132082.208   -22676886.74244 -17633466.00242  21132083.616    21132080.417
  23655852.847    -9505587.07543  -7226470.08342  23655853.705    23655851.356
 03 12 26  1 33  0.0000000  0  7G17G30G 5G21G10G 6G24
  21155803.303   -22291006.71044 -17356360.76742  21155803.818    21155801.068
  20463747.480   -25512813.17144 -19866678.23142  20463749.227    20463745.378
  22326895.133   -16794027.64943 -13051791.86942  22326896.013    22326893.460
  22721084.758   -16118456.48343 -12553889.17442  22721085.896    22721082.070
  21172674.742   -22338672.16443 -17400288.53042  21172675.365    21172672.488
  21122820.451   -22725557.46143 -17671391.21042  21122821.858    21122818.650
  23671632.031    -9422666.76243  -7161856.81742  23671632.916    23671630.571
 03 12 26  1 33 30.0000000  0  7G17G30G 5G21G10G 6G24
  21164129.739   -22247250.95143 -17322265.35342  21164130.269    21164127.501
  20471337.935   -25472925.07944 -19835596.59542  20471339.673    20471335.829
  22345062.799   -16698556.03643 -12977398.41542  22345063.669    22345061.135
  22707775.769   -16188395.30143 -12608386.91242  22707776.884    22707773.060
  21179029.322   -22305278.48743 -17374267.46042  21179029.966    21179027.077
  21113595.213   -22774036.28744 -17709166.89242  21113596.634    21113593.404
  23687411.604    -9339744.52443  -7097242.07742  23687412.472    23687410.104
 03 12 26  1 34  0.0000000  0  7G17G30G 5G21G10G 6G24
  21172499.463   -22203267.75944 -17287992.72242  21172499.995    21172497.193
  20479033.845   -25432482.81744 -19804083.13842  20479035.574    20479031.707
  22363279.662   -16602825.89443 -12902803.51542  22363280.487    22363277.981
  22694508.754   -16258114.05643 -12662713.15942  22694509.845    22694506.137
  21185497.966   -22271285.42643 -17347779.34442  21185498.600    21185495.736
  21104406.424   -22822323.57744 -17746793.32842  21104407.840    21104404.606
  23703191.046    -9256822.92643  -7032627.82742  23703191.945    23703189.581
 03 12 26  1 34 30.0000000  0  7G17G30G 5G21G10G 6G24
  21180912.415   -22159057.36343 -17253543.04742  21180912.943    21180910.149
  20486835.209   -25391486.43744 -19772137.90142  20486836.939    20486833.076
  22381545.480   -16506838.43143 -12828008.10442  22381546.280    22381543.816
  22681283.778   -16327611.33443 -12716866.83542  22681284.869    22681281.123
  21192080.724   -22236692.71443 -17320823.96642  21192081.340    21192078.501
  21095254.643   -22870416.44044 -17784268.25942  21095256.063    21095252.814
  23718970.375    -9173901.77343  -6968013.91942  23718971.335    23718968.939
 03 12 26  1 35  0.0000000  0  7G17G30G 5G21G10G 6G24
  21189368.147   -22114622.13643 -17218918.18242  21189368.675    21189365.889
  20494741.573   -25349938.15844 -19739762.61142  20494743.326    20494739.444
  22399859.635   -16410596.76343 -12753014.61342  22399860.457    22399858.041
  22668100.926   -16396887.78143 -12770848.44042  22668101.969    22668098.213
  21198777.130   -22201502.70143 -17293403.15842  21198777.755    21198774.915
  21086139.932   -22918314.51844 -17821591.40842  21086141.363    21086138.085
  23734749.256    -9090983.06143  -6903401.90442  23734750.232    23734747.819
 03 12 26  1 35 30.0000000  0  7G17G30G 5G21G10G 6G24
  21197865.540   -22069967.80643 -17184122.58742  21197866.080    21197863.304
  20502751.872   -25307843.82744 -19706961.82742  20502753.615    20502749.730
  22418220.794   -16314108.23243 -12677828.75342  22418221.624    22418219.185
  22654959.195   -16465947.79443 -12824661.37342  22654960.227    22654956.586
  21205586.066   -22165721.56343 -17265521.73342  21205586.666    21205583.815
  21077061.704   -22966020.93944 -17858765.21442  21077063.136    21077059.832
  23750526.691    -9008072.27943  -6838796.07942  23750527.594    23750525.198
 03 12 26  1 36  0.0000000  0  7G17G30G 5G21G10G 6G24
  21206405.766   -22025088.63843 -17149151.79642  21206406.281    21206403.518
  20510867.085   -25265197.92944 -19673731.25242  20510868.850    20510864.968
  22436629.806   -16217368.39043 -12602447.07542  22436630.644    22436628.206
  22641860.157   -16534783.81543 -12878299.79842  22641861.163    22641857.367
  21212508.525   -22129343.79443 -17237175.40442  21212509.138    21212506.253
  21068021.541   -23013527.27044 -17895783.11242  21068022.968    21068019.639
  23766303.730    -8925163.33943  -6774191.67942  23766304.646    23766302.208
 03 12 26  1 36 30.0000000  0  7G17G30G 5G21G10G 6G24
  21214988.152   -21979987.89143 -17114008.34742  21214988.644    21214985.889
  20519086.722   -25222003.36144 -19640073.14042  20519088.485    20519084.604
  22455085.832   -16120381.24443 -12526872.68742  22455086.682    22455084.277
  22628803.351   -16603397.49643 -12931764.94842  22628804.391    22628800.677
  21219543.970   -22092372.15343 -17208366.31342  21219544.597    21219541.691
  21059019.426   -23060833.62044 -17932645.18042  21059020.838    21059017.514
  23782079.843    -8842259.20043  -6709591.03442  23782080.766    23782078.278
 03 12 26  1 37  0.0000000  0  7G17G30G 5G21G10G 6G24
  21223612.378   -21934667.34143 -17078693.62442  21223612.850    21223610.088
  20527410.399   -25178262.25744 -19605989.15542  20527412.151    20527408.261
  22473588.341   -16023150.15243 -12451108.21242  22473589.160    22473586.744
  22615788.857   -16671789.10243 -12985057.06042  22615789.919    22615786.177
  21226691.982   -22054809.08343 -17179096.37342  21226692.603    21226689.678
  21050055.515   -23107939.21144 -17969350.80642  21050056.913    21050053.596
  23797854.753    -8759361.31143  -6644995.24742  23797855.710    23797853.224
 03 12 26  1 37 30.0000000  0  7G17G30G 5G21G10G 6G24
  21232278.189   -21889128.19143 -17043208.56242  21232278.636    21232275.892
  20535837.820   -25133975.84144 -19571480.25342  20535839.567    20535835.662
  22492136.788   -15925677.45443 -12375155.47242  22492137.622    22492135.228
  22602816.726   -16739958.03643 -13038175.67542  22602817.767    22602813.924
  21233952.273   -22016656.05343 -17149366.72342  21233952.881    21233949.940
  21041130.104   -23154842.44044 -18005898.74242  21041131.515    21041128.194
  23813628.441    -8676470.26843  -6580404.80042  23813629.315    23813626.867
 03 12 26  1 38  0.0000000  0  7G17G30G 5G21G10G 6G24
  21240984.099   -21843378.35343 -17007559.32542  21240984.542    21240981.788
  20544367.508   -25089152.06344 -19536552.62842  20544369.243    20544365.358
  22510729.446   -15827972.34243 -12299021.63042  22510730.276    22510727.861
  22589885.705   -16807910.68843 -13091125.73242  22589886.773    22589883.018
  21241323.303   -21977920.95543 -17119183.51242  21241323.915    21241320.958
  21032242.199   -23201548.50544 -18042293.05042  21032243.618    21032240.294
  23829399.363    -8593593.38043  -6515825.38342  23829400.254    23829397.850
 03 12 26  1 38 30.0000000  0  7G17G30G 5G21G10G 6G24
  21249732.083   -21797407.39443 -16971737.79042  21249732.520    21249729.786
  20553001.420   -25043780.60744 -19501198.24042  20553003.152    20552999.237
  22529368.165   -15730025.31143 -12222699.28942  22529368.970    22529366.586
  22576998.080   -16875635.27843 -13143898.10842  22576999.158    22576995.343
  21248806.956   -21938594.01443 -17088539.12642  21248807.548    21248804.606
  21023394.334   -23248044.11744 -18078523.36942  21023395.744    21023392.451
  23845169.625    -8510720.05043  -6451248.75142  23845170.535    23845168.061
 03 12 26  1 39  0.0000000  0  7G17G30G 5G21G10G 6G24
  21258520.155   -21751225.83843 -16935752.15042  21258520.579    21258517.813
  20561737.475   -24997872.26544 -19465425.50042  20561739.215    20561735.322
  22548050.678   -15631848.13643 -12146197.59942  22548051.481    22548049.064
  22564152.185   -16943140.68843 -13196499.67842  22564153.236    22564149.486
  21256401.194   -21898685.90043 -17057441.88042  21256401.793    21256398.864
  21014585.044   -23294337.03244 -18114595.73742  21014586.475    21014583.167
  23860937.287    -8427860.60443  -6386682.92142  23860938.175    23860935.669
 03 12 26  1 39 30.0000000  0  7G17G30G 5G21G10G 6G24
  21267348.788   -21704831.02343 -16899600.33142  21267349.202    21267346.449
  20570576.153   -24951424.78344 -19429232.65142  20570577.879    20570573.971
  22566777.168   -15533439.79043 -12069515.78442  22566777.970    22566775.561
  22551348.809   -17010422.74743 -13248927.20242  22551349.819    22551346.128
  21264106.444   -21858194.45443 -17025890.08442  21264107.061    21264104.101
  21005815.331   -23340421.90444 -18150506.00042  21005816.782    21005813.492
  23876702.816    -8345012.05643  -6322125.59442  23876703.689    23876701.183
 03 12 26  1 40  0.0000000  0  7G17G30G 5G21G10G 6G24
  21276217.681   -21658224.59143 -16863283.62142  21276218.103    21276215.362
  20579517.119   -24904439.71544 -19392620.90542  20579518.847    20579514.920
  22585547.122   -15434802.97643 -11992655.94942  22585547.945    22585545.523
  22538587.874   -17077481.69243 -13301180.88842  22538588.837    22538585.132
  21271922.382   -21817121.43943 -16993885.12342  21271922.980    21271920.019
  20997085.519   -23386297.29444 -18186253.03242  20997086.961    20997083.679
  23892466.035    -8262175.58143  -6257577.65542  23892466.894    23892464.406
 03 12 26  1 40 30.0000000  0  8G29G17G30G 5G21G10G 6G24
  24585066.692    -5300877.82853  -4109434.60652  24585068.361    24585066.157
  21285125.763   -21611412.25743 -16826806.46542  21285126.170    21285123.439
  20588559.264   -24856922.94544 -19355594.84642  20588560.992    20588557.048
  22604359.337   -15335944.23543 -11915623.17642  22604360.169    22604357.742
  22525868.706   -17144321.18843 -13353263.57642  22525869.698    22525865.987
  21279847.873   -21775472.61243 -16961431.47842  21279848.481    21279845.517
  20988395.039   -23431966.05744 -18221839.05442  20988396.470    20988393.195
  23908226.120    -8179356.19443  -6193043.04742  23908226.863    23908224.409
 03 12 26  1 41  0.0000000  0  8G29G17G30G 5G21G10G 6G24
  24571737.228    -5370924.83743  -4164016.63742  24571738.792    24571736.638
  21294074.204   -21564387.82143 -16790164.03342  21294074.634    21294071.881
  20597703.653   -24808868.76244 -19318150.02242  20597705.390    20597701.441
  22623214.700   -15236858.62943 -11838413.63242  22623215.520    22623213.129
  22513192.631   -17210934.09843 -13405169.68742  22513193.618    22513189.889
  21287883.994   -21733242.44743 -16928524.83942  21287884.611    21287881.634
  20979745.577   -23477419.38744 -18257257.20742  20979746.987    20979743.687
  23923984.095    -8096547.70943  -6128516.93242  23923984.754    23923982.299
 03 12 26  1 41 30.0000000  0  8G29G17G30G 5G21G10G 6G24
  24558427.030    -5440870.31543  -4218519.56342  24558428.682    24558426.582
  21303061.871   -21517157.13143 -16753360.88542  21303062.287    21303059.565
  20606949.175   -24760283.13244 -19280291.08642  20606950.927    20606946.957
  22642111.729   -15137553.96843 -11761033.38742  22642112.540    22642110.181
  22500558.916   -17277324.55143 -13456902.47642  22500559.935    22500556.088
  21296029.526   -21690437.33543 -16895170.19342  21296030.132    21296027.161
  20971136.551   -23522660.15344 -18292509.72242  20971137.947    20971134.632
  23939738.988    -8013755.17843  -6064003.24942  23939739.635    23939737.201
 03 12 26  1 42  0.0000000  0  8G29G17G30G 5G21G10G 6G24
  24545136.866    -5510710.38243  -4272940.34442  24545138.629    24545136.436
  21312088.809   -21469720.27143 -16716397.08642  21312089.211    21312086.496
  20616295.677   -24711166.75344 -19242018.57642  20616297.442    20616293.487
  22661050.296   -15038031.31543 -11683483.29242  22661051.067    22661048.744
  22487967.819   -17343491.01443 -13508460.70442  22487968.822    22487965.064
  21304284.377   -21647057.69843 -16861367.86342  21304284.986    21304282.015
  20962568.408   -23567685.95244 -18327594.73342  20962569.803    20962566.489
  23955490.769    -7930978.78643  -5999502.13842  23955491.414    23955488.969
 03 12 26  1 42 30.0000000  0  8G29G17G30G 5G21G10G 6G24
  24531867.768    -5580439.76943  -4327274.86442  24531869.573    24531867.365
  21321155.121   -21422076.27743 -16679271.88342  21321155.566    21321152.837
  20625743.351   -24661518.81344 -19203331.86742  20625745.098    20625741.156
  22680030.308   -14938290.86143 -11605763.46842  22680031.067    22680028.739
  22475419.768   -17409431.41443 -13559842.80542  22475420.783    22475416.905
  21312648.616   -21603103.08643 -16827117.49842  21312649.224    21312646.285
  20954041.914   -23612492.88144 -18362509.20342  20954043.305    20954039.969
  23971239.778    -7848217.08343  -5935012.47842  23971240.475    23971237.946
 03 12 26  1 43  0.0000000  0  8G29G17G30G 5G21G10G 6G24
  24518618.918    -5650062.52643  -4381526.30942  24518620.734    24518618.613
  21330259.262   -21374233.64543 -16641991.89342  21330259.696    21330256.970
  20635290.532   -24611348.07644 -19164237.78142  20635292.271    20635288.350
  22699049.880   -14838342.32443 -11527881.50642  22699050.642    22699048.312
  22462913.463   -17475152.31943 -13611053.85542  22462914.474    22462910.672
  21321120.556   -21558582.58543 -16792426.18342  21321121.172    21321118.254
  20945555.977   -23657086.59544 -18397257.52142  20945557.393    20945554.033
  23986984.533    -7765477.47843  -5870540.03642  23986985.288    23986982.766
 03 12 26  1 43 30.0000000  0  8G29G17G30G 5G21G10G 6G24
  24505392.235    -5719568.72343  -4435686.90542  24505394.165    24505391.954
  21339402.270   -21326186.81243 -16604552.78642  21339402.711    21339399.973
  20644938.147   -24560649.42144 -19124732.33142  20644939.890    20644935.953
  22718109.880   -14738181.25743 -11449833.93942  22718110.668    22718108.320
  22450450.212   -17540646.91843 -13662088.57342  22450451.251    22450447.435
  21329701.192   -21513490.96043 -16757289.83342  21329701.800    21329698.885
  20937112.180   -23701458.90144 -18431833.31742  20937113.593    20937110.222
  24002726.174    -7682754.44443  -5806080.50442  24002726.927    24002724.410
 03 12 26  1 44  0.0000000  0  8G29G17G30G 5G21G10G 6G24
  24492187.383    -5788960.38943  -4489758.28042  24492189.154    24492186.841
  21348582.984   -21277941.82543 -16566959.27442  21348583.435    21348580.654
  20654684.956   -24509429.50944 -19084820.70842  20654686.718    20654682.780
  22737208.862   -14637815.63743 -11371626.98142  22737209.651    22737207.299
  22438029.223   -17605919.58643 -13712950.35342  22438030.247    22438026.374
  21338389.223   -21467834.94343 -16721713.69942  21338389.839    21338386.929
  20928709.896   -23745613.03744 -18466239.10942  20928711.304    20928707.934
  24018463.669    -7600053.54043  -5741638.21142  24018464.339    24018461.893
 03 12 26  1 44 30.0000000  0  8G29G17G30G 5G21G10G 6G24
  24479006.041    -5858228.56543  -4543733.40242  24479007.781    24479005.347
  21357802.254   -21229494.23743 -16529207.89342  21357802.686    21357799.924
  20664531.782   -24457684.08644 -19044499.59742  20664533.540    20664529.595
  22756347.480   -14537241.64643 -11293257.64942  22756348.281    22756345.871
  22425651.422   -17670964.80543 -13763634.88942  22425652.472    22425648.697
  21347185.435   -21421610.53343 -16685694.66342  21347186.039    21347183.130
  20920350.500   -23789541.75944 -18500469.25642  20920351.915    20920348.568
  24034197.863    -7517369.95443  -5677209.42342  24034198.491    24034196.154
 03 12 26  1 45  0.0000000  0  8G29G17G30G 5G21G10G 6G24
  24465847.440    -5927377.45343  -4597615.59842  24465849.088    24465846.617
  21367058.366   -21180852.81443 -16491305.46942  21367058.833    21367056.066
  20674476.852   -24405422.47244 -19003776.25742  20674478.611    20674474.642
  22775523.733   -14436469.68143 -11214734.06242  22775524.581    22775522.150
  22413315.689   -17735789.53143 -13814147.63342  22413316.731    22413312.846
  21356087.991   -21374827.15243 -16649240.05942  21356088.611    21356085.703
  20912032.889   -23833250.90044 -18534528.30042  20912034.312    20912030.954
  24049927.197    -7434711.81943  -5612800.46342  24049927.731    24049925.448
 03 12 26  1 45 30.0000000  0  8G29G17G30G 5G21G10G 6G24
  24452713.298    -5996397.67743  -4651397.50842  24452714.927    24452712.458
  21376352.421   -21132012.04843 -16453247.71642  21376352.909    21376350.135
  20684521.087   -24352639.73344 -18962646.84742  20684522.839    20684518.845
  22794738.503   -14335495.58543 -11136052.96742  22794739.353    22794736.857
  22401023.098   -17800387.09343 -13864483.34842  22401024.142    22401020.357
  21365097.837   -21327480.01843 -16612346.17242  21365098.473    21365095.559
  20903758.657   -23876732.24044 -18568409.83442  20903760.078    20903756.709
  24065652.708    -7352073.64743  -5548407.05642  24065653.243    24065650.971
 03 12 26  1 46  0.0000000  0  8G29G17G30G 5G21G10G 6G24
  24439603.244    -6065291.09043  -4705080.62342  24439604.888    24439602.548
  21385683.190   -21082978.42843 -16415039.68342  21385683.668    21385680.908
  20694663.191   -24299342.64144 -18921116.64042  20694664.964    20694660.946
  22813990.303   -14234327.03243 -11057220.34142  22813991.126    22813988.630
  22388772.949   -17864762.27143 -13914645.79042  22388773.954    22388770.103
  21374213.656   -21279575.94343 -16575018.29842  21374214.294    21374211.379
  20895527.126   -23919989.24244 -18602116.56642  20895528.530    20895525.150
  24081373.440    -7269460.89343  -5484033.46842  24081373.889    24081371.655
 03 12 26  1 46 30.0000000  0  8G29G17G30G 5G21G10G 6G24
  24426518.447    -6134052.20543  -4758660.64042  24426520.078    24426517.832
  21395050.964   -21033750.54443 -16376680.27742  21395051.427    21395048.647
  20704903.314   -24245530.44344 -18879185.05642  20704905.078    20704901.060
  22833279.137   -14132963.60243 -10978235.86342  22833279.941    22833277.452
  22376565.545   -17928912.37543 -13964632.84742  22376566.557    22376562.727
  21383435.556   -21231114.57243 -16537256.17142  21383436.173    21383433.247
  20887339.020   -23963017.90144 -18635645.36642  20887340.446    20887337.043
  24097089.593    -7186872.01843  -5419678.48042  24097090.083    24097087.751
 03 12 26  1 47  0.0000000  0  8G29G17G30G 5G21G10G 6G24
  24413459.918    -6202675.05243  -4812132.92142  24413461.577    24413459.404
  21404455.949   -20984326.87943 -16338168.31442  21404456.421    21404453.663
  20715241.599   -24191202.18044 -18836851.34242  20715243.373    20715239.354
  22852605.004   -14031405.70943 -10899099.86642  22852605.796    22852603.304
  22364401.420   -17992835.07543 -14014442.70442  22364402.458    22364398.604
  21392763.614   -21182095.15843 -16499059.20642  21392764.249    21392761.324
  20879195.191   -24005813.90144 -18668992.87442  20879196.603    20879193.190
  24112801.526    -7104305.05443  -5355340.57542  24112801.979    24112799.743
 03 12 26  1 47 30.0000000  0  8G29G17G30G 5G21G10G 6G24
  24400426.978    -6271163.61343  -4865500.56242  24400428.560    24400426.393
  21413896.657   -20934715.60743 -16299510.16642  21413897.104    21413894.348
  20725676.453   -24136366.66444 -18794122.36742  20725678.228    20725674.198
  22871966.072   -13929662.80643 -10819819.69642  22871966.859    22871964.319
  22352279.481   -18056536.07643 -14064079.80442  22352280.514    22352276.622
  21402196.240   -21132526.49743 -16460434.25842  21402196.845    21402193.888
  20871094.602   -24048382.66644 -18702163.31342  20871096.007    20871092.593
  24128507.935    -7021767.54343  -5291025.60242  24128508.298    24128506.090
 03 12 26  1 48  0.0000000  0  9G29G17G30G 5G21G10G 6G18G24
  24387418.529    -6339523.08143  -4918767.61342  24387420.109    24387417.911
  21423371.244   -20884926.26643 -16260713.26142  21423371.682    21423368.938
  20736205.896   -24081034.06544 -18751006.05442  20736207.666    20736203.651
  22891360.316   -13827745.38543 -10740403.55242  22891361.095    22891358.610
  22340198.104   -18120024.08943 -14113550.94342  22340199.156    22340195.248
  21411731.440   -21082418.65543 -16421389.16742  21411732.064    21411729.078
  20863035.987   -24090730.93544 -18735161.93342  20863037.381    20863033.949
  24778211.360    -4498342.36353  -3464026.82252  24778213.080    24778210.700
  24144206.958    -6939268.58543  -5226740.68642  24144207.231    24144205.104
 03 12 26  1 48 30.0000000  0  9G29G17G30G 5G21G10G 6G18G24
  24374440.010    -6407724.96643  -4971911.86842  24374441.541    24374439.370
  21432884.265   -20834934.78343 -16221758.84642  21432884.729    21432881.996
  20746834.427   -24025180.75044 -18707483.98842  20746836.173    20746832.178
  22910792.093   -13725630.75143 -10660833.70842  22910792.862    22910790.389
  22328162.001   -18183273.93443 -14162836.49942  22328163.058    22328159.128
  21421373.667   -21031748.32243 -16381905.77142  21421374.303    21421371.302
  20855024.442   -24132831.68144 -18767967.68742  20855025.841    20855022.408
  24757072.959    -4609425.75143  -3550585.16542  24757074.626    24757072.236
  24159903.330    -6856783.56043  -5162466.62042  24159903.594    24159901.440
 03 12 26  1 49  0.0000000  0  9G29G17G30G 5G21G10G 6G18G24
  24361489.758    -6475778.78943  -5024940.77342  24361491.338    24361489.006
  21442433.165   -20784754.95243 -16182657.66342  21442433.613    21442430.889
  20757559.271   -23968821.29744 -18663567.53342  20757561.028    20757557.027
  22930258.521   -13623334.21743 -10581122.15442  22930259.271    22930256.848
  22316168.964   -18246297.64043 -14211945.84542  22316170.037    22316166.088
  21431120.149   -20980530.26943 -16341995.58242  21431120.761    21431117.758
  20847057.840   -24174696.20444 -18800589.37042  20847059.256    20847055.842
  24735938.633    -4720485.97743  -3637125.36442  24735940.370    24735937.950
  24175594.464    -6774325.93843  -5098213.91842  24175594.783    24175592.588
 03 12 26  1 49 30.0000000  0  9G29G17G30G 5G21G10G 6G18G24
  24348567.428    -6543685.66943  -5077855.16142  24348568.813    24348566.675
  21452016.933   -20734392.03743 -16143413.81742  21452017.353    21452014.602
  20768379.266   -23911961.81844 -18619261.44342  20768381.026    20768377.010
  22949758.197   -13520862.66043 -10501274.20042  22949758.949    22949756.522
  22304218.153   -18309099.58643 -14260882.38742  22304219.193    22304215.218
  21440969.637   -20928770.85443 -16301663.55042  21440970.245    21440967.228
  20839135.732   -24216327.01544 -18833028.93642  20839137.144    20839133.715
  24714808.949    -4831524.02643  -3723648.60342  24714810.557    24714807.437
  24191279.543    -6691900.63243  -5033986.38742  24191279.812    24191277.702
 03 12 26  1 50  0.0000000  0  9G29G17G30G 5G21G10G 6G18G24
  24335674.119    -6611439.74143  -5130650.46642  24335675.644    24335673.427
  21461635.808   -20683844.42743 -16104026.05542  21461636.235    21461633.467
  20779294.651   -23854601.07044 -18574564.75842  20779296.411    20779292.405
  22969291.376   -13418215.41243 -10421289.36242  22969292.099    22969289.730
  22292310.133   -18371676.50943 -14309643.58542  22292311.179    22292307.176
  21450922.378   -20876468.74643 -16260908.64342  21450922.989    21450919.969
  20831259.018   -24257719.39244 -18865282.71442  20831260.415    20831256.984
  24693684.120    -4942534.86443  -3810150.36342  24693685.765    24693682.889
  24206958.741    -6609505.31643  -4969782.22742  24206959.105    24206956.902
 03 12 26  1 50 30.0000000  0  9G29G17G30G 5G21G10G 6G18G24
  24322811.132    -6679034.62143  -5183321.70742  24322812.679    24322810.511
  21471290.200   -20633110.16643 -16064492.85042  21471290.635    21471287.855
  20790305.646   -23796737.88144 -18529476.56042  20790307.381    20790303.424
  22988857.970   -13315392.13443 -10341167.33842  22988858.695    22988856.343
  22280445.620   -18434024.89943 -14358226.70642  22280446.658    22280442.628
  21460978.594   -20823623.00043 -16219730.12442  21460979.213    21460976.167
  20823428.574   -24298868.68744 -18897347.07542  20823429.953    20823426.522
  24672565.495    -5053512.54343  -3896626.27142  24672567.274    24672564.405
  24222632.594    -6527137.54643  -4905599.53042  24222633.167    24222630.985
 03 12 26  1 51  0.0000000  0  9G29G17G30G 5G21G10G 6G18G24
  24309977.876    -6746473.61543  -5235871.48542  24309979.339    24309977.137
  21480978.704   -20582196.59843 -16024819.92742  21480979.174    21480976.348
  20801410.670   -23738380.57544 -18484003.33642  20801412.417    20801408.430
  23008456.494   -13212401.29643 -10260914.76142  23008457.241    23008454.916
  22268623.332   -18496151.07143 -14406636.66742  22268624.386    22268620.334
  21471136.706   -20770241.74843 -16178134.32442  21471137.333    21471134.276
  20815643.424   -24339779.65844 -18929225.73142  20815644.843    20815641.374
  24651452.676    -5164461.56843  -3983080.06342  24651454.253    24651451.335
  24238300.088    -6444804.02343  -4841443.51642  24238300.675    24238298.468
 03 12 26  1 51 30.0000000  0  9G29G17G30G 5G21G10G 6G18G24
  24297175.989    -6813747.85443  -5288292.85542  24297177.424    24297175.295
  21490702.162   -20531099.48843 -15985003.98042  21490702.613    21490699.800
  20812610.474   -23679525.31844 -18438142.09742  20812612.197    20812608.200
  23028087.419   -13109240.12043 -10180529.44242  23028088.188    23028085.793
  22256844.587   -18558049.00243 -14454868.78442  22256845.631    22256841.551
  21481397.317   -20716321.59243 -16136118.59542  21481397.963    21481394.928
  20807905.090   -24380444.93444 -18960912.94042  20807906.464    20807903.010
  24630346.557    -5275373.68043  -4069504.90342  24630348.167    24630345.670
  24253961.906    -6362500.35343  -4777310.76642  24253962.471    24253960.241
 03 12 26  1 52  0.0000000  0  9G29G17G30G 5G21G10G 6G18G24
  24284405.188    -6880858.05343  -5340586.42542  24284406.837    24284404.622
  21500459.616   -20479823.53243 -15945048.67142  21500460.100    21500457.261
  20823903.908   -23620177.89144 -18391897.34942  20823905.642    20823901.667
  23047749.629   -13005914.76943 -10100016.21842  23047750.350    23047748.061
  22245108.410   -18619722.52943 -14502926.03842  22245109.472    22245105.386
  21491759.371   -20661868.43643 -16093687.54642  21491760.021    21491757.028
  20800213.095   -24420866.51044 -18992410.24742  20800214.486    20800211.014
  24609247.502    -5386249.88843  -4155901.87342  24609249.155    24609246.491
  24269617.313    -6280230.46643  -4713204.33642  24269617.871    24269615.700
 03 12 26  1 52 30.0000000  0  9G29G17G30G 5G21G10G 6G18G24
  24271665.770    -6947803.91543  -5392751.95342  24271667.508    24271665.001
  21510250.441   -20428372.49443 -15904956.93642  21510250.914    21510248.042
  20835290.149   -23560342.75444 -18345272.56942  20835291.892    20835287.913
  23067442.045   -12902430.66143 -10019379.25442  23067442.822    23067440.386
  22233414.597   -18681174.01143 -14550810.26942  22233415.668    22233411.571
  21502221.968   -20606886.97043 -16050844.82642  21502222.625    21502219.648
  20792567.234   -24461045.51344 -19023718.53642  20792568.651    20792565.185
  24588155.084    -5497090.48643  -4242271.09842  24588156.842    24588154.210
  24285265.561    -6197997.85143  -4649126.95342  24285266.119    24285264.042
 03 12 26  1 53  0.0000000  0  9G29G17G30G 5G21G10G 6G18G24
  24258959.685    -7014574.53143  -5444780.92042  24258961.602    24258958.923
  21520075.758   -20376739.94443 -15864723.76142  21520076.244    21520073.367
  20846770.265   -23500014.24043 -18298263.33942  20846772.023    20846768.076
  23087165.629   -12798782.49143  -9938614.47942  23087166.413    23087164.078
  22221764.363   -18742396.28743 -14598515.90342  22221765.421    22221761.264
  21512786.198   -20551371.46943 -16007585.97842  21512786.828    21512783.873
  20784969.359   -24500972.69444 -19054830.59542  20784970.752    20784967.263
  24567071.522    -5607885.46243  -4328604.77242  24567073.163    24567070.457
  24300908.095    -6115795.51143  -4585073.16142  24300908.776    24300906.601
 03 12 26  1 53 30.0000000  0  9G29G17G30G 5G21G10G 6G18G24
  24246286.179    -7081173.46243  -5496676.08642  24246288.165    24246285.465
  21529934.170   -20324933.54743 -15824355.12442  21529934.651    21529931.779
  20858342.618   -23439201.00043 -18250876.40542  20858344.374    20858340.429
  23106918.715   -12694979.23543  -9857728.83842  23106919.514    23106917.129
  22210156.657   -18803395.05243 -14646047.36642  22210157.722    22210153.568
  21523450.352   -20495330.83943 -15963917.93942  21523450.984    21523448.033
  20777418.396   -24540653.14544 -19085750.40642  20777419.806    20777416.322
  24545995.601    -5718639.44943  -4414906.48242  24545997.163    24545994.654
  24316543.508    -6033630.68943  -4521048.59842  24316544.229    24316542.042
 03 12 26  1 54  0.0000000  0  9G29G17G30G 5G21G10G 6G18G24
  24233646.147    -7147597.13943  -5548434.71742  24233647.832    24233645.277
  21539825.494   -20272954.24943 -15783851.75842  21539825.966    21539823.083
  20870006.907   -23377904.71043 -18203113.06242  20870008.652    20870004.726
  23126700.931   -12591023.35243  -9776724.27942  23126701.729    23126699.394
  22198591.563   -18864169.99843 -14693404.43442  22198592.609    22198588.423
  21534214.054   -20438766.91743 -15919842.13742  21534214.709    21534211.764
  20769914.806   -24580084.67844 -19116476.25342  20769916.210    20769912.723
  24524928.354    -5829348.81443  -4501173.53242  24524929.797    24524927.146
  24332171.809    -5951503.37643  -4457053.27342  24332172.558    24332170.308
 03 12 26  1 54 30.0000000  0  9G29G17G30G 5G21G10G 6G18G24
  24221041.174    -7213836.21443  -5600049.49442  24221042.881    24221040.278
  21549750.769   -20220796.57643 -15743209.39742  21549751.219    21549748.341
  20881763.973   -23316120.93244 -18154969.86242  20881765.698    20881761.789
  23146512.807   -12486910.65043  -9695597.51742  23146513.671    23146511.307
  22187070.219   -18924714.63643 -14740582.02842  22187071.289    22187067.131
  21545078.182   -20381675.43443 -15875355.24942  21545078.838    21545075.894
  20762460.117   -24619259.22044 -19147001.84242  20762461.507    20762458.024
  24503871.013    -5940005.16143  -4587399.14942  24503872.540    24503869.846
  24347794.064    -5869407.79243  -4393082.66842  24347794.785    24347792.485
 03 12 26  1 55  0.0000000  0  9G29G17G30G 5G21G10G 6G18G24
  24208470.304    -7279895.75443  -5651524.37342  24208472.140    24208469.415
  21559708.158   -20168470.04243 -15702435.45142  21559708.623    21559705.724
  20893611.803   -23253860.07943 -18106454.91342  20893613.546    20893609.645
  23166352.655   -12382652.11643  -9614357.12142  23166353.495    23166351.128
  22175591.285   -18985037.17343 -14787586.57042  22175592.300    22175588.083
  21556040.790   -20324066.64343 -15830465.26542  21556041.416    21556038.463
  20755053.085   -24658183.32944 -19177332.29042  20755054.487    20755050.985
  24482822.994    -6050614.15043  -4673587.96642  24482824.389    24482821.521
  24363408.611    -5787352.65143  -4329143.56842  24363409.384    24363407.017
 03 12 26  1 55 30.0000000  0  9G29G17G30G 5G21G10G 6G18G24
  24195934.899    -7345768.68643  -5702853.83242  24195936.843    24195934.182
  21569698.268   -20115971.47343 -15661527.45442  21569698.746    21569695.842
  20905550.846   -23191119.99943 -18057566.54442  20905552.556    20905548.674
  23186220.438   -12278246.16343  -9533001.84842  23186221.275    23186218.901
  22164155.239   -19045133.50743 -14834414.84142  22164156.277    22164152.098
  21567102.134   -20265938.77943 -15785170.80842  21567102.768    21567099.810
  20747694.779   -24696851.46244 -19207463.28042  20747696.162    20747692.660
  24461784.893    -6161169.48343  -4759734.89642  24461786.265    24461783.571
  24379015.986    -5705334.95743  -4265233.65642  24379016.809    24379014.385
 03 12 26  1 56  0.0000000  0  9G29G17G30G 5G21G10G 6G18G24
  24183435.671    -7411452.66543  -5754036.09142  24183437.598    24183434.887
  21579720.737   -20063302.84043 -15620486.94042  21579721.221    21579718.328
  20917580.548   -23127903.44743 -18008306.89642  20917582.282    20917578.376
  23206115.701   -12173696.00943  -9451534.21742  23206116.510    23206114.184
  22152762.255   -19105003.92843 -14881067.07642  22152763.306    22152759.116
  21578261.712   -20207294.59543 -15739474.02142  21578262.377    21578259.410
  20740385.371   -24735262.41744 -19237393.87142  20740386.789    20740383.268
  24440757.493    -6271669.02543  -4845838.40142  24440758.926    24440756.167
  24394616.173    -5623355.46843  -4201353.51842  24394616.957    24394614.550
 03 12 26  1 56 30.0000000  0  9G29G17G30G 5G21G10G 6G18G24
  24170972.779    -7476945.27443  -5805069.22242  24170974.641    24170971.996
  21589775.252   -20010466.04743 -15579315.39642  21589775.708    21589772.815
  20929700.357   -23064213.46443 -17958678.34342  20929702.093    20929698.188
  23226037.718   -12069005.31043  -9369957.06642  23226038.526    23226036.194
  22141412.065   -19164649.46343 -14927544.08742  22141413.093    22141408.865
  21589518.954   -20148137.31843 -15693377.42642  21589519.602    21589516.636
  20733125.025   -24773415.68344 -19267123.66842  20733126.436    20733122.916
  24419740.766    -6382111.46543  -4931897.37342  24419742.178    24419739.550
  24410208.656    -5541416.17943  -4137504.69142  24410209.371    24410207.113
 03 12 26  1 57  0.0000000  0  9G29G17G30G 5G21G10G 6G18G24
  24158546.961    -7542243.29043  -5855950.73342  24158548.737    24158546.242
  21599861.591   -19957461.99443 -15538013.51342  21599862.027    21599859.116
  20941909.920   -23000051.82043 -17908682.25742  20941911.646    20941907.744
  23245985.993   -11964176.07043  -9288271.97242  23245986.825    23245984.535
  22130104.705   -19224069.42043 -14973845.29842  22130105.755    22130101.641
  21600873.471   -20088468.75043 -15646882.41642  21600874.137    21600871.180
  20725914.120   -24811309.18444 -19296651.04242  20725915.522    20725911.999
  24398735.734    -6492493.81243  -5017909.59142  24398737.090    24398734.496
  24425793.445    -5459516.99043  -4073687.13042  24425794.194    24425791.967
 03 12 26  1 57 30.0000000  0  9G29G17G30G 5G21G10G 6G18G24
  24146158.842    -7607342.71043  -5906677.46342  24146160.713    24146158.091
  21609979.717   -19904290.64443 -15496581.27642  21609980.195    21609977.257
  20954209.011   -22935419.79843 -17858319.64842  20954210.724    20954206.818
  23265960.430   -11859210.15343  -9206480.36742  23265961.271    23265958.937
  22118840.609   -19283262.92143 -15019970.07642  22118841.634    22118837.389
  21612324.958   -20028290.69843 -15599990.41142  21612325.627    21612322.677
  20718753.112   -24848940.48144 -19325974.10442  20718754.532    20718750.971
  24377742.653    -6602813.05643  -5103872.61142  24377744.047    24377741.343
  24441370.719    -5377657.84643  -4009900.74742  24441371.565    24441369.243
 03 12 26  1 58  0.0000000  0  9G29G17G30G 5G21G10G 6G18G24
  24133808.806    -7672241.80043  -5957248.11042  24133810.817    24133808.215
  21620129.203   -19850954.69643 -15455020.77542  21620129.669    21620126.731
  20966596.925   -22870320.82043 -17807593.17342  20966598.644    20966594.721
  23285960.010   -11754111.13843  -9124585.05042  23285960.874    23285958.607
  22107619.212   -19342231.33543 -15065919.43842  22107620.209    22107616.065
  21623872.746   -19967606.46143 -15552703.97342  21623873.431    21623870.492
  20711642.078   -24886309.20044 -19355092.56142  20711643.488    20711639.922
  24356761.860    -6713067.47243  -5189785.10442  24356763.287    24356760.613
  24456940.027    -5295840.29343  -3946146.80542  24456940.926    24456938.561
 03 12 26  1 58 30.0000000  0  9G29G17G30G 5G21G10G 6G18G24
  24121497.384    -7736938.52443  -6007661.09942  24121499.469    24121496.542
  21630309.594   -19797456.26843 -15413333.67342  21630310.039    21630307.133
  20979073.095   -22804758.06243 -17756505.31342  20979074.804    20979070.903
  23305984.395   -11648882.83643  -9042588.99342  23305985.181    23305982.922
  22096440.546   -19400975.63243 -15111694.18042  22096441.509    22096437.324
  21635516.310   -19906419.19143 -15505025.56342  21635516.964    21635514.025
  20704581.135   -24923414.75244 -19384005.95542  20704582.522    20704578.940
  24335793.494    -6823256.22443  -5275646.38442  24335794.968    24335792.340
  24472501.181    -5214065.87543  -3882426.45542  24472502.089    24472499.764
 03 12 26  1 59  0.0000000  0  9G29G17G30G 5G21G10G 6G18G24
  24109225.649    -7801426.60643  -6057911.46842  24109227.893    24109225.102
  21640521.316   -19743793.08343 -15371518.18742  21640521.789    21640518.893
  20991637.737   -22738730.48043 -17705055.25042  20991639.449    20991635.538
  23326033.402   -11543524.56843  -8960491.66642  23326034.170    23326031.881
  22085305.164   -19459492.52443 -15157291.71742  22085306.121    22085301.929
  21647255.726   -19844728.11043 -15456954.57442  21647256.377    21647253.408
  20697571.114   -24960252.48044 -19412710.65242  20697572.521    20697568.928
  24314838.790    -6933373.73843  -5361452.23242  24314840.247    24314837.629
  24488054.548    -5132332.15843  -3818737.82142  24488055.342    24488053.144
 03 12 26  1 59 30.0000000  0  9G29G17G30G 5G21G10G 6G18G24
  24096993.327    -7865707.80043  -6108000.64742  24096995.456    24096992.531
  21650763.275   -19689971.17343 -15329579.02042  21650763.707    21650760.856
  21004289.466   -22672245.14443 -17653248.50242  21004291.164    21004287.307
  23346105.863   -11438043.32043  -8878298.51342  23346106.631    23346104.361
  22074212.150   -19517786.48943 -15202715.54342  22074213.086    22074208.881
  21659089.672   -19782540.30243 -15408496.52342  21659090.325    21659087.336
  20690611.494   -24996825.36644 -19441208.98242  20690612.919    20690609.308
  24293897.230    -7043422.00043  -5447204.06842  24293898.606    24293896.173
  24503599.093    -5050644.43343  -3755085.03642  24503600.063    24503597.812
 03 12 26  2  0  0.0000000  0 10G29G26G17G30G 5G21G10G 6G18G24
  24084801.654    -7929775.68343  -6157923.59442  24084803.623    24084800.835
  24273554.959    -5623507.19653  -4368702.35852  24273556.673    24273554.986
  21661035.838   -19635988.41043 -15287514.51142  21661036.253    21661033.422
  21017028.484   -22605301.06643 -17601084.28842  21017030.218    21017026.347
  23366201.724   -11332439.08243  -8796009.50142  23366202.491    23366200.190
  22063162.176   -19575854.54943 -15247963.33742  22063163.090    22063158.886
  21671018.281   -19719854.82943 -15359650.67842  21671018.944    21671015.957
  20683703.242   -25033128.37844 -19469497.01942  20683704.668    20683701.059
  24272969.882    -7153395.51643  -5532897.67342  24272971.227    24272968.846
  24519135.441    -4969000.23943  -3691466.16042  24519136.500    24519134.068
 03 12 26  2  0 30.0000000  0 10G29G26G17G30G 5G21G10G 6G18G24
  24072650.942    -7993628.24943  -6207678.74742  24072652.825    24072650.258
  24256589.692    -5712659.99343  -4438172.02442  24256591.300    24256589.621
  21671338.724   -19581846.41743 -15245325.93242  21671339.118    21671336.291
  21029854.268   -22537901.12743 -17548564.85842  21029856.008    21029852.151
  23386320.421   -11226714.53243  -8713626.75642  23386321.170    23386318.922
  22052154.985   -19633697.31743 -15293035.58342  22052155.884    22052151.678
  21683041.047   -19656674.73143 -15310419.41442  21683041.699    21683038.695
  20676846.528   -25069160.58244 -19497574.03442  20676847.945    20676844.327
  24252057.315    -7263292.57143  -5618531.70742  24252058.525    24252056.016
  24534663.366    -4887400.67043  -3627882.05842  24534664.372    24534661.934
 03 12 26  2  1  0.0000000  0 10G29G26G17G30G 5G21G10G 6G18G24
  24060541.637    -8057262.61943  -6257263.87042  24060543.528    24060540.902
  24239633.710    -5801764.59043  -4507604.12242  24239635.238    24239633.523
  21681671.591   -19527546.80743 -15203014.53142  21681672.004    21681669.155
  21042766.280   -22470048.09443 -17495692.36842  21042768.026    21042764.153
  23406461.469   -11120873.27343  -8631153.06642  23406462.190    23406459.869
  22041190.616   -19691315.13543 -15337932.53642  22041191.535    22041187.379
  21695157.325   -19593003.14843 -15260805.17642  21695158.005    21695154.951
  20670041.524   -25104921.06444 -19525439.31942  20670042.935    20670039.319
  24231159.503    -7373111.08443  -5704104.54042  24231160.751    24231158.322
  24550182.562    -4805846.42043  -3564333.28242  24550183.599    24550181.121
 03 12 26  2  1 30.0000000  0 10G29G26G17G30G 5G21G10G 6G18G24
  24048475.111    -8120672.76143  -6306674.31042  24048476.964    24048474.182
  24222688.107    -5890814.20543  -4576993.39042  24222689.554    24222687.804
  21692034.895   -19473087.30143 -15160578.53642  21692035.297    21692032.437
  21055764.718   -22401740.88843 -17442465.98042  21055766.443    21055762.610
  23426624.734   -11014913.87543  -8548587.31842  23426625.493    23426623.259
  22030269.764   -19748704.64943 -15382651.60642  22030270.652    22030266.441
  21707367.365   -19528838.96243 -15210807.09042  21707368.021    21707364.965
  20663289.138   -25140404.86644 -19553089.01242  20663290.564    20663286.960
  24210277.673    -7482845.28543  -5789611.65042  24210278.862    24210276.569
  24565693.653    -4724334.91343  -3500817.79442  24565694.716    24565692.206
 03 12 26  2  2  0.0000000  0 10G29G26G17G30G 5G21G10G 6G18G24
  24036451.128    -8183859.36743  -6355910.53942  24036452.931    24036450.269
  24205752.850    -5979809.21943  -4646340.10042  24205754.448    24205752.612
  21702427.664   -19418472.87443 -15118021.82342  21702428.054    21702425.208
  21068848.370   -22332985.68643 -17388890.50442  21068850.121    21068846.288
  23446809.335   -10908843.26543  -8465934.91442  23446810.125    23446807.930
  22019391.533   -19805869.73543 -15427195.78342  22019392.418    22019388.271
  21719669.962   -19464188.36043 -15160429.97942  21719670.627    21719667.561
  20656589.022   -25175614.05744 -19580524.72342  20656590.452    20656586.849
  24189411.653    -7592496.83843  -5875054.35042  24189412.818    24189410.507
  24581195.812    -4642870.48043  -3437339.00742  24581196.789    24581194.353
 03 12 26  2  2 30.0000000  0 10G29G26G17G30G 5G21G10G 6G18G24
  24024470.001    -8246820.03543  -6404970.72542  24024471.866    24024469.011
  24188828.596    -6068746.87943  -4715642.12642  24188830.159    24188828.322
  21712849.540   -19363705.44343 -15075345.88342  21712849.942    21712847.099
  21082016.708   -22263785.51143 -17334968.29142  21082018.467    21082014.643
  23467014.390   -10802664.55343  -8383198.27842  23467015.220    23467013.000
  22008555.916   -19862810.93243 -15471565.50542  22008556.853    22008552.639
  21732064.530   -19399054.46543 -15109676.27542  21732065.179    21732062.097
  20649941.344   -25210547.71344 -19607745.72942  20649942.768    20649939.165
  24168561.651    -7702064.09843  -5960431.37942  24168562.892    24168560.504
  24596688.794    -4561454.13343  -3373897.65742  24596689.787    24596687.365
 03 12 26  2  3  0.0000000  0 10G29G26G17G30G 5G21G10G 6G18G24
  24012532.881    -8309549.89443  -6453851.06142  24012534.604    24012531.856
  24171916.218    -6157621.64743  -4784895.13242  24171917.897    24171915.941
  21723300.752   -19308783.86143 -15032549.82942  21723301.171    21723298.319
  21095269.721   -22194140.47443 -17280699.44042  21095271.471    21095267.658
  23487240.184   -10696377.92943  -8300377.54342  23487240.939    23487238.783
  21997763.348   -19919526.22943 -15515759.20242  21997764.284    21997760.038
  21744551.001   -19333437.66043 -15058546.28142  21744551.632    21744548.537
  20643346.839   -25245202.06044 -19634749.08942  20643348.259    20643344.636
  24147728.638    -7811542.09743  -6045738.88442  24147729.950    24147727.334
  24612172.931    -4480084.59743  -3310492.80542  24612173.938    24612171.443
 03 12 26  2  3 30.0000000  0 10G29G26G17G30G 5G21G10G 6G18G24
  24000640.254    -8372046.18843  -6502549.39842  24000642.035    24000639.190
  24155016.408    -6246430.61643  -4854096.86642  24155018.172    24155016.193
  21733781.060   -19253709.49143 -14989634.72242  21733781.462    21733778.609
  21108606.819   -22124053.55043 -17226086.25842  21108608.579    21108604.768
  23507485.711   -10589986.72943  -8217475.34642  23507486.449    23507484.322
  21987013.610   -19976016.23843 -15559777.34842  21987014.581    21987010.322
  21757128.841   -19267340.75343 -15007042.17942  21757129.447    21757126.319
  20636805.681   -25279575.95244 -19661533.91642  20636807.092    20636803.487
  24126913.018    -7920929.01143  -6130975.38342  24126914.333    24126911.610
  24627648.035    -4398762.48443  -3247124.90142  24627649.024    24627646.507
 03 12 26  2  4  0.0000000  0 10G29G26G17G30G 5G21G10G 6G18G24
  23988792.942    -8434304.31043  -6551062.14842  23988794.650    23988791.810
  24138130.116    -6335168.47643  -4923243.18442  24138131.878    24138129.865
  21744290.514   -19198481.91243 -14946600.22542  21744290.908    21744288.034
  21122027.949   -22053525.20143 -17171129.10642  21122029.705    21122025.879
  23527751.023   -10483492.15243  -8134492.56442  23527751.780    23527749.552
  21976307.142   -20032278.87543 -15603618.32742  21976308.153    21976303.858
  21769797.775   -19200764.79043 -14955164.78642  21769798.413    21769795.272
  20630318.531   -25313666.07744 -19688097.62442  20630319.931    20630316.335
  24106115.339    -8030221.03943  -6216137.93242  24106116.742    24106114.018
  24643114.228    -4317486.99543  -3183793.32642  24643115.259    24643112.718
 03 12 26  2  4 30.0000000  0 10G29G26G17G30G 5G21G10G 6G18G24
  23976990.484    -8496326.19643  -6599390.81842  23976992.221    23976989.305
  24121257.122    -6423836.76643  -4992335.29842  24121258.818    24121256.746
  21754828.008   -19143107.03143 -14903450.95342  21754828.380    21754825.505
  21135531.644   -21982562.81343 -17115833.74342  21135533.403    21135529.570
  23548034.573   -10376901.26643  -8051434.77742  23548035.311    23548033.214
  21965642.947   -20088319.43643 -15647286.25442  21965643.956    21965639.626
  21782556.507   -19133717.03543 -14902919.76342  21782557.179    21782554.019
  20623884.724   -25347475.78344 -19714442.82742  20623886.117    20623882.539
  24085335.291    -8139420.46043  -6301228.32242  24085336.690    24085334.095
  24658570.675    -4236263.31943  -3120502.13542  24658571.617    24658568.995
 03 12 26  2  5  0.0000000  0 10G29G26G17G30G 5G21G10G 6G18G24
  23965234.154    -8558105.26043  -6647530.26442  23965236.031    23965233.086
  24104398.596    -6512428.37243  -5061367.64642  24104400.331    24104398.299
  21765393.989   -19087582.20743 -14860184.83842  21765394.377    21765391.500
  21149118.141   -21911165.26643 -17060199.29242  21149119.922    21149116.091
  23568336.657   -10270213.17643  -7968301.19242  23568337.436    23568335.232
  21955021.723   -20144134.14543 -15690778.19042  21955022.762    21955018.415
  21795405.249   -19066196.29843 -14850306.18142  21795405.903    21795402.774
  20617505.283   -25380999.86244 -19740565.46442  20617506.678    20617503.105
  24064574.167    -8248521.24943  -6386241.87642  24064575.400    24064572.726
  24674017.746    -4155088.30443  -3057248.86942  24674018.677    24674016.004
 03 12 26  2  5 30.0000000  0 10G29G26G17G30G 5G21G10G 6G18G24
  23953524.420    -8619640.05443  -6695479.37142  23953526.174    23953523.296
  24087555.058    -6600941.23543  -5130338.64242  24087556.922    24087554.722
  21775988.048   -19031910.03643 -14816803.91142  21775988.424    21775985.548
  21162786.771   -21839336.19243 -17004228.59242  21162788.542    21162784.694
  23588656.521   -10163431.65643  -7885094.85442  23588657.248    23588655.163
  21944443.251   -20199724.34743 -15734095.19742  21944444.299    21944439.916
  21808343.296   -18998206.37143 -14797326.99942  21808343.937    21808340.809
  20611180.222   -25414238.20144 -19766465.44842  20611181.621    20611178.032
  24043831.945    -8357522.47343  -6471177.82942  24043833.213    24043830.498
  24689455.231    -4073963.75743  -2994034.90242  24689456.175    24689453.365
 03 12 26  2  6  0.0000000  0 10G29G26G17G30G 5G21G10G 6G18G24
  23941862.244    -8680925.00643  -6743233.80842  23941864.023    23941860.972
  24070727.606    -6689369.63743  -5199243.83442  24070729.521    24070727.262
  21786610.426   -18976088.98043 -14773306.96842  21786610.826    21786607.914
  21176537.525   -21767075.66543 -16947921.69442  21176539.267    21176535.411
  23608994.143   -10056557.03043  -7801815.93842  23608994.808    23608992.685
  21933907.860   -20255088.01243 -15777235.67542  21933908.924    21933904.562
  21821370.609   -18929747.35343 -14743982.28742  21821371.251    21821368.084
  20604910.332   -25447186.64744 -19792139.53942  20604911.719    20604908.129
  24023109.402    -8466419.40243  -6556032.49842  24023110.675    24023108.085
  24704883.404    -3992887.74143  -2930858.76142  24704884.362    24704881.725
 03 12 26  2  6 30.0000000  0 10G29G26G17G30G 5G21G10G 6G18G24
  23930247.583    -8741960.31743  -6790793.71942  23930249.327    23930246.276
  24053916.336    -6777713.07143  -5268082.80842  24053918.309    24053915.990
  21797260.336   -18920123.27443 -14729697.30642  21797260.734    21797257.797
  21190369.314   -21694389.13143 -16891282.83842  21190371.074    21190367.202
  23629348.388    -9949594.81643  -7718468.77642  23629349.057    23629346.954
  21923415.003   -20310227.98243 -15820201.83942  21923416.101    21923411.728
  21834486.105   -18860824.99243 -14690276.53642  21834486.723    21834483.572
  20598695.346   -25479846.50844 -19817588.75942  20598696.723    20598693.136
  24002406.644    -8575212.63843  -6640806.36642  24002407.975    24002405.219
  24720301.672    -3911863.88843  -2867723.26142  24720302.609    24720300.055
 03 12 26  2  7  0.0000000  0 10G29G26G17G30G 5G21G10G 6G18G24
  23918681.147    -8802742.32543  -6838156.24942  23918682.767    23918679.751
  24037122.086    -6865967.12343  -5336852.13342  24037124.083    24037121.729
  21807937.739   -18864013.13643 -14685975.10242  21807938.159    21807935.157
  21204281.859   -21621278.39043 -16834313.43442  21204283.608    21204279.686
  23649718.968    -9842546.79643  -7635054.76942  23649719.638    23649717.542
  21912964.941   -20365143.38143 -15862993.02142  21912966.028    21912961.634
  21847689.422   -18791441.03743 -14636211.09842  21847690.035    21847686.872
  20592535.720   -25512215.51044 -19842811.33842  20592537.095    20592533.506
  23981724.391    -8683898.83843  -6725496.84742  23981725.714    23981722.915
  24735710.137    -3830892.06943  -2804628.31242  24735711.104    24735708.472
 03 12 26  2  7 30.0000000  0 10G29G26G17G30G 5G21G10G 6G18G24
  23907163.251    -8863269.10643  -6885319.90742  23907164.821    23907161.843
  24020345.286    -6954129.51943  -5405550.04042  24020347.251    24020344.924
  21818642.222   -18807760.60543 -14642141.94242  21818642.649    21818639.644
  21218274.415   -21547746.94543 -16777016.20942  21218276.179    21218272.240
  23670105.033    -9735416.81243  -7551576.87342  23670105.771    23670103.695
  21902557.335   -20419835.55943 -15905610.26342  21902558.419    21902553.991
  21860979.870   -18721599.23343 -14581788.89242  21860980.466    21860977.303
  20586431.541   -25544293.14444 -19867806.87542  20586432.926    20586429.319
  23961062.697    -8792476.72243  -6810102.92942  23961063.961    23961061.154
  24751108.399    -3749973.57443  -2741574.92342  24751109.324    24751106.682
 03 12 26  2  8  0.0000000  0 10G29G26G17G30G 5G21G10G 6G18G24
  23895695.067    -8923534.34543  -6932279.76942  23895696.694    23895693.708
  24003587.250    -7042193.38343  -5474171.16042  24003589.123    24003586.856
  21829374.195   -18751363.64643 -14598196.23942  21829374.632    21829371.598
  21232347.248   -21473793.78043 -16719390.36742  21232348.989    21232345.052
  23690506.930    -9628204.19443  -7468034.60342  23690507.694    23690505.625
  21892192.848   -20474301.12343 -15948050.92042  21892193.932    21892189.501
  21874357.614   -18651298.74743 -14527009.27342  21874358.201    21874355.015
  20580383.760   -25576074.29844 -19892571.38642  20580385.151    20580381.545
  23940422.537    -8900940.64243  -6894620.15042  23940423.789    23940421.159
  24766497.092    -3669105.30943  -2678560.64842  24766498.052    24766495.520
 03 12 26  2  8 30.0000000  0 10G29G26G17G30G 5G21G10G 6G18G24
  23884276.903    -8983536.99043  -6979035.02542  23884278.533    23884275.504
  23986848.263    -7130157.19043  -5542714.31742  23986850.014    23986847.868
  21840133.135   -18694824.90843 -14554140.05842  21840133.564    21840130.535
  21246499.452   -21399423.42843 -16661439.44742  21246501.201    21246497.277
  23710923.716    -9520913.28943  -7384431.32542  23710924.476    23710922.408
  21881871.129   -20528541.98543 -15990316.48442  21881872.214    21881867.762
  21887821.687   -18580544.28643 -14471875.90942  21887822.314    21887819.168
  20574392.345   -25607559.41044 -19917105.21842  20574393.719    20574390.098
  23919804.287    -9009290.09443  -6979048.21042  23919805.551    23919802.915
  24781875.661    -3588289.89843  -2615587.59042  24781876.711    24781874.294
 03 12 26  2  9  0.0000000  0 10G29G26G17G30G 5G21G10G 6G18G24
  23872908.939    -9043275.20143  -7025584.20042  23872910.557    23872907.603
  23970128.799    -7218018.38043  -5611177.51542  23970130.516    23970128.352
  21850918.694   -18638146.36243 -14509974.94142  21850919.114    21850916.089
  21260730.395   -21324639.23043 -16603166.05342  21260732.144    21260728.240
  23731354.782    -9413547.12243  -7300769.39542  23731355.555    23731353.482
  21871591.929   -20582559.15843 -16032407.74442  21871593.040    21871588.602
  21901371.581   -18509339.11243 -14416391.34042  21901372.186    21901369.040
  20568457.383   -25638747.76644 -19941407.81142  20568458.765    20568455.124
  23899207.928    -9117523.83843  -7063386.09842  23899209.202    23899206.595
  24797243.966    -3507528.71043  -2552656.73942  24797244.966    24797242.489
 03 12 26  2  9 30.0000000  0 10G29G26G17G30G 5G21G10G 6G18G24
  23861592.157    -9102745.13343  -7071924.35442  23861593.702    23861590.729
  23953429.682    -7305772.50643  -5679557.28642  23953431.417    23953429.230
  21861730.790   -18581328.22443 -14465701.05142  21861731.227    21861728.212
  21275039.801   -21249442.84943 -16544571.47342  21275041.534    21275037.654
  23751799.921    -9306107.57743  -7217050.30342  23751800.623    23751798.599
  21861355.533   -20636351.76943 -16074324.02642  21861356.637    21861352.209
  21915006.948   -18437684.73143 -14360556.74142  21915007.551    21915004.419
  20562579.373   -25669636.79844 -19965477.16542  20562580.771    20562577.111
  23878634.344    -9225638.41143  -7147631.13342  23878635.646    23878632.963
  24812602.141    -3426821.13543  -2489767.72742  24812603.111    24812600.368
 03 12 26  2 10  0.0000000  0 10G29G26G17G30G 5G21G10G 6G18G24
  23850326.730    -9161944.82343  -7118053.91442  23850328.365    23850325.474
  23936751.423    -7393416.83043  -5747851.49442  23936753.238    23936751.034
  21872569.171   -18524372.20343 -14421319.72042  21872569.577    21872566.576
  21289427.022   -21173837.58343 -16485658.28142  21289428.766    21289424.860
  23772258.144    -9198598.69043  -7133277.15542  23772258.920    23772256.806
  21851161.634   -20689921.00943 -16116066.24742  21851162.723    21851158.293
  21928727.100   -18365584.66743 -14304374.85242  21928727.724    21928724.593
  20556758.471   -25700225.77644 -19989312.70942  20556759.885    20556756.183
  23858083.794    -9333632.22743  -7231782.06642  23858085.134    23858082.356
  24827949.900    -3346168.38043  -2426921.38742  24827950.589    24827948.002
 03 12 26  2 10 30.0000000  0 10G29G26G17G30G 5G21G10G 6G18G24
  23839112.956    -9220873.37343  -7163972.19442  23839114.574    23839111.755
  23920094.400    -7480950.10643  -5816059.17242  23920096.189    23920093.973
  21883433.129   -18467281.60143 -14376833.51442  21883433.555    21883430.532
  21303891.112   -21097828.30043 -16426430.27642  21303892.835    21303888.963
  23792728.862    -9091024.60743  -7049453.22542  23792729.618    23792727.520
  21841009.918   -20743268.61443 -16157635.76642  21841011.001    21841006.554
  21942531.191   -18293043.71943 -14247849.42542  21942531.772    21942528.656
  20550994.539   -25730515.37344 -20012914.97142  20550995.937    20550992.231
  23837556.226    -9441505.08543  -7315838.76242  23837557.563    23837554.664
  24843286.750    -3265572.97743  -2364119.75642  24843287.388    24843284.737
 03 12 26  2 11  0.0000000  0 10G29G26G17G30G 5G21G10G 6G18G24
  23827952.263    -9279523.28643  -7209673.37042  23827953.960    23827950.941
  23903460.046    -7568364.06943  -5884173.87142  23903461.824    23903459.566
  21894323.436   -18410052.60943 -14332239.48042  21894323.870    21894320.834
  21318432.517   -21021412.65443 -16366885.62042  21318434.251    21318430.400
  23813212.456    -8983383.11843  -6965576.76342  23813213.153    23813211.099
  21830901.222   -20796390.04143 -16199029.04942  21830902.281    21830897.834
  21956419.527   -18220059.75543 -14190978.78642  21956420.163    21956417.027
  20545288.794   -25760499.18144 -20036278.95442  20545290.206    20545286.468
  23817053.035    -9549249.78243  -7399795.58442  23817054.408    23817051.504
  24858613.452    -3185030.56543  -2301359.42742  24858614.168    24858611.388
 03 12 26  2 11 30.0000000  0 10G29G26G17G30G 5G21G10G 6G18G24
  23816844.632    -9337894.03443  -7255157.01842  23816846.307    23816843.202
  23886848.590    -7655657.73943  -5952194.83342  23886850.371    23886848.051
  21905239.384   -18352688.70743 -14287540.31942  21905239.844    21905236.803
  21333050.257   -20944595.84043 -16307028.37042  21333051.986    21333048.162
  23833707.813    -8875679.42443  -6881651.82742  23833708.534    23833706.335
  21820835.066   -20849287.90443 -16240248.11842  21820836.108    21820831.673
  21970391.200   -18146638.11643 -14133767.10042  21970391.816    21970388.698
  20539641.068   -25790178.12744 -20059405.38642  20539642.466    20539638.724
  23796574.220    -9656866.59843  -7483652.77442  23796575.620    23796572.590
  24873929.617    -3104544.14143  -2238642.71142  24873930.279    24873927.469
 03 12 26  2 12  0.0000000  0  9G29G26G17G30G 5G21G10G 6G18
  23805791.766    -9395977.11243  -7300416.50042  23805793.451    23805790.340
  23870261.744    -7742821.84843  -6020114.83942  23870263.504    23870261.201
  21916181.923   -18295185.13043 -14242732.32142  21916182.379    21916179.342
  21347744.977   -20867374.59943 -16246855.98042  21347746.698    21347742.900
  23854215.615    -8767910.57543  -6797676.12142  23854216.303    23854214.163
  21810812.491   -20901956.69843 -16281288.69742  21810813.518    21810809.094
  21984446.752   -18072775.56143 -14076211.84742  21984447.366    21984444.227
  20534052.762   -25819544.83144 -20082288.50742  20534054.166    20534050.416
  23776121.220    -9764347.50643  -7567404.03742  23776122.575    23776119.577
 03 12 26  2 12 30.0000000  0  9G29G26G17G30G 5G21G10G 6G18
  23794792.518    -9453778.17543  -7345456.23342  23794794.162    23794791.094
  23853698.578    -7829861.57043  -6087937.91842  23853700.351    23853698.011
  21927149.184   -18237551.62443 -14197823.07342  21927149.656    21927146.614
  21362514.489   -20789760.28843 -16186377.30342  21362516.236    21362512.424
  23874733.707    -8660087.51843  -6713658.18342  23874734.328    23874732.223
  21800831.820   -20954405.31343 -16322157.70542  21800832.827    21800828.413
  21998584.061   -17998483.33143 -14018321.77342  21998584.687    21998581.552
  20528522.571   -25848606.26344 -20104933.75842  20528523.950    20528520.184
  23755693.020    -9871698.44343  -7651054.07142  23755694.303    23755691.242
 03 12 26  2 13  0.0000000  0  9G29G26G17G30G 5G21G10G 6G18
  23783847.972    -9511292.02743  -7390272.16942  23783849.634    23783846.518
  23837160.235    -7916770.73343  -6155659.26142  23837162.049    23837159.696
  21938141.494   -18179786.72843 -14152811.44942  21938141.933    21938138.874
  21377358.771   -20711752.96643 -16125592.38442  21377360.532    21377356.736
  23895262.076    -8552210.71343  -6629598.33442  23895262.741    23895260.514
  21790893.510   -21006631.11843 -16362853.09442  21790894.503    21790890.146
  22012803.094   -17923761.69143 -13960097.10542  22012803.764    22012800.599
  20523051.216   -25877358.33544 -20127337.94542  20523052.607    20523048.830
  23735290.312    -9978914.93443  -7734599.31342  23735291.640    23735288.566
 03 12 26  2 13 30.0000000  0  9G29G26G17G30G 5G21G10G 6G18
  23772959.136    -9568512.82543  -7434859.74442  23772960.819    23772957.710
  23820647.947    -8003542.99043  -6223273.92242  23820649.788    23820647.422
  21949159.224   -18121887.99643 -14107695.53342  21949159.682    21949156.624
  21392277.931   -20633352.13143 -16064500.83342  21392279.722    21392275.898
  23915800.705    -8444279.30743  -6545495.99242  23915801.366    23915799.270
  21780998.171   -21058631.23043 -16403372.62142  21780999.163    21780994.811
  22027103.926   -17848610.34743 -13901537.60342  22027104.598    22027101.426
  20517639.584   -25905796.50044 -20149497.53442  20517640.987    20517637.193
  23714914.189   -10085991.47343  -7818035.49842  23714915.520    23714912.517
 03 12 26  2 14  0.0000000  0  9G29G26G17G30G 5G21G10G 6G18
  23762125.508    -9625443.42543  -7479221.20042  23762127.208    23762124.051
  23804161.341    -8090180.44943  -6290783.56042  23804163.189    23804160.782
  21960201.106   -18063862.63443 -14062480.95142  21960201.521    21960198.464
  21407270.396   -20554566.22343 -16003109.22542  21407272.169    21407268.372
  23936348.256    -8336301.57143  -6461357.49242  23936348.924    23936346.764
  21771144.709   -21110411.43343 -16443720.79042  21771145.682    21771141.338
  22041484.932   -17773037.55943 -13842649.70042  22041485.594    22041482.436
  20512286.888   -25933925.09444 -20171415.90042  20512288.284    20512284.488
  23694564.250   -10192931.29143  -7901365.19542  23694565.488    23694562.407
 03 12 26  2 14 30.0000000  0  9G29G26G17G30G 5G21G10G 6G18
  23751348.174    -9682078.71243  -7523352.53342  23751349.816    23751346.680
  23787701.466    -8176677.42443  -6358183.73042  23787703.287    23787700.871
  21971267.323   -18005709.02643 -14017166.43142  21971267.765    21971264.714
  21422336.136   -20475395.49443 -15941417.75142  21422337.852    21422334.049
  23956904.409    -8228277.78443  -6377183.12842  23956905.142    23956902.980
  21761333.488   -21161969.61843 -16483895.95642  21761334.467    21761330.097
  22055946.054   -17697043.92143 -13783433.86542  22055946.701    22055943.525
  20506993.851   -25961740.06144 -20193089.87742  20506995.254    20506991.447
  23674241.000   -10299730.05543  -7984584.93342  23674242.244    23674239.302
 03 12 26  2 15  0.0000000  0  9G29G26G17G30G 5G21G10G 6G18
  23740628.154    -9738412.86643  -7567249.22542  23740629.770    23740626.637
  23771269.653    -8263027.09843  -6425469.10942  23771271.464    23771268.986
  21982358.378   -17947425.22243 -13971750.46242  21982358.801    21982355.752
  21437475.082   -20395839.77643 -15879426.29142  21437476.822    21437472.996
  23977469.511    -8120207.60243  -6292972.63442  23977470.269    23977468.139
  21751565.091   -21213302.72343 -16523895.73642  21751566.083    21751561.688
  22070487.332   -17620628.95843 -13723889.71942  22070487.979    22070484.807
  20501761.404   -25989236.77244 -20214515.86742  20501762.800    20501758.986
  23653945.701   -10406381.87843  -8067690.19142  23653946.927    23653944.058
 03 12 26  2 15 30.0000000  0  9G29G26G17G30G 5G21G10G 6G18
  23729965.502    -9794444.97143  -7610910.53642  23729967.091    23729963.950
  23754866.150    -8349227.90543  -6492638.49642  23754867.942    23754865.464
  21993473.645   -17889013.95143 -13926235.16442  21993474.097    21993471.039
  21452686.514   -20315903.30743 -15817138.13842  21452688.239    21452684.404
  23998042.514    -8012095.72043  -6208729.61542  23998043.301    23998041.121
  21741839.102   -21264413.02443 -16563721.90442  21741840.122    21741835.692
  22085107.884   -17543797.44343 -13664020.99242  22085108.518    22085105.355
  20496589.427   -26016415.59244 -20235694.14642  20496590.820    20496587.005
  23633678.398   -10512886.92643  -8150681.09942  23633679.652    23633676.730
 03 12 26  2 16  0.0000000  0  9G29G26G17G30G 5G21G10G 6G18
  23719361.074    -9850172.14343  -7654334.25742  23719362.605    23719359.417
  23738491.618    -8435276.45443  -6559689.23842  23738493.368    23738490.880
  22004613.001   -17830476.21643 -13880621.32742  22004613.430    22004610.373
  21467969.810   -20235588.97843 -15754555.55142  21467971.558    21467967.714
  24018622.976    -7903944.36343  -6124455.85142  24018623.760    24018621.724
  21732155.583   -21315300.19543 -16603374.20442  21732156.596    21732152.123
  22099807.171   -17466552.14043 -13603829.83342  22099807.819    22099804.635
  20491478.219   -26043275.08544 -20256623.60042  20491479.599    20491475.785
  23613439.471   -10619242.69543  -8233555.67442  23613440.704    23613437.824
 03 12 26  2 16 30.0000000  0  9G29G26G17G30G 5G21G10G 6G18
  23708814.821    -9905592.52943  -7697518.90642  23708816.427    23708813.147
  23722146.602    -8521169.79943  -6626619.03842  23722148.332    23722145.823
  22015776.107   -17771813.76943 -13834910.31542  22015776.518    22015773.454
  21483324.400   -20154900.13143 -15691681.13042  21483326.154    21483322.287
  24039210.388    -7795756.86043  -6040153.92942  24039211.181    24039209.197
  21722514.315   -21365965.30943 -16642853.47242  21722515.328    21722510.809
  22114584.582   -17388896.37043 -13543318.83042  22114585.200    22114582.003
  20486427.947   -26069814.42744 -20277303.59142  20486429.307    20486425.478
  23593229.388   -10725447.32143  -8316312.47942  23593230.616    23593227.669
 03 12 26  2 17  0.0000000  0  9G29G26G17G30G 5G21G10G 6G18
  23698327.509    -9960703.48743  -7740462.46242  23698329.126    23698325.818
  23705831.682    -8606904.98943  -6693425.61142  23705833.420    23705830.832
  22026962.702   -17713027.79543 -13789103.04442  22026963.122    22026960.040
  21498749.671   -20073839.93643 -15628517.34942  21498751.406    21498747.551
  24059804.138    -7687535.84543  -5955825.88642  24059804.908    24059802.924
  21712915.116   -21416409.12243 -16682160.29742  21712916.153    21712911.623
  22129439.542   -17310833.06243 -13482490.26242  22129440.156    22129436.916
  20481438.807   -26096032.43944 -20297733.19442  20481440.168    20481436.351
  23573048.374   -10831498.79943  -8398949.94242  23573049.646    23573046.744
 03 12 26  2 17 30.0000000  0  9G29G26G17G30G 5G21G10G 6G18
  23687899.628   -10015501.59043  -7783162.20642  23687901.277    23687898.099
  23689547.689    -8692477.36143  -6760105.31742  23689549.498    23689546.847
  22038172.782   -17654118.50143 -13743199.68442  22038173.197    22038170.103
  21514245.235   -19992410.19643 -15565065.60642  21514246.975    21514243.112
  24080403.940    -7579283.28443  -5871473.25442  24080404.766    24080402.719
  21703358.237   -21466630.63643 -16721293.90142  21703359.311    21703354.734
  22144371.626   -17232364.43243 -13421345.86242  22144372.224    22144368.969
  20476511.295   -26121926.63644 -20317910.46842  20476512.656    20476508.828
  23552897.127   -10937394.27143  -8481465.85242  23552898.306    23552895.372
 03 12 26  2 18  0.0000000  0  9G29G26G17G30G 5G21G10G 6G18
  23677531.840   -10069984.71343  -7825616.53242  23677533.510    23677530.254
  23673295.188    -8777884.34043  -6826656.13042  23673297.037    23673294.364
  22049406.043   -17595087.25243 -13697201.28642  22049406.462    22049403.361
  21529810.505   -19910614.23243 -15501328.49742  21529812.225    21529808.348
  24101009.062    -7471002.63943  -5787098.75742  24101009.894    24101007.926
  21693843.485   -21516630.75643 -16760254.99742  21693844.569    21693839.982
  22159380.227   -17153493.78743 -13359888.20342  22159380.818    22159377.513
  20471645.563   -26147496.11444 -20337834.72042  20471646.948    20471643.099
  23532775.986   -11043131.63243  -8563858.56242  23532777.178    23532774.180
 03 12 26  2 18 30.0000000  0  9G29G26G17G30G 5G21G10G 6G18
  23667224.966   -10124146.98243  -7867820.82942  23667226.596    23667223.468
  23657075.488    -8863119.19543  -6893072.81742  23657077.288    23657074.673
  22060662.884   -17535932.07443 -13651106.32842  22060663.333    22060660.207
  21545445.477   -19828451.87543 -15437305.88342  21545447.219    21545443.353
  24121619.720    -7362693.05143  -5702701.70542  24121620.522    24121618.598
  21684371.441   -21566406.61043 -16799041.33142  21684372.506    21684367.931
  22174465.370   -17074220.77643 -13298117.01042  22174465.962    22174462.642
  20466842.518   -26172736.21944 -20357502.31542  20466843.900    20466840.048
  23512685.827   -11148705.94743  -8646124.20942  23512687.026    23512683.973
 03 12 26  2 19  0.0000000  0  9G29G26G17G30G 5G21G10G 6G18
  23656979.164   -10177989.35143  -7909775.87242  23656980.739    23656977.537
  23640888.539    -8948182.00543  -6959355.44842  23640890.332    23640887.696
  22071942.410   -17476657.63443 -13604918.43542  22071942.873    22071939.734
  21561148.976   -19745929.28343 -15373002.56942  21561150.727    21561146.861
  24142234.666    -7254360.96543  -5618287.10242  24142235.444    24142233.587
  21674941.366   -21615961.92543 -16837655.82542  21674942.410    21674937.845
  22189625.826   -16994551.85543 -13236037.31442  22189626.435    22189623.116
  20462101.767   -26197648.97444 -20376914.83842  20462103.141    20462099.285
  23492626.500   -11254118.45443  -8728263.79642  23492627.703    23492624.555
 03 12 26  2 19 30.0000000  0  9G29G26G17G30G 5G21G10G 6G18
  23646794.671   -10231508.80843  -7951479.28442  23646796.263    23646793.090
  23624735.075    -9033068.72243  -7025500.85942  23624736.872    23624734.239
  22083244.631   -17417264.09343 -13558637.74142  22083245.065    22083241.935
  21576920.599   -19663048.87843 -15308420.44242  21576922.373    21576918.512
  24162853.569    -7146008.49243  -5533856.66042  24162854.182    24162852.465
  21665553.315   -21665296.33843 -16876098.18742  21665554.356    21665549.774
  22204861.158   -16914489.44143 -13173651.00542  22204861.760    22204858.469
  20457423.671   -26222232.40144 -20396070.73942  20457425.059    20457421.220
  23472598.414   -11359366.13243  -8810274.91042  23472599.627    23472596.486
 03 12 26  2 20  0.0000000  0 10G29G26G17G30G 5G21G10G 6G18G16
  23636670.941   -10284709.21243  -7992934.09042  23636672.553    23636669.293
  23608614.442    -9117782.85443  -7091511.79342  23608616.235    23608613.591
  22094567.937   -17357759.52043 -13512270.52742  22094568.389    22094565.281
  21592758.493   -19579820.37543 -15243567.06642  21592760.255    21592756.346
  24183474.551    -7037644.72743  -5449417.36942  24183475.178    24183473.374
  21656205.913   -21714417.19143 -16914374.13942  21656206.904    21656202.338
  22220169.542   -16834043.23643 -13110965.63942  22220170.133    22220166.834
  20452807.189   -26246492.01544 -20414974.31642  20452808.599    20452804.766
  23452600.948   -11464453.55143  -8892161.16842  23452602.133    23452598.955
  24748246.863    -4782364.04153  -3684318.27352  24748248.269    24748244.899
 03 12 26  2 20 30.0000000  0 10G29G26G17G30G 5G21G10G 6G18G16
  23626611.618   -10337571.15943  -8034125.17042  23626613.217    23626609.852
  23592530.573    -9202303.79243  -7157372.16242  23592532.378    23592529.783
  22105915.445   -17298128.02843 -13465804.40742  22105915.869    22105912.788
  21608665.319   -19496229.44343 -15178431.28142  21608667.069    21608663.195
  24204100.247    -6929255.53843  -5364958.28942  24204100.941    24204099.116
  21646902.419   -21763307.25043 -16952470.24742  21646903.390    21646898.832
  22235553.652   -16753198.93043 -13047970.05542  22235554.279    22235550.958
  20448255.855   -26270409.29344 -20433611.13942  20448257.252    20448253.433
  23432637.657   -11569361.58643  -8973907.63742  23432638.805    23432635.594
  24731292.209    -4871461.21943  -3753744.55542  24731293.507    24731290.070
 03 12 26  2 21  0.0000000  0 10G29G26G17G30G 5G21G10G 6G18G16
  23616615.432   -10390101.32743  -8075057.72042  23616617.031    23616613.685
  23576482.329    -9286637.43143  -7223086.59942  23576484.194    23576481.578
  22117285.213   -17238379.46443 -13419247.07142  22117285.644    22117282.537
  21624638.767   -19412288.33643 -15113022.63042  21624640.537    21624636.642
  24224728.674    -6820852.91143  -5280488.75142  24224729.343    24224727.465
  21637640.976   -21811976.29643 -16990394.14042  21637641.940    21637637.384
  22251011.260   -16671968.70443 -12984673.76042  22251011.841    22251008.535
  20443768.172   -26293992.06844 -20451987.31142  20443769.565    20443765.762
  23412706.962   -11674097.90143  -9055520.30242  23412708.068    23412704.938
  24714392.751    -4960267.78343  -3822944.39442  24714394.071    24714390.810
 03 12 26  2 21 30.0000000  0 10G29G26G17G30G 5G21G10G 6G18G16
  23606683.213   -10442295.15143  -8115728.16842  23606684.809    23606681.495
  23560470.833    -9370778.27343  -7288650.82242  23560472.655    23560470.065
  22128677.407   -17178513.05943 -13372597.90442  22128677.808    22128674.733
  21640678.704   -19327997.96543 -15047341.82742  21640680.468    21640676.598
  24245359.403    -6712437.15743  -5196008.97242  24245360.131    24245358.374
  21628421.938   -21860422.53043 -17028144.41342  21628422.910    21628418.313
  22266542.101   -16590353.48843 -12921077.46442  22266542.695    22266539.372
  20439344.832   -26317236.93444 -20470100.17942  20439346.215    20439342.386
  23392809.851   -11778657.89643  -9136995.57242  23392810.961    23392807.798
  24697549.518    -5048779.32443  -3891914.32042  24697550.864    24697547.302
 03 12 26  2 22  0.0000000  0 10G29G26G17G30G 5G21G10G 6G18G16
  23596814.982   -10494153.05443  -8156136.87842  23596816.583    23596813.217
  23544496.030    -9454726.03243  -7354064.57742  23544497.880    23544495.212
  22140091.282   -17118532.69043 -13325859.94142  22140091.657    22140088.589
  21656783.994   -19243364.11643 -14981393.37642  21656785.746    21656781.849
  24265991.678    -6604013.86943  -5111523.31242  24265992.370    24265990.569
  21619244.638   -21908649.36943 -17065723.72742  21619245.601    21619241.003
  22282145.085   -16508359.25643 -12857185.84142  22282145.681    22282142.331
  20434985.467   -26340145.49544 -20487950.98942  20434986.858    20434983.014
  23372946.155   -11883041.82743  -9218333.63542  23372947.270    23372944.162
  24680762.183    -5136996.69243  -3960655.04942  24680763.590    24680760.106
 03 12 26  2 22 30.0000000  0 10G29G26G17G30G 5G21G10G 6G18G16
  23587011.311   -10545671.10243  -8196280.75242  23587012.893    23587009.589
  23528558.866    -9538475.90043  -7419324.11742  23528560.768    23528558.067
  22151526.832   -17058438.25843 -13279033.09942  22151527.209    22151524.149
  21672954.322   -19158388.52243 -14915178.63242  21672956.084    21672952.190
  24286625.035    -6495585.04643  -5027033.35842  24286625.756    24286623.892
  21610109.353   -21956655.45043 -17103131.02442  21610110.293    21610105.692
  22297819.847   -16425987.65343 -12793000.16442  22297820.430    22297817.104
  20430690.622   -26362715.12044 -20505537.69542  20430692.001    20430688.140
  23353116.517   -11987246.89543  -9299532.33242  23353117.672    23353114.586
  24664031.531    -5224916.14543  -4029163.63742  24664032.997    24664029.443
 03 12 26  2 23  0.0000000  0 10G29G26G17G30G 5G21G10G 6G18G16
  23577272.784   -10596847.29043  -8236158.25542  23577274.330    23577271.044
  23512659.971    -9622024.79743  -7484427.08242  23512661.882    23512659.125
  22162983.876   -16998231.13543 -13232118.43742  22162984.223    22162981.153
  21689189.046   -19073074.49443 -14848700.17542  21689190.825    21689186.880
  24307258.958    -6387153.04143  -4942540.93342  24307259.656    24307257.909
  21601015.900   -22004441.77443 -17140367.08142  21601016.821    21601012.203
  22313565.773   -16343242.13243 -12728523.11642  22313566.351    22313563.039
  20426460.464   -26384944.72644 -20522859.44942  20426461.834    20426457.970
  23333321.271   -12091271.37443  -9380590.30542  23333322.401    23333319.313
  24647358.008    -5312535.75143  -4097438.57242  24647359.524    24647355.790
 03 12 26  2 23 30.0000000  0 10G29G26G17G30G 5G21G10G 6G18G16
  23567600.431   -10647675.53443  -8275764.63542  23567601.945    23567598.703
  23496800.602    -9705365.78643  -7549368.02742  23496802.548    23496799.713
  22174462.891   -16937908.44343 -13185113.72842  22174463.236    22174460.152
  21705488.331   -18987421.27743 -14781957.41442  21705490.078    21705486.144
  24327893.682    -6278717.11843  -4858045.44942  24327894.392    24327892.617
  21591964.861   -22052005.11343 -17177429.38142  21591965.766    21591961.162
  22329383.035   -16260121.82043 -12663754.02242  22329383.605    22329380.283
  20422295.965   -26406829.16744 -20539912.24442  20422297.338    20422293.472
  23313561.576   -12195109.10343  -9461502.75342  23313562.739    23313559.588
  24630742.720    -5399849.23943  -4165474.97242  24630744.183    24630740.420
 03 12 26  2 24  0.0000000  0 10G29G26G17G30G 5G21G10G 6G18G16
  23557993.578   -10698159.44143  -8315102.69842  23557995.073    23557991.877
  23480980.380    -9788501.53343  -7614149.04842  23480982.259    23480979.476
  22185962.506   -16877477.52143 -13138024.68042  22185962.852    22185959.788
  21721850.428   -18901438.07343 -14714957.51942  21721852.148    21721848.218
  24348527.527    -6170286.23943  -4773553.87542  24348528.134    24348526.329
  21582955.056   -22099351.78243 -17214322.85042  21582955.962    21582951.336
  22345269.865   -16176635.80643 -12598699.97042  22345270.428    22345267.079
  20418196.224   -26428373.36144 -20556699.91242  20418197.615    20418193.723
  23293836.562   -12298764.18943  -9542272.88342  23293837.791    23293834.664
  24614184.906    -5486860.54043  -4233275.90442  24614186.320    24614182.535
 03 12 26  2 24 30.0000000  0 10G29G26G17G30G 5G21G10G 6G18G16
  23548453.901   -10748290.73743  -8354165.99642  23548455.342    23548452.161
  23465200.950    -9871422.92743  -7678763.04742  23465202.817    23465199.938
  22197483.638   -16816933.45843 -13090847.46942  22197484.009    22197480.908
  21738275.804   -18815121.97343 -14647698.22342  21738277.545    21738273.639
  24369160.955    -6061856.96143  -4689063.59342  24369161.528    24369159.803
  21573987.558   -22146476.17943 -17251043.11942  21573988.470    21573983.837
  22361226.868   -16092781.10443 -12533358.62142  22361227.451    22361224.044
  20414162.599   -26449570.22244 -20573216.93342  20414163.964    20414160.074
  23274147.859   -12402228.81343  -9622894.61142  23274149.103    23274145.882
  24597686.222    -5573561.46543  -4300834.99842  24597687.695    24597684.061
 03 12 26  2 25  0.0000000  0 10G29G26G17G30G 5G21G10G 6G18G16
  23538981.216   -10798070.22343  -8392955.17542  23538982.612    23538979.351
  23449462.280    -9954129.74943  -7743209.84642  23449464.171    23449461.254
  22209025.487   -16756280.57243 -13043585.46142  22209025.844    22209022.755
  21754763.396   -18728479.24743 -14580184.41742  21754765.116    21754761.216
  24389792.996    -5953435.16243  -4604579.10642  24389793.518    24389791.849
  21565061.675   -22193381.86643 -17287592.96642  21565062.585    21565057.936
  22377252.842   -16008563.98243 -12467734.87742  22377253.426    22377249.988
  20410194.685   -26470421.60344 -20589464.74242  20410196.090    20410192.162
  23254495.217   -12505504.02243  -9703368.73042  23254496.479    23254493.252
  24581246.447    -5659952.98543  -4368152.97342  24581247.653    24581244.155
 03 12 26  2 25 30.0000000  0 10G29G26G17G30G 5G21G10G 6G18G16
  23529576.670   -10847490.85843  -8431464.71642  23529578.134    23529574.859
  23433765.949   -10036614.12843  -7807483.32142  23433767.831    23433764.928
  22220588.712   -16695515.29043 -12996235.87942  22220589.069    22220585.986
  21771313.403   -18641508.45943 -14512414.97142  21771315.114    21771311.233
  24410423.840    -5845019.24943  -4520099.20842  24410424.419    24410422.767
  21556178.127   -22240065.05143 -17323969.43542  21556179.025    21556174.379
  22393348.059   -15923983.14043 -12401827.71142  22393348.633    22393345.150
  20406293.618   -26490921.85744 -20605438.95042  20406295.008    20406291.060
  23234879.842   -12608583.07743  -9783689.99442  23234881.154    23234877.872
  24564866.913    -5746028.09143  -4435224.41442  24564868.102    24564864.515
 03 12 26  2 26  0.0000000  0 10G29G26G17G30G 5G21G10G 6G18G16
  23520239.473   -10896557.88643  -8469698.72942  23520240.982    23520237.670
  23418111.213   -10118880.09243  -7871586.59042  23418113.033    23418110.162
  22232171.704   -16634646.26743 -12948805.46142  22232172.020    22232168.988
  21787923.856   -18554219.87143 -14444397.89642  21787925.571    21787921.706
  24431051.644    -5736619.43343  -4435631.87742  24431052.244    24431050.606
  21547335.462   -22286533.33943 -17360178.45142  21547336.381    21547331.722
  22409510.491   -15839049.01443 -12335645.25842  22409511.054    22409507.567
  20402458.227   -26511076.97444 -20621144.22742  20402459.615    20402455.662
  23215300.774   -12711471.66943  -9863862.86642  23215302.092    23215298.709
  24548546.519    -5831791.95443  -4502053.32042  24548547.741    24548544.033
 03 12 26  2 26 30.0000000  0 10G29G26G17G30G 5G21G10G 6G18G16
  23510971.370   -10945261.75943  -8507649.75742  23510972.879    23510969.583
  23402499.938   -10200917.49843  -7935511.77442  23402501.737    23402498.893
  22243775.593   -16573667.30843 -12901289.37342  22243775.872    22243772.870
  21804595.510   -18466609.71643 -14376130.24342  21804597.209    21804593.381
  24451677.255    -5628231.13243  -4351173.50442  24451677.908    24451676.292
  21538535.015   -22332779.81743 -17396214.62642  21538535.942    21538531.276
  22425740.841   -15753757.78743 -12269184.54342  22425741.425    22425737.923
  20398690.101   -26530878.57144 -20636574.02142  20398691.485    20398687.519
  23195759.661   -12814160.58443  -9943880.11642  23195761.035    23195757.623
  24532287.168    -5917235.14343  -4568632.35242  24532288.332    24532284.733
 03 12 26  2 27  0.0000000  0 10G29G26G17G30G 5G21G10G 6G18G16
  23501772.465   -10993602.34443  -8545317.71542  23501774.013    23501770.625
  23386932.511   -10282724.73443  -7999257.59142  23386934.249    23386931.397
  22255399.791   -16512581.66643 -12853690.15742  22255400.070    22255397.040
  21821327.343   -18378683.19743 -14307616.08142  21821329.063    21821325.265
  24472299.778    -5519859.26943  -4266727.93042  24472300.430    24472298.785
  21529776.240   -22378807.21343 -17432080.09142  21529777.188    21529772.517
  22442038.257   -15668114.27343 -12202449.31842  22442038.830    22442035.347
  20394989.073   -26550327.50644 -20651729.02342  20394990.467    20394986.490
  23176256.674   -12916649.52243 -10023741.56242  23176258.019    23176254.512
  24516088.917    -6002357.51443  -4634961.39342  24516090.003    24516086.454
 03 12 26  2 27 30.0000000  0 10G29G26G17G30G 5G21G10G 6G18G16
  23492642.855   -11041578.10643  -8582701.36342  23492644.450    23492641.148
  23371409.241   -10364299.75143  -8062822.45742  23371411.051    23371408.124
  22267043.959   -16451391.14443 -12806009.21442  22267044.223    22267041.211
  21838118.658   -18290444.07643 -14238858.32942  21838120.371    21838116.592
  24492918.474    -5411507.35243  -4182297.89542  24492919.129    24492917.511
  21521058.912   -22424616.84943 -17467775.87342  21521059.868    21521055.209
  22458401.933   -15582122.34243 -12135442.60742  22458402.544    22458399.065
  20391355.266   -26569423.30044 -20666608.84842  20391356.643    20391352.679
  23156791.833   -13018937.71843 -10103446.57842  23156793.173    23156789.642
  24499951.873    -6087157.81243  -4701039.46942  24499953.138    24499949.417
 03 12 26  2 28  0.0000000  0 10G29G26G17G30G 5G21G10G 6G18G16
  23483583.650   -11089184.96243  -8619797.57442  23483585.183    23483581.869
  23355931.297   -10445636.96943  -8126202.03842  23355933.027    23355930.100
  22278708.211   -16390094.96943 -12758245.94742  22278708.482    22278705.455
  21854969.247   -18201893.55143 -14169857.92442  21854970.959    21854967.232
  24513533.254    -5303176.04443  -4097883.94442  24513533.895    24513532.296
  21512383.320   -22470207.15943 -17503300.75142  21512384.265    21512379.617
  22474831.680   -15495783.22843 -12068165.35542  22474832.303    22474828.845
  20387789.224   -26588162.90344 -20681211.12242  20387790.601    20387786.638
  23137366.002   -13121021.09543 -10182992.00042  23137367.278    23137363.793
  24483877.001    -6171631.63943  -4766863.15642  24483878.208    24483874.539
 03 12 26  2 28 30.0000000  0 10G29G26G17G30G 5G21G10G 6G18G16
  23474594.904   -11136421.10543  -8656604.90442  23474596.424    23474593.088
  23340499.069   -10526733.74543  -8189394.25742  23340500.803    23340497.837
  22290392.285   -16328694.63043 -12710401.51342  22290392.577    22290389.526
  21871878.385   -18113035.47143 -14100617.86842  21871880.082    21871876.325
  24534143.486    -5194868.86943  -4013488.79942  24534144.040    24534142.526
  21503749.237   -22515579.21143 -17538655.55842  21503750.215    21503745.583
  22491326.774   -15409100.92143 -12000620.69242  22491327.398    22491323.951
  20384291.063   -26606545.78544 -20695535.43242  20384292.442    20384288.469
  23117979.374   -13222898.20243 -10262376.69342  23117980.679    23117977.108
  24467864.509    -6255777.65543  -4832431.40242  24467865.686    24467861.985
 03 12 26  2 29  0.0000000  0 10G29G26G17G30G 5G21G10G 6G18G16
  23465677.588   -11183281.61843  -8693119.54342  23465679.154    23465675.775
  23325113.698   -10607584.30043  -8252394.62142  23325115.378    23325112.416
  22302096.489   -16267188.62243 -12662474.73942  22302096.772    22302093.722
  21888845.939   -18023870.22143 -14031138.45742  21888847.654    21888843.903
  24554749.125    -5086585.82443  -3929112.44342  24554749.645    24554748.163
  21495157.179   -22560730.59843 -17573838.41942  21495158.146    21495153.516
  22507887.097   -15322075.69543 -11932808.80642  22507887.734    22507884.301
  20380861.558   -26624567.89044 -20709578.61342  20380862.930    20380858.974
  23098632.802   -13324564.77143 -10341597.33342  23098634.113    23098630.518
  24451915.284    -6339590.84143  -4897740.29942  24451916.488    24451912.707
 03 12 26  2 29 30.0000000  0 10G29G26G17G30G 5G21G10G 6G18G16
  23456831.568   -11229767.65743  -8729342.38742  23456833.105    23456829.757
  23309775.114   -10688188.71243  -8315203.18242  23309776.802    23309773.783
  22313819.992   -16205581.19243 -12614468.93842  22313820.253    22313817.199
  21905870.725   -17934404.37743 -13961424.81242  21905872.448    21905868.666
  24575348.968    -4978332.99543  -3844759.60342  24575349.610    24575347.983
  21486606.340   -22605665.42143 -17608852.53142  21486607.324    21486602.677
  22524511.470   -15234713.89343 -11864734.66742  22524512.127    22524508.702
  20377500.247   -26642231.60944 -20723342.53942  20377501.615    20377497.662
  23079326.065   -13426021.89143 -10420654.74942  23079327.385    23079323.808
  24436029.212    -6423072.31643  -4962790.72142  24436030.456    24436026.734
 03 12 26  2 30  0.0000000  0 10G29G26G17G30G 5G21G10G 6G18G16
  23448057.847   -11275874.07443  -8765269.42942  23448059.356    23448055.937
  23294484.639   -10768540.47343  -8377814.88142  23294486.348    23294483.230
  22325563.149   -16143870.42243 -12566382.60742  22325563.401    22325560.334
  21922952.696   -17844638.06443 -13891477.04142  21922954.412    21922950.649
  24595943.055    -4870110.03843  -3760430.05742  24595943.802    24595942.169
  21478097.273   -22650380.85743 -17643695.69142  21478098.255    21478093.568
  22541199.911   -15147015.59143 -11796398.30842  22541200.553    22541197.116
  20374207.931   -26659532.65844 -20736823.85842  20374209.313    20374205.376
  23060060.202   -13527264.45143 -10499545.00342  23060061.487    23060057.846
  24420207.237    -6506216.86243  -5027578.61342  24420208.553    24420204.669
 03 12 26  2 30 30.0000000  0 10G29G26G17G30G 5G21G10G 6G18G16
  23439355.683   -11321603.44143  -8800902.65042  23439357.243    23439353.849
  23279241.879   -10848641.37043  -8440231.08642  23279243.620    23279240.452
  22337324.818   -16082062.26643 -12518220.39542  22337325.112    22337322.038
  21940090.312   -17754579.30443 -13821301.38342  21940092.076    21940088.257
  24616530.183    -4761924.41543  -3676129.61942  24616530.880    24616529.241
  21469628.937   -22694882.22343 -17678372.04342  21469629.927    21469625.190
  22557950.836   -15058988.88043 -11727806.05642  22557951.481    22557948.055
  20370983.999   -26676474.53844 -20750025.31142  20370985.386    20370981.434
  23040834.557   -13628295.67543 -10578270.55242  23040835.839    23040832.226
  24404448.900    -6589027.12843  -5092106.02242  24404450.283    24404446.235
 03 12 26  2 31  0.0000000  0 10G29G26G17G30G 5G21G10G 6G18G16
  23430727.356   -11366945.63943  -8836234.19442  23430728.913    23430725.484
  23264049.018   -10928480.03943  -8502442.97342  23264050.763    23264047.607
  22349106.380   -16020149.89343 -12469976.97842  22349106.650    22349103.553
  21957284.534   -17664223.18943 -13750894.03342  21957286.291    21957282.505
  24637111.143    -4653771.23743  -3591854.45542  24637111.842    24637110.084
  21461202.663   -22739162.42243 -17712876.06042  21461203.667    21461198.916
  22574765.168   -14970628.86943 -11658954.08842  22574765.801    22574762.412
  20367830.114   -26693048.25944 -20762939.88742  20367831.494    20367827.542
  23021651.087   -13729105.59343 -10656823.68142  23021652.301    23021648.597
  24388756.133    -6671492.92843  -5156365.01042  24388757.523    24388753.482
 03 12 26  2 31 30.0000000  0 10G29G26G17G30G 5G21G10G 6G18G16
  23422172.013   -11411904.16743  -8871266.77142  23422173.549    23422170.080
  23248905.562   -11008059.13843  -8564452.59942  23248907.330    23248904.180
  22360906.429   -15958139.83943 -12421657.43742  22360906.761    22360903.678
  21974533.569   -17573578.75343 -13680262.00642  21974535.333    21974531.515
  24657684.373    -4545658.69843  -3507610.95342  24657685.084    24657683.262
  21452817.385   -22783227.24543 -17747212.25042  21452818.393    21452813.629
  22591641.250   -14881944.50743 -11589849.38242  22591641.868    22591638.495
  20364745.383   -26709258.45444 -20775571.19442  20364746.779    20364742.827
  23002509.003   -13829697.80543 -10735207.16942  23002510.175    23002506.452
  24373128.270    -6753617.87243  -5220358.40942  24373129.646    24373125.561
 03 12 26  2 32  0.0000000  0 10G29G26G17G30G 5G21G10G 6G18G16
  23413690.837   -11456472.63643  -8905995.40042  23413692.419    23413688.966
  23233812.977   -11087370.89243  -8626253.90842  23233814.742    23233811.656
  22372725.731   -15896028.91443 -12373259.30542  22372726.055    22372722.964
  21991837.784   -17482644.73543 -13609404.33642  21991839.534    21991835.736
  24678250.195    -4437585.01343  -3423397.72542  24678250.939    24678249.042
  21444473.737   -22827073.33943 -17781378.00642  21444474.728    21444469.960
  22608579.335   -14792934.16943 -11520490.66342  22608579.957    22608576.585
  20361730.905   -26725099.54244 -20787914.88742  20361732.281    20361728.365
  22983409.516   -13930066.04843 -10813416.11742  22983410.671    22983407.013
  24357566.531    -6835395.37443  -5284081.07142  24357567.806    24357563.854
 03 12 26  2 32 30.0000000  0 10G29G26G17G30G 5G21G10G 6G18G16
  23405283.670   -11500652.56043  -8940421.28242  23405285.252    23405281.748
  23218771.190   -11166415.74643  -8687847.23142  23218772.952    23218769.889
  22384563.349   -15833821.86843 -12324786.26642  22384563.654    22384560.569
  22009195.687   -17391428.17743 -13538326.50042  22009197.417    22009193.644
  24698807.269    -4329556.72943  -3339219.88642  24698808.047    24698806.247
  21436170.999   -22870704.44543 -17815376.23842  21436172.002    21436167.172
  22625578.103   -14703605.09043 -11450883.57342  22625578.711    22625575.342
  20358786.154   -26740574.19944 -20799973.04642  20358787.534    20358783.626
  22964352.298   -14030212.25143 -10891452.07042  22964353.473    22964349.622
  24342070.559    -6916827.33843  -5347534.48042  24342071.761    24342067.739
 03 12 26  2 33  0.0000000  0 10G29G26G17G30G 5G21G10G 6G18G16
  23396951.895   -11544436.20643  -8974538.36942  23396953.479    23396949.995
  23203781.873   -11245184.87543  -8749225.71142  23203783.625    23203780.552
  22396420.105   -15771514.16743 -12276234.79942  22396420.406    22396417.303
  22026607.883   -17299926.61943 -13467026.58342  22026609.618    22026605.848
  24719356.301    -4221570.89343  -3255075.13742  24719357.123    24719355.345
  21427910.169   -22914115.25643 -17849202.81142  21427911.172    21427906.317
  22642637.912   -14613954.90743 -11381026.27642  22642638.581    22642635.153
  20355912.409   -26755675.70944 -20811740.44742  20355913.808    20355909.883
  22945338.755   -14130128.66743 -10969308.94542  22945339.983    22945336.155
  24326641.789    -6997905.76243  -5410712.40542  24326642.991    24326638.997
 03 12 26  2 33 30.0000000  0 10G29G26G17G30G 5G21G10G 6G18G16
  23388694.616   -11587828.65843  -9008350.62142  23388696.212    23388692.710
  23188844.287   -11323682.31643  -8810392.49842  23188845.960    23188842.940
  22408294.450   -15709113.75543 -12227611.08342  22408294.773    22408291.697
  22044072.325   -17208150.38543 -13395512.63442  22044074.048    22044070.284
  24739895.331    -4113637.66443  -3170971.33542  24739896.207    24739894.395
  21419689.793   -22957313.61543 -17882863.83742  21419690.769    21419685.903
  22659756.956   -14523993.89143 -11310926.76842  22659757.578    22659754.162
  20353108.534   -26770410.05044 -20823221.73542  20353109.935    20353106.021
  22926367.976   -14229820.62043 -11046990.92242  22926369.191    22926365.306
  24311279.314    -7078635.52043  -5473618.64442  24311280.558    24311276.491
 03 12 26  2 34  0.0000000  0 10G29G26G17G30G 5G21G10G 6G18G16
  23380513.473   -11630820.54743  -9041850.75442  23380515.061    23380511.601
  23173960.426   -11401897.30843  -8871339.18942  23173962.152    23173959.031
  22420187.665   -15646614.52343 -12178910.37542  22420187.941    22420184.896
  22061589.794   -17116095.37043 -13323781.45842  22061591.532    22061587.799
  24760425.227    -4005752.34343  -3086904.89242  24760426.152    24760424.296
  21411511.088   -23000292.82943 -17916354.10242  21411512.073    21411507.185
  22676935.996   -14433717.57543 -11240581.57542  22676936.583    22676933.135
  20350376.173   -26784768.78344 -20834410.34642  20350377.544    20350373.636
  22907441.547   -14329279.12743 -11124491.00042  22907442.810    22907438.903
  24295984.980    -7159007.33143  -5536245.96342  24295986.257    24295982.237
 03 12 26  2 34 30.0000000  0 10G29G26G17G30G 5G21G10G 6G18G16
  23372408.437   -11673412.84643  -9075039.51642  23372410.057    23372406.493
  23159130.277   -11479829.89143  -8932065.82142  23159132.011    23159128.893
  22432098.938   -15584020.41543 -12130135.73242  22432099.205    22432096.109
  22079159.136   -17023767.75743 -13251837.86742  22079160.901    22079157.152
  24780944.991    -3897920.69343  -3002880.29642  24780945.800    24780944.071
  21403373.462   -23043056.14243 -17949676.13642  21403374.448    21403369.572
  22694173.767   -14343132.26843 -11169995.60642  22694174.404    22694170.933
  20347714.883   -26798753.85344 -20845307.79242  20347716.266    20347712.358
  22888559.456   -14428504.90943 -11201809.72742  22888560.742    22888556.852
  24280758.655    -7239021.97543  -5598594.96442  24280759.988    24280755.916
 03 12 26  2 35  0.0000000  0 10G29G26G17G30G 5G21G10G 6G18G16
  23364379.619   -11715604.00043  -9107915.69042  23364381.261    23364377.776
  23144354.410   -11557477.23943  -8992570.18442  23144356.161    23144353.068
  22444027.946   -15521333.07343 -12081288.43642  22444028.230    22444025.111
  22096779.549   -16931171.55043 -13179684.98242  22096781.313    22096777.617
  24801453.954    -3790145.92243  -2918900.00742  24801454.684    24801452.901
  21395276.719   -23085604.84243 -17982830.93542  21395277.670    21395272.782
  22711469.647   -14252241.76943 -11099171.82642  22711470.276    22711466.841
  20345124.829   -26812364.70944 -20855913.64142  20345126.186    20345122.280
  22869721.848   -14527497.02943 -11278946.38442  22869723.091    22869719.143
  24265600.585    -7318678.03043  -5660664.55842  24265601.891    24265597.742
 03 12 26  2 35 30.0000000  0 10G29G26G17G30G 5G21G10G 6G18G16
  23356427.975   -11757390.10043  -9140476.24742  23356429.612    23356426.061
  23129633.852   -11634834.29243  -9052848.35142  23129635.610    23129632.444
  22455974.918   -15458551.37843 -12032367.62142  22455975.199    22455972.018
  22114451.001   -16838307.99343 -13107323.76742  22114452.726    22114449.010
  24821951.885    -3682429.02243  -2834964.81642  24821952.645    24821950.754
  21387221.041   -23127937.59943 -18015817.47242  21387221.980    21387217.110
  22728823.415   -14161047.06343 -11028111.01242  22728824.039    22728820.605
  20342606.535   -26825598.41144 -20866225.60642  20342607.897    20342603.998
  22850929.390   -14626251.68743 -11355897.99942  22850930.706    22850926.760
  24250511.501    -7397971.57443  -5722451.66542  24250512.761    24250508.601
 03 12 26  2 36  0.0000000  0  9G29G26G17G30G21G10G 6G18G16
  23348555.728   -11798759.06543  -9172711.76442  23348557.347    23348553.751
  23114971.011   -11711887.76843  -9112889.97042  23114972.749    23114969.642
  22467941.533   -15395666.46743 -11983366.38142  22467941.800    22467938.604
  22132174.481   -16745170.21443 -13034748.88142  22132176.189    22132172.470
  21379208.274   -23170044.81243 -18048628.25842  21379209.212    21379204.346
  22746236.360   -14069541.40643 -10956807.88542  22746236.984    22746233.550
  20340162.150   -26838443.64144 -20876234.86842  20340163.522    20340159.620
  22832184.467   -14724756.71543 -11432655.10342  22832185.790    22832181.776
  24235493.687    -7476890.42643  -5783946.81442  24235494.944    24235490.807
 03 12 26  2 36 30.0000000  0  9G29G26G17G30G21G10G 6G18G16
  23340759.115   -11839730.39343  -9204637.42942  23340760.711    23340757.091
  23100362.491   -11788655.76143  -9172709.13142  23100364.206    23100361.142
  22479923.485   -15332700.69343 -11934302.12642  22479923.775    22479920.566
  22149945.528   -16651782.93743 -12961979.57842  22149947.220    22149943.575
  21371234.223   -23211948.55043 -18081280.49242  21371235.157    21371230.315
  22763703.775   -13977749.46143 -10885281.67942  22763704.403    22763700.970
  20337787.791   -26850920.98344 -20885957.46042  20337789.158    20337785.251
  22813483.308   -14823032.01743 -11509233.20942  22813484.624    22813480.497
  24220543.494    -7555453.94043  -5845165.06942  24220544.771    24220540.657
 03 12 26  2 37  0.0000000  0  9G29G26G17G30G21G10G 6G18G16
  23333041.895   -11880284.48043  -9236237.97642  23333043.523    23333039.800
  23085812.157   -11865117.87643  -9232289.95242  23085813.881    23085810.859
  22491923.981   -15269637.61143 -11885162.04842  22491924.272    22491921.079
  22167766.727   -16558131.67143 -12889004.57042  22167768.428    22167764.783
  21363302.233   -23253631.31343 -18113760.53442  21363303.136    21363298.325
  22781228.410   -13885656.78343 -10813521.13942  22781229.032    22781225.626
  20335486.959   -26863011.85544 -20895378.91042  20335488.322    20335484.431
  22794829.452   -14921058.49743 -11585617.40642  22794830.757    22794826.665
  24205664.681    -7633642.56243  -5906091.21342  24205665.886    24205661.777
 03 12 26  2 37 30.0000000  0  9G29G26G17G30G21G10G 6G18G16
  23325402.575   -11920429.25843  -9267519.57542  23325404.232    23325400.475
  23071318.819   -11941280.56443  -9291637.45042  23071320.528    23071317.544
  22503940.947   -15206488.00143 -11835954.54242  22503941.231    22503938.077
  22185635.619   -16464229.86643 -12815834.33842  22185637.322    22185633.751
  21355410.229   -23295103.85543 -18146076.77042  21355411.154    21355406.337
  22798807.759   -13793276.54043 -10741536.52042  22798808.381    22798805.028
  20333258.025   -26874724.95044 -20904505.98242  20333259.379    20333255.483
  22776221.581   -15018843.57643 -11661813.52442  22776222.839    22776218.665
  24190855.723    -7711464.09743  -5966731.30842  24190856.951    24190852.741
 03 12 26  2 38  0.0000000  0  9G29G26G17G30G21G10G 6G18G16
  23317842.872   -11960155.62443  -9298475.14042  23317844.522    23317840.764
  23056884.423   -12017133.53043  -9350743.60142  23056886.100    23056883.160
  22515975.561   -15143245.60143 -11786674.74242  22515975.841    22515972.716
  22203552.998   -16370073.47543 -12742465.72142  22203554.716    22203551.139
  21347559.502   -23336359.57443 -18178224.05842  21347560.443    21347555.637
  22816442.646   -13700604.54243 -10669324.56942  22816443.245    22816439.897
  20331102.545   -26886052.19344 -20913332.39342  20331103.875    20331099.991
  22757661.355   -15116378.06443 -11737814.35842  22757662.609    22757658.518
  24176118.337    -7788909.16043  -6027078.05242  24176119.600    24176115.384
 03 12 26  2 38 30.0000000  0  9G29G26G17G30G21G10G 6G18G16
  23310363.036   -11999462.55243  -9329103.87642  23310364.672    23310360.908
  23042509.494   -12092674.22543  -9409606.43042  23042511.103    23042508.139
  22528027.477   -15079912.31743 -11737324.11442  22528027.729    22528024.679
  22221518.012   -16275666.49043 -12668901.83742  22221519.732    22221516.184
  21339749.893   -23377399.12743 -18210202.89542  21339750.852    21339746.054
  22834132.336   -13607644.74443 -10596888.34542  22834132.933    22834129.575
  20329020.569   -26896993.12544 -20921857.78442  20329021.884    20329017.975
  22739149.022   -15213660.78743 -11813619.03442  22739150.287    22739146.088
  24161452.762    -7865976.53243  -6087130.49442  24161454.083    24161449.875
 03 12 26  2 39  0.0000000  0  9G29G26G17G30G21G10G 6G18G16
  23302963.202   -12038348.68843  -9359404.71542  23302964.846    23302961.118
  23028194.330   -12167900.43343  -9468224.19342  23028195.998    23028192.926
  22540096.364   -15016489.76543 -11687903.93542  22540096.637    22540093.568
  22239530.022   -16181013.08843 -12595145.94642  22239531.752    22239528.181
  21331981.116   -23418224.32843 -18242014.71242  21331982.065    21331977.237
  22851875.961   -13514401.31743 -10524231.12042  22851876.555    22851873.189
  20327012.076   -26907547.72844 -20930082.14142  20327013.406    20327009.491
  22720684.659   -15310691.50043 -11889227.32242  22720685.887    22720681.680
  24146859.338    -7942665.11143  -6146887.76842  24146860.628    24146856.434
 03 12 26  2 39 30.0000000  0  9G29G26G17G30G21G10G 6G18G16
  23295643.419   -12076814.15143  -9389377.75942  23295645.064    23295641.348
  23013939.313   -12242810.82543  -9526595.86442  23013941.007    23013937.893
  22552181.700   -14952980.87343 -11638416.47942  22552181.967    22552178.907
  22257587.809   -16086118.31143 -12521201.96542  22257589.573    22257585.995
  21324252.657   -23458837.75743 -18273661.50842  21324253.571    21324248.744
  22869672.639   -13420878.93343 -10451356.51742  22869673.254    22869669.914
  20325076.963   -26917716.76544 -20938006.05542  20325078.288    20325074.349
  22702268.255   -15407470.01143 -11964639.07942  22702269.494    22702265.299
  24132338.070    -8018974.48043  -6206349.56342  24132339.347    24132335.181
 03 12 26  2 40  0.0000000  0  9G29G26G17G30G21G10G 6G18G16
  23288404.442   -12114855.05443  -9419019.97642  23288406.015    23288402.360
  22999745.373   -12317400.30543  -9584717.49342  22999747.087    22999743.964
  22564283.712   -14889384.51543 -11588860.86642  22564283.935    22564280.883
  22275691.460   -15990983.56843 -12447071.00442  22275693.168    22275689.607
  21316564.790   -23499237.65943 -18305141.92542  21316565.729    21316560.866
  22887522.157   -13327078.92443 -10378265.59742  22887522.804    22887519.441
  20323215.780   -26927497.26944 -20945627.22342  20323217.096    20323213.176
  22683900.677   -15503992.26943 -12039851.18942  22683901.862    22683897.618
  24117889.784    -8094901.03043  -6265513.04442  24117891.001    24117886.849
 03 12 26  2 40 30.0000000  0  9G29G26G17G30G21G10G 6G18G16
  23281247.158   -12152466.48443  -9448327.54842  23281248.729    23281245.078
  22985613.702   -12391662.54543  -9642584.11342  22985615.458    22985612.260
  22576402.779   -14825698.39243 -11539235.30842  22576402.984    22576399.940
  22293840.599   -15895608.88743 -12372753.07342  22293842.333    22293838.724
  21308918.052   -23539421.52344 -18336453.99642  21308918.995    21308914.106
  22905424.505   -13233001.34443 -10304958.38242  22905425.155    22905421.757
  20321429.322   -26936885.20244 -20952942.48542  20321430.636    20321426.696
  22665582.733   -15600253.42643 -12114859.81642  22665583.942    22665579.725
  24103515.272    -8170439.27543  -6324373.95942  24103516.473    24103512.308
 03 12 26  2 41  0.0000000  0 10G29G26G15G17G30G21G10G 6G18G16
  23274169.499   -12189659.83343  -9477309.34642  23274171.026    23274167.332
  22971542.391   -12465607.69143  -9700203.66142  22971544.200    22971540.862
  24734196.293    -4300681.70953  -3339834.01852  24734196.534    24734196.043
  22588536.166   -14761936.98443 -11489551.08642  22588536.400    22588533.304
  22312032.360   -15800010.82943 -12298261.08342  22312034.084    22312030.496
  21301309.781   -23579403.16343 -18367608.49342  21301310.759    21301305.803
  22923376.615   -13138662.41243 -10231447.52042  22923377.212    22923373.859
  20319715.216   -26945892.77244 -20959961.35942  20319716.551    20319712.600
  22647312.308   -15696265.13143 -12189674.09242  22647313.466    22647309.241
  24089212.486    -8245600.78943  -6382941.30942  24089213.627    24089209.507
 03 12 26  2 41 30.0000000  0 10G29G26G15G17G30G21G10G 6G18G16
  23267176.147   -12226409.77943  -9505945.62342  23267177.712    23267174.052
  22957536.404   -12539209.29143  -9757555.50842  22957538.224    22957534.851
  24718708.841    -4382067.97143  -3403251.80442  24718709.389    24718708.679
  22600688.153   -14698077.74443 -11439790.62842  22600688.423    22600685.304
  22330270.319   -15704169.35443 -12223579.42342  22330272.060    22330268.510
  21293744.295   -23619159.93043 -18398587.75942  21293745.270    21293740.314
  22941382.289   -13044042.01143 -10157717.32642  22941382.862    22941379.508
  20318078.160   -26954495.61144 -20966664.86142  20318079.483    20318075.517
  22629094.021   -15792002.18243 -12264274.32442  22629095.218    22629091.115
  24074986.150    -8320360.25643  -6441195.38842  24074987.318    24074983.215
 03 12 26  2 42  0.0000000  0 10G29G26G15G17G30G21G10G 6G18G16
  23260265.090   -12262727.71943  -9534245.27842  23260266.620    23260262.977
  22943593.982   -12612477.09943  -9814647.26642  22943595.771    22943592.396
  24703237.310    -4463370.73843  -3466604.52042  24703237.957    24703237.037
  22612856.084   -14634134.71943 -11389964.88942  22612856.384    22612853.245
  22348551.556   -15608100.85543 -12148720.84642  22348553.288    22348549.735
  21286219.029   -23658705.31243 -18429402.31742  21286220.010    21286215.051
  22959438.417   -12949156.52843 -10083780.57842  22959438.955    22959435.605
  20316515.780   -26962705.84044 -20973062.43242  20316517.125    20316513.148
  22610925.963   -15887475.77143 -12338669.27942  22610927.174    22610923.017
  24060834.239    -8394728.62743  -6499144.71642  24060835.395    24060831.332
 03 12 26  2 42 30.0000000  0 10G29G26G15G17G30G21G10G 6G18G16
  23253437.351   -12298607.53043  -9562203.54042  23253438.868    23253435.196
  22929716.507   -12685403.74043  -9871473.17442  22929718.270    22929714.856
  24687782.437    -4544585.77443  -3529888.89042  24687783.182    24687782.208
  22625040.653   -14570104.36843 -11340071.09642  22625040.955    22625037.822
  22366876.234   -15511804.12643 -12073684.45042  22366877.936    22366874.473
  21278734.799   -23698035.01944 -18460048.81542  21278735.778    21278730.822
  22977545.177   -12854004.87043 -10009636.41342  22977545.723    22977542.343
  20315029.154   -26970518.15444 -20979149.93842  20315030.495    20315026.513
  22592809.206   -15982679.93343 -12412854.28942  22592810.395    22592806.225
  24046758.010    -8468699.63143  -6556784.40842  24046759.154    24046755.052
 03 12 26  2 43  0.0000000  0 10G29G26G15G17G30G21G10G 6G18G16
  23246692.765   -12334050.38643  -9589821.31742  23246694.323    23246690.605
  22915903.889   -12757989.14843  -9928033.18742  22915905.695    22915902.256
  24672343.740    -4625716.14643  -3593107.30442  24672344.552    24672343.307
  22637241.026   -14505990.74143 -11290112.41842  22637241.365    22637238.244
  22385243.061   -15415285.59843 -11998475.19542  22385244.738    22385241.232
  21271290.878   -23737152.93344 -18490530.28042  21271291.862    21271286.890
  22995701.384   -12758593.05043  -9935289.53142  22995702.015    22995698.639
  20313617.834   -26977934.63144 -20984929.00442  20313619.188    20313615.186
  22574743.420   -16077615.86243 -12486830.26942  22574744.643    22574740.489
  24032757.229    -8542274.21243  -6614115.19542  24032758.337    24032754.182
 03 12 26  2 43 30.0000000  0 10G29G26G15G17G30G21G10G 6G18G16
  23240031.672   -12369054.68643  -9617097.35442  23240033.198    23240029.458
  22902156.806   -12830230.35743  -9984324.98642  22902158.624    22902155.197
  24656921.121    -4706762.31243  -3656260.08842  24656922.015    24656920.692
  22649457.113   -14441794.73043 -11240089.55042  22649457.465    22649454.335
  22403651.518   -15318548.71843 -11923095.82242  22403653.225    22403649.716
  21263887.140   -23776059.73744 -18520847.24642  21263888.107    21263883.137
  23013906.464   -12662924.34143  -9860742.47242  23013907.121    23013903.756
  20312281.998   -26984954.51344 -20990399.03342  20312283.342    20312279.351
  22556728.979   -16172282.02843 -12560596.06942  22556730.195    22556726.022
  24018832.137    -8615450.88143  -6671135.92342  24018833.176    24018829.054
 03 12 26  2 44  0.0000000  0 10G29G26G15G17G30G21G10G 6G18G16
  23233454.949   -12403615.40443  -9644027.75442  23233456.483    23233452.760
  22888476.426   -12902120.96143 -10040343.59342  22888478.249    22888474.846
  24641515.216    -4787721.10443  -3719344.76442  24641515.995    24641514.738
  22661689.310   -14377514.06343 -11190000.72142  22661689.654    22661686.520
  22422101.445   -15221593.37243 -11847546.19942  22422103.166    22422099.631
  21256524.100   -23814752.64344 -18550997.53442  21256525.053    21256520.099
  23032160.617   -12566998.33343  -9785994.93442  23032161.243    23032157.826
  20311022.433   -26991573.48044 -20995556.66042  20311023.801    20311019.791
  22538766.869   -16266673.24143 -12634147.59742  22538768.098    22538763.975
  24004983.850    -8688224.05943  -6727842.25242  24004984.894    24004980.732
 03 12 26  2 44 30.0000000  0 10G29G26G15G17G30G21G10G 6G18G16
  23226962.263   -12437734.73643  -9670614.23442  23226963.794    23226960.035
  22874862.673   -12973661.69943 -10096089.57542  22874864.495    22874861.057
  24626125.121    -4868596.64243  -3782364.56242  24626125.833    24626124.633
  22673936.693   -14313153.46543 -11139849.59342  22673937.081    22673933.923
  22440591.708   -15124426.81343 -11771831.99942  22440593.386    22440589.845
  21249200.860   -23853236.48344 -18580984.92042  21249201.804    21249196.831
  23050462.272   -12470822.33043  -9711052.58542  23050462.894    23050459.512
  20309838.612   -26997794.53544 -21000404.22942  20309839.966    20309835.960
  22520856.721   -16360791.80643 -12707486.70242  22520857.941    22520853.658
  23991211.976    -8760595.86643  -6784235.81242  23991213.000    23991208.763
 03 12 26  2 45  0.0000000  0 10G29G26G15G17G30G21G10G 6G18G16
  23220555.333   -12471403.11143  -9696849.29442  23220556.901    23220553.159
  22861317.577   -13044841.76343 -10151554.52142  22861319.375    22861315.855
  24610752.214    -4949381.54643  -3845313.72142  24610752.998    24610751.709
  22686200.626   -14248706.05543 -11089630.83042  22686201.015    22686197.837
  22459122.850   -15027044.53743 -11695949.72542  22459124.563    22459121.095
  21241918.936   -23891503.12344 -18610803.05542  21241919.875    21241914.896
  23068812.441   -12374391.41343  -9635911.60542  23068813.096    23068809.721
  20308732.133   -27003609.01244 -21004934.98342  20308733.492    20308729.506
  22503000.162   -16454628.12143 -12780605.84442  22503001.409    22502997.240
  23977518.239    -8832556.71843  -6840309.15642  23977519.304    23977514.983
 03 12 26  2 45 30.0000000  0 10G29G26G15G17G30G21G10G 6G18G16
  23214232.992   -12504627.13343  -9722738.12642  23214234.565    23214230.771
  22847840.078   -13115666.23343 -10206742.36442  22847841.870    22847838.375
  24595394.969    -5030084.05443  -3908198.69242  24595395.837    24595394.445
  22698479.315   -14184181.13743 -11039351.66642  22698479.726    22698476.497
  22477693.040   -14929458.06543 -11619908.29442  22477694.736    22477691.127
  21234676.622   -23929561.67644 -18640459.04742  21234677.575    21234672.570
  23087208.969   -12277717.07843  -9560580.94642  23087209.620    23087206.200
  20307701.666   -27009024.15844 -21009154.56942  20307703.019    20307699.020
  22485196.113   -16548188.92543 -12853510.32342  22485197.349    22485193.085
  23963901.456    -8904112.87443  -6896067.14742  23963902.577    23963898.265
 03 12 26  2 46  0.0000000  0 10G29G26G15G17G30G21G10G 6G18G16
  23207996.549   -12537399.63043  -9748275.10542  23207998.151    23207994.360
  22834431.872   -13186126.56743 -10261646.48742  22834433.621    22834430.167
  24580054.346    -5110698.99743  -3971015.44642  24580055.339    24580053.865
  22710773.706   -14119573.83043 -10989008.30642  22710774.091    22710770.846
  22496302.334   -14831665.10943 -11543706.01942  22496304.017    22496300.642
  21227474.831   -23967407.28444 -18669949.10342  21227475.780    21227470.768
  23105652.301   -12180796.92143  -9485058.74042  23105652.906    23105649.483
  20306748.409   -27014033.60444 -21013058.02542  20306749.760    20306745.756
  22467445.848   -16641466.90743 -12926194.40442  22467447.071    22467442.842
  23950363.156    -8975256.87743  -6951503.98542  23950364.319    23950359.984
 03 12 26  2 46 30.0000000  0 10G29G26G15G17G30G21G10G 6G18G16
  23201846.211   -12569719.55243  -9773459.41542  23201847.786    23201844.074
  22821093.386   -13256220.54843 -10316265.13042  22821095.093    22821091.671
  24564730.286    -5191227.33443  -4033764.72742  24564731.322    24564729.638
  22723083.449   -14054885.91043 -10938602.13642  22723083.816    22723080.514
  22514950.325   -14733669.94643 -11467346.13042  22514951.967    22514948.428
  21220313.291   -24005041.35344 -18699274.32942  21220314.224    21220309.205
  23124141.566   -12083635.05443  -9409348.18942  23124142.186    23124138.761
  20305872.320   -27018637.36444 -21016645.36242  20305873.696    20305869.680
  22449749.622   -16734461.09443 -12998657.35642  22449750.853    22449746.543
  23936903.486    -9045987.69743  -7006618.85942  23936904.752    23936900.279
 03 12 26  2 47  0.0000000  0 10G29G26G15G17G30G21G10G 6G18G16
  23195782.101   -12601586.73343  -9798290.95642  23195783.640    23195779.945
  22807824.968   -13325946.17243 -10370596.74642  22807826.709    22807823.279
  24549422.358    -5271670.58443  -4096447.69642  24549423.386    24549421.721
  22735408.089   -13990119.38143 -10888134.70342  22735408.455    22735405.160
  22533635.743   -14635476.88543 -11390832.08142  22533637.436    22533634.016
  21213191.647   -24042465.72544 -18728436.15142  21213192.596    21213187.555
  23142676.000   -11986236.00643  -9333452.82042  23142676.627    23142673.189
  20305073.426   -27022835.54744 -21019916.66642  20305074.790    20305070.784
  22432107.480   -16827170.78643 -13070898.62742  22432108.755    22432104.404
  23923522.508    -9116304.82543  -7061411.38242  23923523.796    23923519.262
 03 12 26  2 47 30.0000000  0 10G29G26G15G17G30G21G10G 6G18G16
  23189805.046   -12632996.13943  -9822765.78442  23189806.614    23189802.847
  22794627.898   -13395297.12843 -10424636.40742  22794629.589    22794626.218
  24534131.253    -5352025.40743  -4159061.76542  24534132.337    24534130.614
  22747748.170   -13925271.60543 -10837603.96642  22747748.533    22747745.274
  22552359.003   -14537085.88643 -11314163.75742  22552360.712    22552357.191
  21206110.566   -24079676.99744 -18757431.92542  21206111.500    21206106.482
  23161255.706   -11888599.02443  -9257372.05042  23161256.315    23161252.899
  20304352.497   -27026623.90444 -21022868.62842  20304353.882    20304349.879
  22414520.483   -16919590.77543 -13142914.14142  22414521.751    22414517.440
  23910221.318    -9186202.87043  -7115877.34742  23910222.546    23910218.051
 03 12 26  2 48  0.0000000  0 10G29G26G15G17G30G21G10G 6G18G16
  23183914.593   -12663950.28443  -9846885.88542  23183916.229    23183912.436
  22781501.837   -13464274.72043 -10478385.13642  22781503.521    22781500.234
  24518856.146    -5432296.46743  -4221610.56342  24518857.132    24518855.381
  22760102.735   -13860348.07943 -10787014.20142  22760103.038    22760099.791
  22571118.267   -14438504.73843 -11237347.28542  22571120.000    22571116.476
  21199069.031   -24116680.41044 -18786265.73042  21199069.968    21199064.933
  23179879.187   -11790731.85943  -9181111.92342  23179879.795    23179876.444
  20303708.893   -27030006.12044 -21025504.11742  20303710.253    20303706.245
  22396988.199   -17011723.93243 -13214706.17942  22396989.407    22396984.959
  23896999.367    -9255684.41743  -7170018.76942  23897000.607    23896996.125
 03 12 26  2 48 30.0000000  0 10G29G26G15G17G30G21G10G 6G18G16
  23178111.791   -12694443.99843  -9870647.18442  23178113.459    23178109.634
  22768448.175   -13532872.14143 -10531837.63242  22768449.836    22768446.535
  24503597.632    -5512480.25643  -4284091.34142  24503598.525    24503596.827
  22772472.272   -13795345.66143 -10736362.96442  22772472.571    22772469.299
  22589914.079   -14339732.78143 -11160382.12042  22589915.799    22589912.249
  21192067.691   -24153472.55344 -18814934.90742  21192068.646    21192063.606
  23198546.649   -11692633.60043  -9104671.71642  23198547.280    23198543.898
  20303143.439   -27032977.57244 -21027819.52542  20303144.804    20303140.787
  22379511.364   -17103564.84043 -13286270.45542  22379512.609    22379508.227
  23883857.783    -9324743.82143  -7223831.24542  23883858.955    23883854.599
 03 12 26  2 49  0.0000000  0 10G29G26G15G17G30G21G10G 6G18G16
  23172397.226   -12724474.40643  -9894047.47242  23172398.838    23172395.017
  22755467.701   -13601084.84843 -10584990.34342  22755469.384    22755465.997
  24488355.963    -5592575.53943  -4346503.14642  24488356.779    24488355.136
  22784856.937   -13730263.97543 -10685649.96042  22784857.201    22784853.963
  22608745.566   -14240771.99843 -11083269.82242  22608747.328    22608743.745
  21185106.695   -24190052.87144 -18843439.02742  21185107.618    21185102.587
  23217257.793   -11594306.03743  -9028052.82142  23217258.363    23217254.954
  20302656.561   -27035536.14444 -21029813.20842  20302657.924    20302653.907
  22362090.842   -17195110.58443 -13357604.77342  22362092.041    22362087.525
  23870797.191    -9393377.90443  -7277312.30842  23870798.298    23870793.878
 03 12 26  2 49 30.0000000  0 10G29G26G15G17G30G21G10G 6G18G16
  23166771.077   -12754039.70843  -9917085.33742  23166772.709    23166768.891
  22742561.004   -13668909.83143 -10637840.93942  22742562.663    22742559.283
  24473131.084    -5672582.41143  -4408846.07742  24473131.943    24473130.226
  22797256.600   -13665103.47643 -10634875.54342  22797256.833    22797253.567
  22627612.607   -14141625.54443 -11006012.84542  22627614.347    22627610.768
  21178185.997   -24226421.39944 -18871778.11842  21178186.913    21178181.873
  23236012.028   -11495752.06743  -8951257.51642  23236012.573    23236009.151
  20302248.446   -27037680.76344 -21031484.33642  20302249.800    20302245.807
  22344726.677   -17286359.50043 -13428707.76342  22344727.902    22344723.529
  23857817.814    -9461584.49143  -7330460.24542  23857818.935    23857814.588
 03 12 26  2 50  0.0000000  0 10G29G26G15G17G30G21G10G 6G18G16
  23161233.081   -12783141.83043  -9939762.29042  23161234.729    23161230.856
  22729728.058   -13736347.35743 -10690389.62042  22729729.684    22729726.337
  24457922.319    -5752504.52043  -4471122.95242  24457923.217    24457921.458
  22809670.468   -13599868.35943 -10584042.97642  22809670.671    22809667.397
  22646513.535   -14042299.98343 -10928616.32242  22646515.284    22646511.786
  21171304.840   -24262582.07444 -18899955.24242  21171305.771    21171300.714
  23254808.082   -11396978.18343  -8874290.84142  23254808.618    23254805.183
  20301918.629   -27039413.87244 -21032834.80642  20301919.986    20301916.008
  22327418.772   -17377312.97343 -13499580.56942  22327419.988    22327415.532
  23844919.487    -9529365.41143  -7383276.50542  23844920.642    23844916.201
 03 12 26  2 50 30.0000000  0 10G29G26G15G17G30G21G10G 6G18G16
  23155783.767   -12811778.06743  -9962076.21942  23155785.413    23155781.515
  22716969.627   -13803393.33543 -10742633.19742  22716971.255    22716967.860
  24442729.823    -5832340.94743  -4533333.06342  24442730.793    24442729.075
  22822098.450   -13534558.48943 -10533152.17242  22822098.687    22822095.471
  22665448.298   -13942797.59043 -10851081.96542  22665450.001    22665446.379
  21164463.361   -24298534.30544 -18927969.94542  21164464.266    21164459.210
  23273645.609   -11297986.37043  -8797154.36642  23273646.123    23273642.699
  20301667.504   -27040733.66944 -21033863.21142  20301668.835    20301664.831
  22310167.653   -17467968.23043 -13570220.97142  22310168.854    22310164.445
  23832102.733    -9596717.73043  -7435758.78742  23832103.855    23832099.433
 03 12 26  2 51  0.0000000  0 10G29G26G15G17G30G21G10G 6G18G16
  23150424.193   -12839942.73943  -9984022.67742  23150425.791    23150421.941
  22704287.056   -13870040.60443 -10794566.08342  22704288.675    22704285.273
  24427554.413    -5912087.73343  -4595473.30142  24427555.436    24427553.681
  22834541.340   -13469170.40343 -10482200.41042  22834541.591    22834538.452
  22684416.758   -13843117.37143 -10773409.10242  22684418.455    22684414.978
  21157662.221   -24334274.48244 -18955819.40942  21157663.131    21157658.079
  23292524.804   -11198775.45543  -8719847.15042  23292525.309    23292521.923
  20301495.938   -27041635.14744 -21034565.65442  20301497.287    20301493.279
  22292974.310   -17558319.29543 -13640624.35742  22292975.573    22292971.104
  23819368.745    -9663635.35343  -7487902.35142  23819369.821    23819365.420
 03 12 26  2 51 30.0000000  0 10G29G26G15G17G30G21G10G 6G18G16
  23145153.899   -12867638.26843 -10005603.57642  23145155.474    23145151.609
  22691680.154   -13936290.15943 -10846189.08342  22691681.764    22691678.367
  24412395.273    -5991749.11343  -4657547.00142  24412396.266    24412394.515
  22846998.252   -13403708.73043 -10431191.31242  22846998.533    22846995.380
  22703417.754   -13743266.67443 -10695603.33842  22703419.440    22703415.866
  21150900.611   -24369806.84244 -18983506.94042  21150901.530    21150896.478
  23311444.294   -11099352.68143  -8642374.85442  23311444.799    23311441.440
  20301403.408   -27042121.35144 -21034944.51042  20301404.746    20301400.739
  22275838.542   -17648368.50043 -13710792.52142  22275839.804    22275835.355
  23806716.965    -9730120.61943  -7539709.01142  23806718.053    23806713.668
 03 12 26  2 52  0.0000000  0 10G29G26G15G17G30G21G10G 6G18G16
  23139973.830   -12894859.59943 -10026814.97842  23139975.382    23139971.496
  22679150.165   -14002135.30743 -10897496.94342  22679151.834    22679148.419
  24397253.035    -6071321.74743  -4719551.52442  24397253.951    24397252.219
  22859469.694   -13338170.66043 -10380122.69842  22859469.984    22859466.856
  22722451.120   -13643245.06743 -10617664.44042  22722452.873    22722449.346
  21144179.146   -24405128.28244 -19011030.12142  21144180.066    21144175.016
  23330404.243   -10999717.30043  -8564736.89142  23330404.735    23330401.431
  20301390.762   -27042187.84944 -21034996.32342  20301392.096    20301388.091
  22258761.037   -17738111.05143 -13780721.74342  22258762.292    22258757.795
  23794148.529    -9796168.09643  -7591174.53942  23794149.586    23794145.188
 03 12 26  2 52 30.0000000  0 10G29G26G15G17G30G21G10G 6G18G16
  23134883.820   -12921607.84743 -10047657.74442  23134885.356    23134881.424
  22666697.223   -14067575.69243 -10948489.39942  22666698.886    22666695.452
  24382127.236    -6150808.22443  -4781488.93742  24382128.123    24382126.271
  22871955.067   -13272559.54243 -10328997.14142  22871955.359    22871952.209
  22741516.049   -13543058.46943 -10539596.95642  22741517.776    22741514.270
  21137497.263   -24440241.71144 -19038391.21042  21137498.208    21137493.112
  23349403.606   -10899874.92443  -8486937.64142  23349404.076    23349400.838
  20301457.598   -27041836.59044 -21034722.60642  20301458.921    20301454.929
  22241741.782   -17827547.65443 -13850412.55142  22241743.018    22241738.609
  23781663.251    -9861778.65843  -7642299.61742  23781664.303    23781659.880
 03 12 26  2 53  0.0000000  0 10G29G26G15G17G30G21G10G 6G18G16
  23129884.439   -12947879.81743 -10068129.38442  23129886.007    23129882.007
  22654322.221   -14132606.46443 -10999162.68342  22654323.887    22654320.448
  24367018.101    -6230207.01243  -4843358.02142  24367019.043    24367017.074
  22884454.527   -13206874.55543 -10277814.03242  22884454.798    22884451.632
  22760612.008   -13442708.22543 -10461401.95942  22760613.748    22760610.231
  21130855.036   -24475146.68044 -19065589.86442  21130855.979    21130850.901
  23368442.153   -10799826.72643  -8408977.98842  23368442.640    23368439.383
  20301604.452   -27041064.89944 -21034121.28442  20301605.782    20301601.766
  22224781.453   -17916674.73143 -13919862.18242  22224782.659    22224778.204
  23769261.743    -9926948.77143  -7693081.49042  23769262.840    23769258.379
 03 12 26  2 53 30.0000000  0 10G29G26G15G17G30G21G10G 6G18G16
  23124975.948   -12973674.31543 -10088228.98142  23124977.534    23124973.500
  22642025.695   -14197225.04443 -11049514.78342  22642027.387    22642023.898
  24351925.534    -6309518.80143  -4905159.33642  24351926.452    24351924.325
  22896967.836   -13141116.38243 -10226573.89742  22896968.156    22896965.027
  22779738.532   -13342197.94843 -10383082.26542  22779740.256    22779736.780
  21124252.459   -24509843.33144 -19092626.19642  21124253.404    21124248.326
  23387519.164   -10699576.37443  -8330860.82842  23387519.667    23387516.308
  20301831.403   -27039872.25544 -21033191.94342  20301832.724    20301828.698
  22207880.113   -18005491.32943 -13989069.86842  22207881.348    22207876.971
  23756944.320    -9991676.81543  -7743518.88542  23756945.446    23756941.010
 03 12 26  2 54  0.0000000  0 10G29G26G15G17G30G21G10G 6G18G16
  23120158.671   -12998989.31143 -10107954.92542  23120160.241    23120156.187
  22629808.261   -14261427.82743 -11099542.87442  22629809.981    22629806.464
  24336849.592    -6388743.05043  -4966892.41042  24336850.507    24336848.380
  22909495.089   -13075285.31143 -10175276.96142  22909495.382    22909492.271
  22798894.974   -13241530.22343 -10304639.88642  22798896.705    22798893.149
  21117689.605   -24544331.29944 -19119499.91842  21117690.536    21117685.448
  23406634.289   -10599125.83443  -8252587.67442  23406634.787    23406631.395
  20302138.730   -27038257.22344 -21031933.47142  20302140.050    20302136.031
  22191038.427   -18093994.80243 -14058033.57242  22191039.657    22191035.263
  23744711.490   -10055960.41943  -7793609.96442  23744712.655    23744708.221
 03 12 26  2 54 30.0000000  0 10G29G26G15G17G30G21G10G 6G18G16
  23115433.138   -13023822.07843 -10127305.10542  23115434.707    23115430.626
  22617670.888   -14325210.50743 -11149243.62642  22617672.563    22617668.979
  24321790.474    -6467878.70543  -5028556.43542  24321791.426    24321789.352
  22922036.356   -13009380.59443 -10123922.64442  22922036.639    22922033.512
  22818081.074   -13140707.02543 -10226076.34942  22818082.759    22818079.100
  21111166.593   -24578609.84944 -19146210.45842  21111167.521    21111162.434
  23425787.140   -10498476.96043  -8174159.97542  23425787.641    23425784.228
  20302526.813   -27036217.71744 -21030344.24042  20302528.163    20302524.114
  22174256.897   -18182182.20943 -14126750.98542  22174258.075    22174253.770
  23732563.848   -10119796.45343  -7843352.29342  23732565.020    23732560.616
 03 12 26  2 55  0.0000000  0 10G29G26G15G17G30G21G10G 6G18G16
  23110799.447   -13048172.09743 -10146279.12342  23110801.022    23110796.961
  22605613.749   -14388570.99843 -11198615.38642  22605615.425    22605611.898
  24306748.040    -6546926.70543  -5090152.16142  24306748.975    24306746.965
  22934591.238   -12943404.05743 -10072512.35342  22934591.546    22934588.437
  22837295.891   -13039732.38043 -10147394.81342  22837297.604    22837293.963
  21104683.177   -24612680.34244 -19172758.87542  21104684.096    21104678.997
  23444977.016   -10397633.44343  -8095580.60242  23444977.535    23444974.119
  20302995.628   -27033753.91244 -21028424.38742  20302996.969    20302992.951
  22157535.610   -18270052.91243 -14195221.61642  22157536.799    22157532.458
  23720501.528   -10183184.32943  -7892745.41542  23720502.674    23720498.322
 03 12 26  2 55 30.0000000  0 10G29G26G15G17G30G21G10G 6G18G16
  23106257.597   -13072039.45343 -10164877.04342  23106259.169    23106255.101
  22593637.301   -14451507.82743 -11247657.03442  22593638.981    22593635.326
  24291722.028    -6625888.56543  -5151680.76142  24291722.949    24291720.949
  22947159.435   -12877357.71443 -10021047.67142  22947159.746    22947156.609
  22856538.693   -12938610.95543 -10068598.89142  22856540.397    22856536.707
  21098238.981   -24646544.77444 -19199146.72642  21098239.912    21098234.770
  23464203.056   -10296599.77743  -8016853.05142  23464203.674    23464200.167
  20303545.081   -27030866.53044 -21026174.47942  20303546.412    20303542.400
  22140874.708   -18357606.57343 -14263445.21342  22140875.885    22140871.523
  23708524.482   -10246123.70843  -7941789.05142  23708525.633    23708521.335
 03 12 26  2 56  0.0000000  0 10G29G26G15G17G30G21G10G 6G18G16
  23101808.873   -13095417.72243 -10183093.85242  23101810.414    23101806.284
  22581742.945   -14514013.01343 -11296362.33742  22581744.603    22581740.988
  24276713.324    -6704759.54543  -5213138.57042  24276714.196    24276712.200
  22959741.816   -12811236.96343  -9969525.00342  22959742.114    22959738.960
  22875809.660   -12837340.89243  -9989687.15642  22875811.399    22875807.734
  21091834.865   -24680198.58144 -19225370.45542  21091835.774    21091830.651
  23483465.665   -10195373.88843  -7937975.73542  23483466.330    23483462.792
  20304176.215   -27027549.74444 -21023589.96742  20304177.553    20304173.575
  22124275.217   -18444836.93943 -14331416.87642  22124276.421    22124272.115
  23696634.152   -10308607.79943  -7990477.92242  23696635.284    23696630.911
 03 12 26  2 56 30.0000000  0 10G29G26G15G17G30G21G10G 6G18G16
  23097452.301   -13118311.58243 -10200933.21142  23097453.815    23097449.716
  22569930.140   -14576089.64843 -11344733.70142  22569931.812    22569928.155
  24261720.693    -6783546.02943  -5274530.53442  24261721.456    24261719.388
  22972336.966   -12745048.97043  -9917949.95242  22972337.301    22972334.138
  22895107.228   -12735931.57943  -9910666.91742  22895108.885    22895105.296
  21085469.609   -24713648.10944 -19251435.00342  21085470.528    21085465.386
  23502763.095   -10093964.96243  -7858955.77942  23502763.780    23502760.269
  20304888.053   -27023808.98244 -21020675.08642  20304889.404    20304885.404
  22107736.557   -18531748.11343 -14399139.83242  22107737.736    22107733.462
  23684829.626   -10370640.99043  -8038815.44242  23684830.785    23684826.346
 03 12 26  2 57  0.0000000  0 10G29G26G15G17G30G21G10G 6G18G16
  23093189.226   -13140713.97643 -10218389.60042  23093190.728    23093186.620
  22558200.527   -14637728.96543 -11392764.30042  22558202.206    22558198.506
  24246745.244    -6862242.29343  -5335852.20942  24246745.996    24246743.736
  22984945.961   -12678788.23043  -9866318.19842  22984946.273    22984943.149
  22914431.749   -12634380.15543  -9831535.92542  22914433.454    22914429.868
  21079144.247   -24746887.96444 -19277336.16842  21079145.165    21079140.031
  23522095.997    -9992369.80243  -7779790.71142  23522096.659    23522093.136
  20305681.883   -27019637.52744 -21017424.59742  20305683.191    20305679.213
  22091260.024   -18618332.77543 -14466608.35842  22091261.197    22091256.905
  23673112.313   -10432215.74443  -8086795.73942  23673113.431    23673109.059
 03 12 26  2 57 30.0000000  0 10G29G26G15G17G30G21G10G 6G18G16
  23089019.249   -13162627.31243 -10235464.91342  23089020.751    23089016.640
  22546553.910   -14698931.98943 -11440454.93342  22546555.602    22546551.903
  24231786.166    -6940852.42243  -5397106.74442  24231786.910    24231784.729
  22997567.989   -12612459.15043  -9814633.20842  22997568.289    22997565.119
  22933782.058   -12532693.81043  -9752299.82142  22933783.742    22933780.156
  21072858.015   -24779922.29944 -19303077.19242  21072858.906    21072853.791
  23541462.999    -9890595.37643  -7700485.96142  23541463.635    23541460.157
  20306557.048   -27015038.49744 -21013840.93742  20306558.368    20306554.371
  22074845.185   -18704593.08043 -14533824.13342  22074846.333    22074842.100
  23661481.856   -10493334.08643  -8134420.39942  23661482.975    23661478.606
 03 12 26  2 58  0.0000000  0 10G29G26G15G17G30G21G10G 6G18G16
  23084942.846   -13184048.81243 -10252156.96142  23084944.347    23084940.209
  22534991.203   -14759694.20343 -11487802.07442  22534992.930    22534989.157
  24216843.720    -7019375.09243  -5458293.12342  24216844.487    24216842.291
  23010203.111   -12546061.25143  -9762894.58442  23010203.381    23010200.201
  22953157.696   -12430874.18543  -9672959.84942  22953159.419    22953155.740
  21066610.993   -24812750.50744 -19328657.59642  21066611.877    21066606.770
  23560863.879    -9788643.11443  -7621042.62742  23560864.511    23560861.059
  20307513.995   -27010009.67144 -21009922.36542  20307515.301    20307511.307
  22058492.722   -18790525.94743 -14600784.77442  22058493.839    22058489.578
  23649938.865   -10553993.00843  -8181687.04942  23649939.915    23649935.574
 03 12 26  2 58 30.0000000  0 10G29G26G15G17G30G21G10G 6G18G16
  23080960.783   -13204974.40143 -10268462.59642  23080962.304    23080958.206
  22523513.472   -14820009.81343 -11534801.22142  22523515.160    22523511.415
  24201918.406    -7097807.66643  -5519409.32042  24201919.182    24201916.934
  23022851.823   -12479591.98743  -9711100.35842  23022852.105    23022848.856
  22972558.592   -12328921.57143  -9593516.24742  22972560.337    22972556.643
  21060403.845   -24845369.30244 -19354074.82242  21060404.714    21060399.607
  23580298.589    -9686512.81843  -7541460.57342  23580299.252    23580295.804
  20308553.426   -27004547.38844 -21005666.04042  20308554.749    20308550.746
  22042203.306   -18876127.16843 -14667486.99042  22042204.438    22042200.146
  23638484.104   -10614188.11443  -8228592.30142  23638485.135    23638480.815
 03 12 26  2 59  0.0000000  0 10G29G26G15G17G30G21G10G 6G18G16
  23077072.568   -13225406.75843 -10284383.88042  23077074.127    23077070.068
  22512120.568   -14879879.95043 -11581453.23342  22512122.241    22512118.506
  24187009.556    -7176154.23143  -5580458.51742  24187010.284    24187007.962
  23035513.196   -12413055.88443  -9659254.04842  23035513.503    23035510.262
  22991983.477   -12226843.13943  -9513974.62642  22991985.203    22991981.571
  21054235.603   -24877783.42244 -19379332.55742  21054236.470    21054231.382
  23599765.903    -9584211.60743  -7461745.33042  23599766.544    23599763.084
  20309674.706   -26998655.05244 -21001074.60742  20309676.011    20309672.018
  22025976.509   -18961399.07043 -14733932.58242  22025977.681    22025973.414
  23627117.223   -10673921.74843  -8275137.95942  23627118.265    23627113.832
 03 12 26  2 59 30.0000000  0 10G29G26G15G17G30G21G10G 6G18G16
  23073279.468   -13245339.60943 -10299915.96742  23073281.014    23073276.947
  22500813.882   -14939296.75343 -11627752.00942  22500815.582    22500811.825
  24172117.904    -7254410.18443  -5641437.09242  24172118.611    24172116.291
  23048188.151   -12346448.68143  -9607352.32342  23048188.454    23048185.202
  23011432.585   -12124637.17843  -9434333.61542  23011434.332    23011430.670
  21048107.194   -24909988.34844 -19404427.29042  21048108.040    21048103.002
  23619266.108    -9481737.38443  -7381895.28142  23619266.739    23619263.272
  20310878.928   -26992326.82644 -20996143.52142  20310880.238    20310876.240
  22009813.767   -19046334.95143 -14800116.35942  22009814.929    22009810.594
  23615839.391   -10733187.02343  -8321318.67542  23615840.454    23615835.952
 03 12 26  3  0  0.0000000  0 10G29G26G15G17G30G21G10G 6G18G16
  23069580.726   -13264776.44643 -10315061.52742  23069582.266    23069578.215
  22489593.096   -14998262.05443 -11673698.96642  22489594.840    22489591.069
  24157242.626    -7332580.11643  -5702348.61942  24157243.324    24157241.026
  23060875.595   -12279775.83343  -9555399.44642  23060875.896    23060872.606
  23030904.485   -12022311.42143  -9354599.24942  23030906.271    23030902.590
  21042017.618   -24941989.08644 -19429362.91142  21042018.476    21042013.430
  23638797.779    -9379097.51943  -7301916.14542  23638798.466    23638794.975
  20312165.290   -26985566.95344 -20990876.08242  20312166.613    20312162.598
  21993714.315   -19130938.01243 -14866040.78342  21993715.477    21993711.151
  23604650.058   -10791987.09743  -8367136.88142  23604651.128    23604646.699
 03 12 26  3  0 30.0000000  0 10G29G26G15G17G30G21G10G 6G18G16
  23065977.135   -13283713.47443 -10329817.63342  23065978.696    23065974.620
  22478459.340   -15056770.37943 -11719289.83542  22478461.036    22478457.307
  24142384.118    -7410661.63843  -5763191.25342  24142384.771    24142382.520
  23073576.025   -12213034.95443  -9503393.57042  23073576.274    23073572.973
  23050399.127   -11919866.37443  -9274771.94742  23050400.894    23050397.311
  21035967.300   -24973783.60644 -19454137.84442  21035968.178    21035963.131
  23658360.995    -9276292.38943  -7221808.25642  23658361.558    23658358.151
  20313534.449   -26978372.06544 -20985269.67842  20313535.758    20313531.731
  21977679.009   -19215203.89343 -14931702.47442  21977680.181    21977675.872
  23593550.070   -10850317.77043  -8412589.32742  23593551.154    23593546.675
 03 12 26  3  1  0.0000000  0 10G29G26G15G17G30G21G10G 6G18G16
  23062468.735   -13302150.29443 -10344183.95142  23062470.289    23062466.216
  22467412.904   -15114819.70543 -11764523.04942  22467414.617    22467410.853
  24127542.249    -7488655.67943  -5823965.73642  24127542.888    24127540.693
  23086288.994   -12146227.64143  -9451335.93542  23086289.273    23086286.015
  23069915.747   -11817306.03443  -9194854.79742  23069917.509    23069913.878
  21029956.064   -25005372.78144 -19478752.76642  21029956.916    21029951.880
  23677954.927    -9173325.62843  -7141574.40442  23677955.464    23677952.083
  20314986.343   -26970742.21944 -20979324.33742  20314987.660    20314983.640
  21961708.046   -19299131.91843 -14997100.90742  21961709.233    21961704.832
  23582539.578   -10908178.20143  -8457675.34942  23582540.668    23582536.158
 03 12 26  3  1 30.0000000  0 10G29G26G15G17G30G21G10G 6G18G16
  23059056.138   -13320083.60443 -10358157.94142  23059057.668    23059053.586
  22456454.731   -15172405.11743 -11809394.76342  22456456.452    22456452.654
  24112717.471    -7566560.24543  -5884670.50142  24112718.076    24112715.837
  23099014.912   -12079352.22043  -9399225.21942  23099015.213    23099012.013
  23089454.066   -11714631.52943  -9114848.69342  23089455.787    23089452.216
  21023984.188   -25036755.12644 -19503206.52242  21023985.065    21023979.985
  23697579.362    -9070198.07643  -7061215.26042  23697579.944    23697576.599
  20316521.518   -26962674.68644 -20973037.94842  20316522.854    20316518.819
  21945802.001   -19382718.63443 -15062233.37942  21945803.197    21945798.809
  23571619.206   -10965564.73343  -8502392.10042  23571620.317    23571615.813
 03 12 26  3  2  0.0000000  0 10G29G26G15G17G30G21G10G 6G18G16
  23055739.265   -13337513.94543 -10371740.00142  23055740.851    23055736.689
  22445585.126   -15229525.35943 -11853904.01742  22445586.760    22445583.052
  24097909.259    -7644377.14243  -5945306.95042  24097909.955    24097907.649
  23111753.349   -12012411.02543  -9347063.24642  23111753.712    23111750.492
  23109013.231   -11611847.48543  -9034757.24442  23109014.971    23109011.433
  21018051.315   -25067932.45644 -19527500.52742  21018052.197    21018047.113
  23717233.626    -8966913.94443  -6980734.12042  23717234.192    23717230.878
  20318139.840   -26954170.39944 -20966411.23042  20318141.161    20318137.120
  21929960.911   -19465963.91443 -15127099.79742  21929962.109    21929957.703
  23560789.030   -11022477.64743  -8546739.79742  23560790.103    23560785.650
 03 12 26  3  2 30.0000000  0 10G29G26G15G17G30G21G10G 6G18G16
  23052518.838   -13354437.29543 -10384926.99442  23052520.464    23052516.275
  22434805.021   -15286174.99443 -11898046.56142  22434806.674    22434802.922
  24083118.326    -7722103.77843  -6005873.03742  24083118.988    24083116.754
  23124504.769   -11945401.84843  -9294848.30742  23124505.128    23124501.913
  23128593.059   -11508954.40043  -8954580.80642  23128594.809    23128591.274
  21012157.907   -25098902.45944 -19551632.98342  21012158.792    21012153.711
  23736917.670    -8863473.48943  -6900131.16042  23736918.276    23736915.009
  20319841.908   -26945225.91644 -20959441.50042  20319843.227    20319839.209
  21914185.588   -19548863.62543 -15191696.93942  21914186.802    21914182.408
  23550049.824   -11078912.22143  -8590714.76642  23550050.906    23550046.428
 03 12 26  3  3  0.0000000  0 10G29G26G15G17G30G21G10G 6G18G16
  23049394.715   -13370854.58243 -10397719.67642  23049396.303    23049392.097
  22424114.648   -15342353.01743 -11941821.61142  22424116.311    22424112.605
  24068344.208    -7799742.30143  -6066370.48842  24068344.897    24068342.581
  23137268.619   -11878327.18043  -9242582.32942  23137269.008    23137265.818
  23148192.806   -11405957.21443  -8874323.27442  23148194.515    23148191.003
  21006303.461   -25129667.67444 -19575605.85942  21006304.364    21006299.260
  23756630.536    -8759881.46743  -6819410.11842  23756631.167    23756627.923
  20321627.516   -26935842.52444 -20952129.76242  20321628.837    20321624.808
  21898476.039   -19631417.77243 -15256024.81842  21898477.238    21898472.820
  23539401.571   -11134869.02543  -8634317.45342  23539402.628    23539398.177
 03 12 26  3  3 30.0000000  0 10G29G26G15G17G30G21G10G 6G18G16
  23046366.885   -13386766.00943 -10410118.17142  23046368.401    23046364.215
  22413514.371   -15398057.93843 -11985228.01942  22413516.002    22413512.256
  24053586.515    -7877294.18943  -6126800.44342  24053587.206    24053584.854
  23150044.620   -11811188.69843  -9190266.63642  23150045.047    23150041.850
  23167811.466   -11302860.47043  -8793988.14142  23167813.224    23167809.735
  21000487.845   -25160229.00444 -19599419.86442  21000488.740    21000483.611
  23776371.430    -8656142.07443  -6738574.20642  23776372.112    23776368.880
  20323496.500   -26926020.95444 -20944476.59242  20323497.812    20323493.776
  21882832.143   -19713626.77743 -15320083.74442  21882833.348    21882828.988
  23528844.204   -11190348.18243  -8677547.94642  23528845.265    23528840.799
 03 12 26  3  4  0.0000000  0 10G29G26G15G17G30G21G10G 6G18G16
  23043436.168   -13402167.15443 -10422119.03142  23043437.680    23043433.447
  22403005.172   -15453283.78343 -12028261.11642  22403006.841    22403003.125
  24038845.885    -7954756.16743  -6187160.33242  24038846.631    24038844.225
  23162833.371   -11743983.55543  -9137898.98642  23162833.771    23162830.574
  23187449.172   -11199663.78343  -8713575.14742  23187450.944    23187447.357
  20994711.486   -25190583.89744 -19623073.01142  20994712.374    20994707.244
  23796140.526    -8552254.49743  -6657622.86242  23796141.251    23796138.008
  20325449.615   -26915757.24444 -20936478.89642  20325450.931    20325446.907
  21867254.968   -19795485.36043 -15383869.62842  21867256.168    21867251.744
  23518378.774   -11245344.22843  -8720401.97542  23518379.866    23518375.359
 03 12 26  3  4 30.0000000  0 10G29G26G15G17G30G21G10G 6G18G16
  23040602.562   -13417057.09043 -10433721.56642  23040604.202    23040599.977
  22392587.710   -15508028.04643 -12070918.95442  22392589.339    22392585.640
  24024122.305    -8032128.62743  -6247450.46242  24024123.056    24024120.694
  23175634.508   -11676712.78043  -9085480.20542  23175634.954    23175631.788
  23207105.164   -11096370.69843  -8633087.02542  23207106.948    23207103.364
  20988974.218   -25220733.44544 -19646566.14842  20988975.098    20988969.963
  23815937.292    -8448221.89843  -6576558.49642  23815938.009    23815934.754
  20327486.905   -26905051.15844 -20928136.49042  20327488.231    20327484.191
  21851744.637   -19876992.58643 -15447381.71342  21851745.831    21851741.429
  23508005.440   -11299856.23343  -8762878.83842  23508006.547    23508002.033
 03 12 26  3  5  0.0000000  0 10G29G26G15G17G30G21G10G 6G18G16
  23037865.910   -13431438.06743 -10444927.50142  23037867.565    23037863.409
  22382261.760   -15562290.99843 -12113201.74742  22382263.403    22382259.690
  24009415.087    -8109414.88643  -6307673.40242  24009415.831    24009413.572
  23188447.563   -11609379.82543  -9033012.97242  23188448.021    23188444.836
  23226778.352   -10992987.34643  -8552528.57342  23226780.153    23226776.597
  20983275.455   -25250680.56244 -19669901.54442  20983276.337    20983271.203
  23835760.524    -8344050.20343  -6495385.75642  23835761.223    23835757.922
  20329607.936   -26893905.10844 -20919451.25442  20329609.261    20329605.225
  21836300.910   -19958149.77443 -15510621.05542  21836302.108    21836297.678
  23497723.972   -11353885.76343  -8804979.74842  23497725.022    23497720.565
 03 12 26  3  5 30.0000000  0 10G29G26G15G17G30G21G10G 6G18G16
  23035227.133   -13445304.92343 -10455732.81642  23035228.812    23035224.580
  22372028.687   -15616065.91343 -12155104.24642  22372030.378    22372026.652
  23994725.087    -8186611.02343  -6367826.14542  23994725.771    23994723.518
  23201273.130   -11541981.10943  -8980494.49242  23201273.608    23201270.369
  23246468.865   -10889512.76743  -8471899.03842  23246470.705    23246467.171
  20977615.931   -25280421.49744 -19693076.28642  20977616.799    20977611.670
  23855610.434    -8239737.87143  -6414103.41642  23855611.245    23855607.913
  20331813.561   -26882314.34344 -20910419.49042  20331814.891    20331810.876
  21820924.903   -20038951.37443 -15573583.31142  21820926.086    21820921.666
  23487535.295   -11407427.47743  -8846700.53942  23487536.352    23487531.890
 03 12 26  3  6  0.0000000  0 10G29G26G15G17G30G21G10G 6G18G16
  23032686.232   -13458657.54543 -10466137.44542  23032687.800    23032683.670
  22361888.839   -15669351.11843 -12196625.15642  22361890.490    22361886.815
  23980051.958    -8263718.14343  -6427909.52242  23980052.642    23980050.447
  23214110.888   -11474518.10643  -8927925.91942  23214111.383    23214108.157
  23266176.054   -10785951.00643  -8391201.55342  23266177.879    23266174.294
  20971995.392   -25309957.58544 -19716091.40642  20971996.252    20971991.117
  23875486.428    -8135288.74743  -6332714.49742  23875487.204    23875483.905
  20334103.693   -26870279.55144 -20901041.72942  20334105.034    20334101.030
  21805616.548   -20119397.15343 -15636268.30942  21805617.747    21805613.285
  23477439.581   -11460480.75343  -8888040.73342  23477440.633    23477436.197
 03 12 26  3  6 30.0000000  0 10G29G26G15G17G30G21G10G 6G18G16
  23030242.758   -13471497.76143 -10476142.79842  23030244.346    23030240.253
  22351842.220   -15722146.42343 -12237764.32742  22351843.872    22351840.136
  23965395.320    -8340739.04743  -6487925.72542  23965395.903    23965393.723
  23226960.279   -11406993.93243  -8875309.68942  23226960.781    23226957.585
  23285898.673   -10682307.76943  -8310440.62142  23285900.454    23285896.956
  20966413.279   -25339291.68844 -19738949.12942  20966414.152    20966408.993
  23895387.483    -8030708.52443  -6251223.42242  23895388.126    23895384.876
  20336477.975   -26857802.60844 -20891319.43442  20336479.325    20336475.329
  21790375.696   -20199488.15143 -15698676.84642  21790376.888    21790372.471
  23467436.631   -11513046.67743  -8929001.16742  23467437.694    23467433.222
 03 12 26  3  7  0.0000000  0 10G29G26G15G17G30G21G10G 6G18G16
  23027898.415   -13483817.13743 -10485742.29142  23027899.963    23027895.949
  22341890.726   -15774441.83943 -12278513.97342  22341892.361    22341888.639
  23950756.435    -8417666.53543  -6547869.12942  23950757.061    23950754.873
  23239822.682   -11339401.75143  -8822640.45342  23239823.128    23239819.940
  23305637.679   -10578578.85043  -8229612.88142  23305639.471    23305635.910
  20960870.923   -25368416.92444 -19761644.10242  20960871.805    20960866.624
  23915314.317    -7925992.57443  -6169626.57942  23915314.867    23915311.652
  20338937.879   -26844875.73244 -20881246.54242  20338939.231    20338935.240
  21775204.044   -20279215.61443 -15760802.11542  21775205.232    21775200.821
  23457528.049   -11565116.51143  -8969575.03942  23457529.144    23457524.597
 03 12 26  3  7 30.0000000  0 10G29G26G15G17G30G21G10G 6G18G16
  23025651.524   -13495624.40343 -10494942.73642  23025653.081    23025649.072
  22332033.008   -15826244.39543 -12318879.58242  22332034.632    22332030.855
  23936133.397    -8494510.35443  -6607747.32642  23936134.073    23936131.952
  23252696.052   -11271751.59843  -8769926.05742  23252696.498    23252693.290
  23325390.588   -10474776.85743  -8148728.20642  23325392.344    23325388.772
  20955366.399   -25397343.38244 -19784184.18542  20955367.281    20955362.087
  23935264.644    -7821152.98843  -6087933.40942  23935265.218    23935261.978
  20341481.702   -26831507.91844 -20870830.06542  20341483.036    20341479.054
  21760100.064   -20358587.59743 -15822650.39242  21760101.226    21760096.813
  23447712.345   -11616698.40843  -9009768.70742  23447713.427    23447708.844
 03 12 26  3  8  0.0000000  0 10G29G26G15G17G30G21G10G 6G18G16
  23023503.622   -13506911.67143 -10503737.99542  23023505.169    23023501.169
  22322270.900   -15877544.37443 -12358853.56442  22322272.560    22322268.766
  23921527.629    -8571263.76943  -6667555.09142  23921528.280    23921526.160
  23265581.746   -11204036.82243  -8717161.30542  23265582.219    23265578.951
  23345158.119   -10370898.02543  -8067783.68342  23345159.863    23345156.325
  20949900.980   -25426064.30944 -19806564.11442  20949901.874    20949896.649
  23955239.301    -7716185.48343  -6006140.55042  23955239.822    23955236.650
  20344110.829   -26817691.75044 -20860064.22242  20344112.156    20344108.189
  21745065.265   -20437595.79843 -15884215.19542  21745066.436    21745062.037
  23437991.047   -11667784.14943  -9049575.76142  23437992.094    23437987.538
 03 12 26  3  8 30.0000000  0 10G29G26G15G17G30G21G10G 6G18G16
  23021454.405   -13517680.43443 -10512129.21242  23021455.959    23021451.927
  22312604.500   -15928341.57743 -12398435.77842  22312606.131    22312602.329
  23906938.664    -8647929.26243  -6727294.36742  23906939.309    23906936.991
  23278479.145   -11136260.58743  -8664348.64342  23278479.614    23278476.325
  23364939.204   -10266947.77943  -7986783.48542  23364940.981    23364937.424
  20944474.162   -25454582.36644 -19828785.95942  20944475.065    20944469.820
  23975237.348    -7611095.16743  -5924251.99442  23975237.806    23975234.700
  20346824.917   -26803429.18844 -20848950.53442  20346826.241    20346822.262
  21730099.475   -20516241.32343 -15945497.39842  21730100.654    21730096.261
  23428363.931   -11718374.90843  -9088997.10542  23428365.002    23428360.373
 03 12 26  3  9  0.0000000  0 10G29G26G15G17G30G21G10G 6G18G16
  23019504.719   -13527926.31943 -10520113.00042  23019506.238    23019502.170
  22303034.920   -15978629.93143 -12437621.47642  22303036.536    22303032.714
  23892366.949    -8724503.38643  -6786962.43142  23892367.682    23892365.324
  23291388.861   -11068419.66643  -8611485.59942  23291389.252    23291386.037
  23384733.979   -10162925.47443  -7905727.14242  23384735.794    23384732.149
  20939086.607   -25482894.08144 -19850847.02242  20939087.516    20939082.255
  23995258.934    -7505881.27143  -5842267.15742  23995259.366    23995256.243
  20349624.700   -26788716.17044 -20837485.84342  20349626.032    20349622.048
  21715203.716   -20594519.00543 -16006492.96742  21715204.889    21715200.492
  23418831.940   -11768465.60643  -9128028.80042  23418833.047    23418828.451
 03 12 26  3  9 30.0000000  0 10G29G26G15G17G30G21G10G 6G18G16
  23017654.046   -13537651.70243 -10527691.21042  23017655.569    23017651.468
  22293562.111   -16028409.91143 -12476411.04942  22293563.707    22293559.878
  23877811.958    -8800989.71643  -6846562.06142  23877812.718    23877810.451
  23304310.180   -11000517.65643  -8558574.94142  23304310.607    23304307.304
  23404541.220   -10058837.55143  -7824619.68542  23404543.056    23404539.510
  20933737.569   -25511003.31244 -19872750.30842  20933738.483    20933733.246
  24015302.950    -7400549.79243  -5760190.68642  24015303.279    24015300.242
  20352509.683   -26773555.44344 -20825672.29342  20352511.025    20352507.049
  21700377.525   -20672430.99143 -16067203.58242  21700378.709    21700374.300
  23409394.802   -11818058.06643  -9166672.24942  23409395.921    23409391.306
 03 12 26  3 10  0.0000000  0 10G29G26G15G17G30G21G10G 6G18G16
  23015902.907   -13546854.17443 -10534861.95742  23015904.436    23015900.240
  22284186.746   -16077677.59843 -12514801.42942  22284188.365    22284184.541
  23863274.006    -8877386.75443  -6906092.15242  23863274.822    23863272.474
  23317243.348   -10932553.36343  -8505615.76242  23317243.831    23317240.521
  23424360.702    -9954685.46443  -7743462.22542  23424362.517    23424359.019
  20928427.374   -25538908.57844 -19894494.65742  20928428.271    20928423.047
  24035368.971    -7295101.82743  -5678023.44342  24035369.410    24035366.368
  20355480.246   -26757945.05144 -20813508.35342  20355481.604    20355477.603
  21685621.569   -20749974.03743 -16127626.70642  21685622.738    21685618.341
  23400053.061   -11867149.31443  -9204925.15042  23400054.133    23400049.578
 03 12 26  3 10 30.0000000  0 10G29G26G15G17G30G21G10G 6G18G16
  23014251.055   -13555534.82243 -10541626.07842  23014252.587    23014248.347
  22274909.008   -16126432.16443 -12552791.97242  22274910.665    22274906.803
  23848752.664    -8953696.44043  -6965554.17942  23848753.503    23848751.044
  23330187.864   -10864529.51343  -8452610.16442  23330188.342    23330184.999
  23444191.443    -9850474.20343  -7662258.63942  23444193.238    23444189.608
  20923155.520   -25566612.31944 -19916081.96842  20923156.400    20923151.195
  24055456.286    -7189541.81643  -5595768.90142  24055456.804    24055453.725
  20358536.149   -26741886.32444 -20800995.06042  20358537.496    20358533.470
  21670935.761   -20827148.57443 -16187762.68642  21670936.917    21670932.458
  23390806.547   -11915740.13543  -9242788.10842  23390807.635    23390803.027
 03 12 26  3 11  0.0000000  0 10G29G26G15G17G30G21G10G 6G18G16
  23012699.160   -13563690.31443 -10547980.98442  23012700.667    23012696.322
  22265729.917   -16174668.60043 -12590378.78342  22265731.546    22265727.661
  23834248.344    -9029916.45143  -7024946.30442  23834249.156    23834246.800
  23343144.212   -10796443.49843  -8399556.13142  23343144.627    23343141.335
  23464033.380    -9746204.23143  -7581009.32442  23464035.171    23464031.633
  20917922.500   -25594112.09444 -19937510.34742  20917923.366    20917918.139
  24075564.952    -7083869.99543  -5513427.23042  24075565.588    24075562.424
  20361677.899   -26725376.29244 -20788130.10042  20361679.256    20361675.205
  21656320.740   -20903950.88843 -16247608.61542  21656321.904    21656317.450
  23381655.978   -11963826.66343  -9280258.12642  23381657.057    23381652.459
 03 12 26  3 11 30.0000000  0 10G29G26G15G17G30G21G10G 6G18G16
  23011247.069   -13571320.87343 -10553926.85542  23011248.600    23011244.280
  22256649.665   -16222385.51943 -12627560.77642  22256651.281    22256647.423
  23819760.964    -9106048.00443  -7084269.50942  23819761.753    23819759.432
  23356112.042   -10728297.08943  -8346455.03542  23356112.475    23356109.197
  23483885.700    -9641879.56743  -7499717.39542  23483887.506    23483883.956
  20912727.989   -25621409.22544 -19958780.82742  20912728.865    20912723.646
  24095694.235    -6978090.07043  -5431001.31942  24095694.781    24095691.685
  20364905.416   -26708415.69544 -20774914.05142  20364906.760    20364902.692
  21641776.597   -20980380.62843 -16307164.23442  21641777.763    21641773.299
  23372601.412   -12011408.67943  -9317334.99742  23372602.520    23372597.919
 03 12 26  3 12  0.0000000  0 10G29G26G15G17G30G21G10G 6G18G16
  23009895.352   -13578423.83543 -10559461.62042  23009896.901    23009892.616
  22247669.167   -16269578.23243 -12664334.29442  22247670.836    22247666.896
  23805290.734    -9182089.04743  -7143522.20242  23805291.569    23805289.127
  23369091.661   -10660088.64743  -8293305.59642  23369092.192    23369088.837
  23503748.260    -9537501.24243  -7418383.64042  23503750.026    23503746.458
  20907572.395   -25648502.09044 -19979892.14242  20907573.244    20907568.042
  24115843.956    -6872202.81343  -5348491.77942  24115844.495    24115841.408
  20368219.122   -26691001.99144 -20761344.93342  20368220.463    20368216.407
  21627304.020   -21056434.41443 -16366426.89742  21627305.191    21627300.733
  23363643.455   -12058482.89543  -9354016.18442  23363644.548    23363639.978
 03 12 26  3 12 30.0000000  0 10G29G26G15G17G30G21G10G 6G18G16
  23008644.373   -13584997.72643 -10564584.12442  23008645.939    23008641.652
  22238789.047   -16316243.48543 -12700696.80842  22238790.704    22238786.790
  23790837.885    -9258038.95843  -7202703.87942  23790838.677    23790836.234
  23382083.229   -10591817.49043  -8240107.29342  23382083.750    23382080.423
  23523620.598    -9433071.43943  -7337009.77442  23523622.360    23523618.733
  20902455.790   -25675390.08444 -20000843.81842  20902456.619    20902451.407
  24136013.745    -6766209.94743  -5265899.94442  24136014.255    24136011.166
  20371619.303   -26673133.98344 -20747421.81042  20371620.630    20371616.567
  21612903.432   -21132110.02243 -16425394.88042  21612904.591    21612900.124
  23354782.578   -12105047.17943  -9390300.03042  23354783.681    23354779.104
 03 12 26  3 13  0.0000000  0 10G29G26G15G17G30G21G10G 6G18G16
  23007492.679   -13591049.91543 -10569300.09742  23007494.250    23007489.939
  22230008.228   -16362387.07943 -12736652.83542  22230009.881    22230005.928
  23776400.822    -9333906.25643  -7261821.17942  23776401.576    23776399.119
  23395085.111   -10523492.56443  -8186867.10042  23395085.571    23395082.226
  23543500.562    -9328601.45543  -7255604.60142  23543502.301    23543498.762
  20897376.565   -25702081.66044 -20021642.43342  20897377.376    20897372.153
  24156201.513    -6660122.25643  -5183234.22042  24156202.069    24156198.948
  20375104.418   -26654819.44744 -20733150.74742  20375105.766    20375101.704
  21598573.484   -21207414.42543 -16484073.60842  21598574.627    21598570.140
  23346017.345   -12151108.55743  -9426192.01042  23346018.430    23346013.864
 03 12 26  3 13 30.0000000  0 10G29G26G15G17G30G21G10G 6G18G16
  23006442.316   -13596569.59443 -10573601.13042  23006443.855    23006439.518
  22221329.033   -16407996.47343 -12772192.60542  22221330.664    22221326.747
  23761981.411    -9409680.60243  -7320866.04742  23761982.229    23761979.677
  23408099.062   -10455103.76243  -8133577.12542  23408099.487    23408096.190
  23563389.590    -9224084.11343  -7174162.53442  23563391.303    23563387.798
  20892336.539   -25728567.13344 -20042280.44542  20892337.351    20892332.120
  24176408.762    -6553932.29343  -5100488.80042  24176409.337    24176406.219
  20378676.544   -26636047.92844 -20718523.59042  20378677.885    20378673.812
  21584316.288   -21282336.42343 -16542454.35942  21584317.444    21584312.917
  23337349.976   -12196655.86743  -9461683.39042  23337351.031    23337346.494
 03 12 26  3 14  0.0000000  0 10G29G26G15G17G30G21G10G 6G18G16
  23005493.068   -13601557.84643 -10577488.07242  23005494.583    23005490.264
  22212751.694   -16453070.81043 -12807315.44442  22212753.322    22212749.378
  23747579.291    -9485363.92943  -7379839.98842  23747580.097    23747577.522
  23421124.746   -10386653.59443  -8080239.34442  23421125.123    23421121.819
  23583286.733    -9119524.16643  -7092687.25042  23583288.456    23583284.887
  20887335.427   -25754848.05644 -20062759.07442  20887336.257    20887331.004
  24196634.789    -6447644.07743  -5017666.82742  24196635.324    24196632.215
  20382335.368   -26616820.62144 -20703541.27742  20382336.709    20382332.644
  21570131.821   -21356876.17543 -16600537.26042  21570132.989    21570128.441
  23328780.362   -12241689.36943  -9496774.41642  23328781.409    23328776.894
 03 12 26  3 14 30.0000000  0 10G29G26G15G17G30G21G10G 6G18G16
  23004644.130   -13606018.81543 -10580964.12942  23004645.734    23004641.358
  22204275.684   -16497612.47843 -12842023.21842  22204277.322    22204273.363
  23733193.649    -9560961.04743  -7438746.77742  23733194.396    23733191.755
  23434161.192   -10318146.67243  -8026857.33442  23434161.566    23434158.208
  23603190.457    -9014929.23043  -7011184.70842  23603192.177    23603188.671
  20882372.178   -25780929.99944 -20083082.65742  20882373.000    20882367.750
  24216878.105    -6341265.27043  -4934774.25442  24216878.528    24216875.427
  20386080.073   -26597141.97844 -20688207.27242  20386081.414    20386077.386
  21556019.400   -21431037.24343 -16658325.07942  21556020.575    21556016.047
  23320307.767   -12286212.81343  -9531467.98942  23320308.851    23320304.301
 03 12 26  3 15  0.0000000  0 10G29G26G15G17G30G21G10G 6G18G16
  23003896.679   -13609946.77943 -10584024.86642  23003898.242    23003893.902
  22195902.391   -16541614.13043 -12876310.19642  22195904.071    22195900.116
  23718825.226    -9636467.18043  -7497582.65342  23718826.035    23718823.408
  23447209.250   -10249578.78743  -7973427.80942  23447209.572    23447206.288
  23623101.323    -8910297.40943  -6929653.43742  23623103.019    23623099.458
  20877447.785   -25806807.69544 -20103247.08642  20877448.621    20877443.380
  24237139.042    -6234793.20343  -4851809.01942  24237139.507    24237136.327
  20389911.670   -26577006.81844 -20672517.53742  20389913.003    20389908.990
  21541980.325   -21504812.98043 -16715812.64342  21541981.504    21541976.946
  23311933.409   -12330220.04743  -9565759.32542  23311934.518    23311929.989
 03 12 26  3 15 30.0000000  0 10G29G26G15G17G30G21G10G 6G18G16
  23003250.761   -13613340.70643 -10586669.47842  23003252.365    23003248.065
  22187632.484   -16585072.80843 -12910174.08842  22187634.136    22187630.211
  23704474.141    -9711882.17343  -7556347.50042  23704474.934    23704472.406
  23460268.961   -10180949.50743  -7919950.45542  23460269.283    23460266.056
  23643018.758    -8805631.11243  -6848095.29542  23643020.437    23643016.771
  20872562.340   -25832480.87144 -20123252.15142  20872563.184    20872557.913
  24257417.411    -6128229.94843  -4768772.72342  24257417.852    24257414.685
  20393830.338   -26556414.18444 -20656471.33242  20393831.655    20393827.647
  21528014.877   -21578201.74643 -16772998.66942  21528016.058    21528011.512
  23303657.714   -12373709.33243  -9599647.08942  23303658.799    23303654.231
 03 12 26  3 16  0.0000000  0 10G29G26G15G17G30G21G10G 6G18G16
  23002704.916   -13616209.09043 -10588904.55942  23002706.508    23002702.254
  22179464.632   -16627995.17243 -12943620.05942  22179466.277    22179462.364
  23690138.821    -9787214.94143  -7615048.30142  23690139.568    23690136.941
  23473338.552   -10112268.38543  -7866432.70042  23473338.879    23473335.663
  23662940.437    -8700942.31243  -6766519.60942  23662942.112    23662938.364
  20867714.025   -25857958.83544 -20143105.09642  20867714.881    20867709.617
  24277710.871    -6021587.01643  -4685674.34642  24277711.414    24277708.167
  20397834.365   -26535372.82544 -20640075.46942  20397835.679    20397831.673
  21514121.536   -21651211.72643 -16829889.54442  21514122.685    21514118.110
  23295479.005   -12416688.63943  -9633137.44142  23295480.086    23295475.574
 03 12 26  3 16 30.0000000  0 10G29G26G15G17G30G21G10G 6G18G16
  23002261.665   -13618538.06243 -10590719.33542  23002263.278    23002259.050
  22171401.760   -16670365.67843 -12976636.01442  22171403.379    22171399.483
  23675821.640    -9862452.13243  -7673674.63942  23675822.393    23675819.626
  23486420.471   -10043522.37643  -7812864.39642  23486420.838    23486417.600
  23682868.287    -8596220.60043  -6684918.28442  23682869.986    23682866.250
  20862905.284   -25883228.82644 -20162795.98742  20862906.152    20862900.900
  24298021.596    -5914853.48243  -4602505.36842  24298022.171    24298018.904
  20401926.414   -26513869.08144 -20623319.30642  20401927.724    20401923.706
  21500303.143   -21723827.78543 -16886473.46242  21500304.295    21500299.694
  23287400.152   -12459143.41743  -9666219.07642  23287401.202    23287396.665
 03 12 26  3 17  0.0000000  0 10G29G26G15G17G30G21G10G 6G18G16
  23001919.400   -13620336.64043 -10592120.81442  23001920.993    23001916.789
  22163442.509   -16712191.65643 -13009227.66342  22163444.153    22163440.253
  23661520.661    -9937603.83543  -7732234.30442  23661521.382    23661518.767
  23499512.870    -9974721.35543  -7759253.22042  23499513.255    23499509.976
  23702800.039    -8491478.71843  -6603301.24742  23702801.731    23702798.041
  20858134.250   -25908300.75144 -20182332.54042  20858135.098    20858129.868
  24318347.160    -5808042.00143  -4519275.65442  24318347.740    24318344.533
  20406104.622   -26491912.51444 -20606210.29742  20406105.931    20406101.904
  21486557.990   -21796058.86843 -16942757.39942  21486559.139    21486554.532
  23279419.416   -12501082.36543  -9698898.76342  23279420.479    23279415.884
 03 12 26  3 17 30.0000000  0 10G29G26G15G17G30G21G10G 6G18G16
  23001679.987   -13621594.81543 -10593101.18242  23001681.538    23001677.336
  22155589.157   -16753461.31743 -13041385.82542  22155590.776    22155586.842
  23647237.893   -10012660.50643  -7790719.97242  23647238.579    23647235.862
  23512617.447    -9905856.40643  -7705592.22942  23512617.812    23512614.552
  23722736.869    -8386710.12343  -6521663.38842  23722738.538    23722734.800
  20853402.759   -25933164.93944 -20201707.22142  20853403.595    20853398.365
  24338688.881    -5701145.57043  -4435979.72942  24338689.495    24338686.258
  20410370.869   -26469493.26344 -20588740.75642  20410372.177    20410368.151
  21472888.225   -21867893.94543 -16998732.76242  21472889.349    21472884.727
  23271538.927   -12542494.85643  -9731168.23142  23271539.959    23271535.318
 03 12 26  3 18  0.0000000  0 10G29G26G15G17G30G21G10G 6G18G16
  23001541.002   -13622325.26143 -10593670.34942  23001542.565    23001538.320
  22147839.625   -16794185.32143 -13073118.79142  22147841.216    22147837.311
  23632970.573   -10087635.44343  -7849141.95742  23632971.274    23632968.458
  23525731.727    -9836940.42343  -7651891.47342  23525732.067    23525728.851
  23742675.807    -8281930.67543  -6440017.08142  23742677.440    23742673.664
  20848708.249   -25957834.67144 -20220930.37542  20848709.089    20848703.857
  24359043.845    -5594179.51443  -4352629.55742  24359044.451    24359041.196
  20414722.736   -26446624.01644 -20570920.56442  20414724.064    20414720.039
  21459291.520   -21939344.96543 -17054408.85742  21459292.662    21459288.017
  23263756.311   -12583392.85143  -9763036.78342  23263757.310    23263752.668
 03 12 26  3 18 30.0000000  0 10G29G26G15G17G30G21G10G 6G18G16
  23001505.601   -13622511.38743 -10593815.37242  23001507.138    23001502.901
  22140197.418   -16834345.34743 -13104412.29742  22140199.010    22140195.099
  23618721.902   -10162512.48543  -7907487.63242  23618722.572    23618719.814
  23538858.637    -9767958.15643  -7598139.07842  23538858.996    23538855.814
  23762619.255    -8177127.16943  -6358352.02742  23762620.904    23762617.186
  20844053.745   -25982294.30844 -20239989.82742  20844054.559    20844049.329
  24379414.617    -5487130.30543  -4269214.59642  24379415.193    24379411.941
  20419163.356   -26423288.45244 -20552737.01242  20419164.663    20419160.639
  21445771.220   -22010394.48943 -17109772.10242  21445772.369    21445767.724
  23256074.847   -12623759.18143  -9794491.05342  23256075.884    23256071.232
 03 12 26  3 19  0.0000000  0 10G29G26G15G17G30G21G10G 6G18G16
  23001570.886   -13622167.94043 -10593547.74042  23001572.460    23001568.260
  22132660.082   -16873954.31443 -13135276.41042  22132661.643    22132657.752
  23604488.955   -10237307.04643  -7965769.05842  23604489.604    23604486.861
  23551995.184    -9698924.98543  -7544347.00542  23551995.577    23551992.449
  23782563.801    -8072317.94543  -6276682.51042  23782565.480    23782561.680
  20839436.308   -26006559.02744 -20258897.39242  20839437.133    20839431.880
  24399797.945    -5380015.40143  -4185748.44042  24399798.494    24399795.230
  20423689.868   -26399501.62044 -20534201.82342  20423691.145    20423687.121
  21432324.687   -22081056.55343 -17164833.43242  21432325.797    21432321.152
  23248491.851   -12663608.29643  -9825542.30542  23248492.904    23248488.189
 03 12 26  3 19 30.0000000  0 10G29G26G15G17G30G21G10G 6G18G16
  23001739.337   -13621283.08443 -10592858.22942  23001740.837    23001736.612
  22125230.144   -16912998.66543 -13165700.55742  22125231.707    22125227.820
  23590273.747   -10312007.85643  -8023977.42642  23590274.414    23590271.594
  23565143.652    -9629829.49743  -7490506.37142  23565144.021    23565140.824
  23802511.040    -7967494.30443  -6195001.75942  23802512.757    23802508.971
  20834858.092   -26030617.64244 -20277644.35442  20834858.925    20834853.657
  24420195.424    -5272826.12743  -4102224.34442  24420195.920    24420192.711
  20428304.470   -26375251.66044 -20515305.75542  20428305.770    20428301.730
  21418954.244   -22151318.53843 -17219583.01042  21418955.371    21418950.709
  23241009.655   -12702927.63643  -9856180.74542  23241010.693    23241005.976
 03 12 26  3 20  0.0000000  0 10G29G26G15G17G30G21G10G 6G18G16
  23002009.433   -13619863.52843 -10591752.06642  23002010.920    23002006.752
  22117906.677   -16951483.46343 -13195688.68442  22117908.257    22117904.393
  23576075.144   -10386621.88943  -8082118.18142  23576075.764    23576072.962
  23578302.497    -9560679.33843  -7436623.14642  23578302.823    23578299.663
  23822459.184    -7862666.29243  -6113317.60242  23822460.913    23822457.167
  20830317.714   -26054477.53244 -20296236.46342  20830318.529    20830313.250
  24440605.207    -5165572.08843  -4018649.76642  24440605.671    24440602.460
  20433005.834   -26350545.72844 -20496054.37942  20433007.147    20433003.102
  21405658.770   -22221186.55143 -17274025.59442  21405659.898    21405655.270
  23233627.043   -12741723.35243  -9886411.16042  23233628.155    23233623.378
 03 12 26  3 20 30.0000000  0 10G29G26G15G17G30G21G10G 6G18G16
  23002382.351   -13617904.02743 -10590225.17642  23002383.835    23002379.603
  22110691.074   -16989401.60243 -13225235.26542  22110692.635    22110688.802
  23561893.989   -10461144.33843  -8140187.57042  23561894.634    23561891.815
  23591472.649    -9491470.01943  -7382693.81042  23591472.929    23591469.719
  23842408.478    -7757832.06443  -6031628.63242  23842410.143    23842406.538
  20825815.999   -26078134.13444 -20314670.16942  20825816.828    20825811.537
  24461027.729    -5058250.80743  -3935022.80142  24461028.252    24461025.082
  20437794.978   -26325378.69344 -20476443.70642  20437796.284    20437792.239
  21392439.417   -22290654.58143 -17328156.50742  21392440.572    21392435.905
  23226345.160   -12779989.61543  -9916229.01642  23226346.331    23226341.513
 03 12 26  3 21  0.0000000  0 10G29G26G15G17G30G21G10G 6G18G16
  23002857.380   -13615407.70443 -10588279.97842  23002858.895    23002854.581
  22103583.096   -17026754.31043 -13254341.25042  22103584.655    22103580.781
  23547729.467   -10535579.10043  -8198188.61842  23547730.063    23547727.256
  23604653.359    -9422204.99643  -7328721.08942  23604653.620    23604650.392
  23862357.728    -7652998.00943  -5949939.76342  23862359.420    23862355.811
  20821352.278   -26101591.15744 -20332948.36042  20821353.112    20821347.807
  24481462.013    -4950868.12243  -3851347.99442  24481462.666    24481459.285
  20442671.212   -26299753.91344 -20456476.34442  20442672.523    20442668.468
  21379295.783   -22359724.77843 -17381977.41942  21379296.936    21379292.270
  23219163.568   -12817729.11343  -9945636.40842  23219164.708    23219159.876
 03 12 26  3 21 30.0000000  0 10G29G26G15G17G30G21G10G 6G18G16
  23003435.397   -13612370.27443 -10585913.14542  23003436.870    23003432.601
  22096583.853   -17063535.67143 -13283002.03542  22096585.386    22096581.472
  23533582.500   -10609922.27343  -8256118.34042  23533583.000    23533580.075
  23617845.358    -9352881.04243  -7274702.44442  23617845.627    23617842.284
  23882307.052    -7548162.91043  -5868250.08742  23882308.728    23882305.283
  20816927.295   -26124844.60044 -20351067.91942  20816928.124    20816922.814
  24501908.107    -4843422.77143  -3767624.33842  24501908.897    24501905.447
  20447635.343   -26273667.22144 -20436149.05842  20447636.669    20447632.604
  21366228.782   -22428392.24643 -17435484.51842  21366229.919    21366225.265
  23212083.244   -12854936.82143  -9974629.42242  23212084.280    23212079.530
 03 12 26  3 22  0.0000000  0 10G29G26G15G17G30G21G10G 6G18G16
  23004115.964   -13608793.70543 -10583126.19142  23004117.487    23004113.171
  22089693.272   -17099745.60443 -13311217.54242  22089694.810    22089690.879
  23519452.424   -10684175.95743  -8313978.28242  23519452.978    23519450.112
  23631048.139    -9283500.25043  -7220639.50442  23631048.331    23631045.054
  23902255.728    -7443332.06443  -5786563.72642  23902257.361    23902253.936
  20812540.570   -26147896.96644 -20369030.79442  20812541.399    20812536.092
  24522365.333    -4735919.31043  -3683855.42842  24522366.065    24522362.729
  20452686.972   -26247120.67044 -20415463.43642  20452688.291    20452684.239
  21353238.180   -22496658.09743 -17488678.66742  21353239.312    21353234.692
  23205103.795   -12891614.06343 -10003209.08042  23205104.826    23205100.070
 03 12 26  3 22 30.0000000  0 10G29G26G15G17G30G21G10G 6G18G16
  23004898.866   -13604679.70943 -10579920.47442  23004900.396    23004896.012
  22082911.412   -17135384.30643 -13338987.93642  22082912.979    22082909.060
  23505339.026   -10758342.35643  -8371770.22142  23505339.535    23505336.683
  23644261.234    -9214065.06043  -7166534.17642  23644261.391    23644258.176
  23922202.636    -7338510.25043  -5704884.42642  23922204.276    23922200.816
  20808191.678   -26170750.53044 -20386838.75642  20808192.520    20808187.189
  24542832.753    -4628362.05043  -3600044.59042  24542833.623    24542830.235
  20457825.745   -26220116.26344 -20394421.04742  20457827.055    20457822.990
  21340323.871   -22564523.11543 -17541560.48042  21340324.998    21340320.386
  23198225.045   -12927762.19143 -10031376.44142  23198226.079    23198221.320
 03 12 26  3 23  0.0000000  0 10G29G26G15G17G30G21G10G 6G18G16
  23005784.976   -13600022.74943 -10576291.66842  23005786.579    23005782.174
  22076239.677   -17170444.33743 -13366307.41642  22076241.272    22076237.352
  23491243.189   -10832416.44443  -8429490.25542  23491243.693    23491240.732
  23657485.643    -9144570.35243  -7112382.47342  23657485.756    23657482.628
  23942148.372    -7233695.03143  -5623210.22542  23942149.999    23942146.407
  20803881.627   -26193399.97444 -20404487.66442  20803882.474    20803877.148
  24563310.974    -4520748.20943  -3516189.63842  24563311.928    24563308.408
  20463052.657   -26192648.51544 -20373017.60742  20463053.975    20463049.928
  21327487.045   -22631981.05243 -17594125.08442  21327488.163    21327483.565
  23191448.153   -12963374.86943 -10059126.57142  23191449.183    23191444.473
 03 12 26  3 23 30.0000000  0 10G29G26G15G17G30G21G10G 6G18G16
  23006773.839   -13594826.27243 -10572242.44442  23006775.405    23006771.004
  22069677.792   -17204927.43343 -13393177.34242  22069679.369    22069675.418
  23477164.087   -10906402.03843  -8487141.30042  23477164.584    23477161.746
  23670720.614    -9075020.38343  -7058187.71042  23670720.645    23670717.566
  23962091.510    -7128893.03543  -5541546.37442  23962093.169    23962089.572
  20799609.654   -26215849.26744 -20421980.61142  20799610.494    20799605.194
  24583798.853    -4413083.82943  -3432295.32342  24583799.731    24583796.237
  20468367.073   -26164721.13644 -20351256.01842  20468368.380    20468364.340
  21314727.215   -22699034.26643 -17646374.32442  21314728.345    21314723.750
  23184772.574   -12998455.23943 -10086461.92142  23184773.619    23184768.884
 03 12 26  3 24  0.0000000  0 10G29G26G15G17G30G21G10G 6G18G16
  23007865.817   -13589087.66443 -10567770.79842  23007867.381    23007863.074
  22063226.479   -17238829.09743 -13419594.20642  22063228.085    22063224.124
  23463102.412   -10980296.57143  -8544721.41142  23463102.936    23463100.059
  23683966.545    -9005412.60243  -7003947.89642  23683966.610    23683963.462
  23982032.071    -7024104.83743  -5459893.24842  23982033.728    23982030.080
  20795376.138   -26238096.44044 -20439316.06042  20795376.986    20795371.677
  24604296.380    -4305368.88343  -3348361.59342  24604297.265    24604293.729
  20473769.398   -26136331.68044 -20329134.36642  20473770.719    20473766.685
  21302045.013   -22765679.51243 -17698305.66542  21302046.151    21302041.556
  23178198.925   -13032999.82843 -10113379.77142  23178199.997    23178195.217
 03 12 26  3 24 30.0000000  0 10G29G26G15G17G30G21G10G 6G18G16
  23009060.849   -13582807.53543 -10562877.18042  23009062.431    23009058.099
  22056886.034   -17272148.16443 -13445557.09342  22056887.632    22056883.685
  23449057.838   -11054100.87243  -8602231.21542  23449058.300    23449055.462
  23697223.293    -8935748.30043  -6949664.04242  23697223.264    23697220.194
  24001969.294    -6919333.83443  -5378253.51942  24001970.995    24001967.352
  20791180.972   -26260142.13544 -20456494.51442  20791181.817    20791176.514
  24624802.871    -4197606.41543  -3264390.84342  24624803.826    24624800.235
  20479259.541   -26107480.78244 -20306653.15142  20479260.850    20479256.832
  21289440.504   -22831916.58443 -17749918.95142  21289441.648    21289437.037
  23171727.256   -13067008.74343 -10139880.22042  23171728.316    23171723.567
